<?xml version="1.0" encoding="UTF-8" standalone="no" ?>
<gpx xmlns="http://www.topografix.com/GPX/1/1" xmlns:xsi="http://www.w3.org/2001/XMLSchema-instance" xsi:schemaLocation="http://www.topografix.com/GPX/1/1 http://www.topografix.com/GPX/1/1/gpx.xsd" version="1.1" creator="VisuGPX - https://www.visugpx.com">
  <metadata>
    <name>Sainte Victoire </name>
    <desc><![CDATA[grp_trc:[nouvelles]]]></desc>
  </metadata>
  <trk>
    <name><![CDATA[27 août 2022 à 08:28:44]]></name>
    <cmt><![CDATA[27 août 2022 à 08:28:44]]></cmt>
    <trkseg>
      <trkpt lat="44.85815" lon="5.55638">
        <ele>1136</ele>
        <time>2022-08-27T06:28:45Z</time>
      </trkpt>
      <trkpt lat="44.85814" lon="5.55637">
        <ele>1135</ele>
        <time>2022-08-27T06:28:46Z</time>
      </trkpt>
      <trkpt lat="44.85815" lon="5.55637">
        <ele>1141</ele>
        <time>2022-08-27T06:29:20Z</time>
      </trkpt>
      <trkpt lat="44.85814" lon="5.55642">
        <ele>1144</ele>
        <time>2022-08-27T06:29:30Z</time>
      </trkpt>
      <trkpt lat="44.85816" lon="5.55645">
        <ele>1140</ele>
        <time>2022-08-27T06:31:16Z</time>
      </trkpt>
      <trkpt lat="44.85811" lon="5.55652">
        <ele>1140</ele>
        <time>2022-08-27T06:33:10Z</time>
      </trkpt>
      <trkpt lat="44.85812" lon="5.55638">
        <ele>1140</ele>
        <time>2022-08-27T06:33:18Z</time>
      </trkpt>
      <trkpt lat="44.85808" lon="5.55645">
        <ele>1140</ele>
        <time>2022-08-27T06:33:24Z</time>
      </trkpt>
      <trkpt lat="44.85805" lon="5.55659">
        <ele>1140</ele>
        <time>2022-08-27T06:33:31Z</time>
      </trkpt>
      <trkpt lat="44.85804" lon="5.55665">
        <ele>1139</ele>
        <time>2022-08-27T06:33:35Z</time>
      </trkpt>
      <trkpt lat="44.858" lon="5.5567">
        <ele>1139</ele>
        <time>2022-08-27T06:33:39Z</time>
      </trkpt>
      <trkpt lat="44.85793" lon="5.55691">
        <ele>1139</ele>
        <time>2022-08-27T06:33:50Z</time>
      </trkpt>
      <trkpt lat="44.85793" lon="5.55718">
        <ele>1137</ele>
        <time>2022-08-27T06:34:02Z</time>
      </trkpt>
      <trkpt lat="44.85794" lon="5.55737">
        <ele>1136</ele>
        <time>2022-08-27T06:34:15Z</time>
      </trkpt>
      <trkpt lat="44.85797" lon="5.55743">
        <ele>1135</ele>
        <time>2022-08-27T06:34:19Z</time>
      </trkpt>
      <trkpt lat="44.85794" lon="5.55744">
        <ele>1135</ele>
        <time>2022-08-27T06:38:50Z</time>
      </trkpt>
      <trkpt lat="44.85797" lon="5.55739">
        <ele>1136</ele>
        <time>2022-08-27T06:40:02Z</time>
      </trkpt>
      <trkpt lat="44.85795" lon="5.55741">
        <ele>1136</ele>
        <time>2022-08-27T06:40:42Z</time>
      </trkpt>
      <trkpt lat="44.85797" lon="5.55747">
        <ele>1136</ele>
        <time>2022-08-27T06:40:52Z</time>
      </trkpt>
      <trkpt lat="44.85802" lon="5.5574">
        <ele>1136</ele>
        <time>2022-08-27T06:41:06Z</time>
      </trkpt>
      <trkpt lat="44.85795" lon="5.55734">
        <ele>1136</ele>
        <time>2022-08-27T06:41:21Z</time>
      </trkpt>
      <trkpt lat="44.85794" lon="5.55737">
        <ele>1138</ele>
        <time>2022-08-27T06:42:02Z</time>
      </trkpt>
      <trkpt lat="44.85796" lon="5.55732">
        <ele>1136</ele>
        <time>2022-08-27T06:42:09Z</time>
      </trkpt>
      <trkpt lat="44.85798" lon="5.55724">
        <ele>1137</ele>
        <time>2022-08-27T06:42:14Z</time>
      </trkpt>
      <trkpt lat="44.858" lon="5.55713">
        <ele>1138</ele>
        <time>2022-08-27T06:42:20Z</time>
      </trkpt>
      <trkpt lat="44.85798" lon="5.55706">
        <ele>1138</ele>
        <time>2022-08-27T06:42:25Z</time>
      </trkpt>
      <trkpt lat="44.85797" lon="5.55697">
        <ele>1139</ele>
        <time>2022-08-27T06:42:32Z</time>
      </trkpt>
      <trkpt lat="44.858" lon="5.55682">
        <ele>1140</ele>
        <time>2022-08-27T06:42:41Z</time>
      </trkpt>
      <trkpt lat="44.85796" lon="5.55676">
        <ele>1141</ele>
        <time>2022-08-27T06:42:45Z</time>
      </trkpt>
      <trkpt lat="44.85783" lon="5.5566">
        <ele>1143</ele>
        <time>2022-08-27T06:42:59Z</time>
      </trkpt>
      <trkpt lat="44.85779" lon="5.55658">
        <ele>1143</ele>
        <time>2022-08-27T06:43:02Z</time>
      </trkpt>
      <trkpt lat="44.85776" lon="5.55652">
        <ele>1143</ele>
        <time>2022-08-27T06:43:05Z</time>
      </trkpt>
      <trkpt lat="44.85776" lon="5.55642">
        <ele>1144</ele>
        <time>2022-08-27T06:43:13Z</time>
      </trkpt>
      <trkpt lat="44.85763" lon="5.55615">
        <ele>1146</ele>
        <time>2022-08-27T06:43:30Z</time>
      </trkpt>
      <trkpt lat="44.85758" lon="5.55611">
        <ele>1147</ele>
        <time>2022-08-27T06:43:34Z</time>
      </trkpt>
      <trkpt lat="44.85762" lon="5.55591">
        <ele>1149</ele>
        <time>2022-08-27T06:43:46Z</time>
      </trkpt>
      <trkpt lat="44.85761" lon="5.55585">
        <ele>1149</ele>
        <time>2022-08-27T06:43:50Z</time>
      </trkpt>
      <trkpt lat="44.85757" lon="5.5558">
        <ele>1150</ele>
        <time>2022-08-27T06:43:54Z</time>
      </trkpt>
      <trkpt lat="44.85751" lon="5.5556">
        <ele>1152</ele>
        <time>2022-08-27T06:44:08Z</time>
      </trkpt>
      <trkpt lat="44.85749" lon="5.55545">
        <ele>1153</ele>
        <time>2022-08-27T06:44:19Z</time>
      </trkpt>
      <trkpt lat="44.8575" lon="5.55538">
        <ele>1154</ele>
        <time>2022-08-27T06:44:23Z</time>
      </trkpt>
      <trkpt lat="44.85748" lon="5.55527">
        <ele>1154</ele>
        <time>2022-08-27T06:44:31Z</time>
      </trkpt>
      <trkpt lat="44.85745" lon="5.55522">
        <ele>1155</ele>
        <time>2022-08-27T06:44:36Z</time>
      </trkpt>
      <trkpt lat="44.85745" lon="5.55514">
        <ele>1156</ele>
        <time>2022-08-27T06:44:41Z</time>
      </trkpt>
      <trkpt lat="44.85741" lon="5.55499">
        <ele>1157</ele>
        <time>2022-08-27T06:44:51Z</time>
      </trkpt>
      <trkpt lat="44.8574" lon="5.55491">
        <ele>1158</ele>
        <time>2022-08-27T06:44:59Z</time>
      </trkpt>
      <trkpt lat="44.85737" lon="5.55483">
        <ele>1159</ele>
        <time>2022-08-27T06:45:04Z</time>
      </trkpt>
      <trkpt lat="44.85736" lon="5.55468">
        <ele>1160</ele>
        <time>2022-08-27T06:45:13Z</time>
      </trkpt>
      <trkpt lat="44.8573" lon="5.55444">
        <ele>1162</ele>
        <time>2022-08-27T06:45:28Z</time>
      </trkpt>
      <trkpt lat="44.85718" lon="5.55433">
        <ele>1164</ele>
        <time>2022-08-27T06:45:43Z</time>
      </trkpt>
      <trkpt lat="44.85709" lon="5.55422">
        <ele>1165</ele>
        <time>2022-08-27T06:45:54Z</time>
      </trkpt>
      <trkpt lat="44.85705" lon="5.55418">
        <ele>1166</ele>
        <time>2022-08-27T06:45:58Z</time>
      </trkpt>
      <trkpt lat="44.85688" lon="5.55399">
        <ele>1169</ele>
        <time>2022-08-27T06:46:20Z</time>
      </trkpt>
      <trkpt lat="44.85685" lon="5.55391">
        <ele>1170</ele>
        <time>2022-08-27T06:46:28Z</time>
      </trkpt>
      <trkpt lat="44.85679" lon="5.55381">
        <ele>1172</ele>
        <time>2022-08-27T06:46:38Z</time>
      </trkpt>
      <trkpt lat="44.85674" lon="5.55379">
        <ele>1172</ele>
        <time>2022-08-27T06:46:41Z</time>
      </trkpt>
      <trkpt lat="44.85671" lon="5.55368">
        <ele>1174</ele>
        <time>2022-08-27T06:46:53Z</time>
      </trkpt>
      <trkpt lat="44.85668" lon="5.55358">
        <ele>1176</ele>
        <time>2022-08-27T06:47:04Z</time>
      </trkpt>
      <trkpt lat="44.85666" lon="5.55348">
        <ele>1178</ele>
        <time>2022-08-27T06:47:15Z</time>
      </trkpt>
      <trkpt lat="44.85657" lon="5.55342">
        <ele>1179</ele>
        <time>2022-08-27T06:47:20Z</time>
      </trkpt>
      <trkpt lat="44.85658" lon="5.55332">
        <ele>1180</ele>
        <time>2022-08-27T06:47:27Z</time>
      </trkpt>
      <trkpt lat="44.85655" lon="5.55324">
        <ele>1181</ele>
        <time>2022-08-27T06:47:34Z</time>
      </trkpt>
      <trkpt lat="44.85651" lon="5.55321">
        <ele>1181</ele>
        <time>2022-08-27T06:47:37Z</time>
      </trkpt>
      <trkpt lat="44.85643" lon="5.55309">
        <ele>1183</ele>
        <time>2022-08-27T06:47:49Z</time>
      </trkpt>
      <trkpt lat="44.85646" lon="5.55299">
        <ele>1184</ele>
        <time>2022-08-27T06:47:58Z</time>
      </trkpt>
      <trkpt lat="44.85642" lon="5.55294">
        <ele>1184</ele>
        <time>2022-08-27T06:48:01Z</time>
      </trkpt>
      <trkpt lat="44.85635" lon="5.55279">
        <ele>1186</ele>
        <time>2022-08-27T06:48:14Z</time>
      </trkpt>
      <trkpt lat="44.85631" lon="5.55256">
        <ele>1188</ele>
        <time>2022-08-27T06:48:32Z</time>
      </trkpt>
      <trkpt lat="44.85627" lon="5.55251">
        <ele>1189</ele>
        <time>2022-08-27T06:48:35Z</time>
      </trkpt>
      <trkpt lat="44.85623" lon="5.55249">
        <ele>1189</ele>
        <time>2022-08-27T06:48:37Z</time>
      </trkpt>
      <trkpt lat="44.8562" lon="5.55245">
        <ele>1189</ele>
        <time>2022-08-27T06:48:40Z</time>
      </trkpt>
      <trkpt lat="44.85617" lon="5.5524">
        <ele>1190</ele>
        <time>2022-08-27T06:48:44Z</time>
      </trkpt>
      <trkpt lat="44.85611" lon="5.55227">
        <ele>1191</ele>
        <time>2022-08-27T06:48:55Z</time>
      </trkpt>
      <trkpt lat="44.8561" lon="5.55221">
        <ele>1191</ele>
        <time>2022-08-27T06:49:00Z</time>
      </trkpt>
      <trkpt lat="44.85607" lon="5.5521">
        <ele>1192</ele>
        <time>2022-08-27T06:49:10Z</time>
      </trkpt>
      <trkpt lat="44.85606" lon="5.55204">
        <ele>1193</ele>
        <time>2022-08-27T06:49:15Z</time>
      </trkpt>
      <trkpt lat="44.85606" lon="5.55197">
        <ele>1193</ele>
        <time>2022-08-27T06:49:20Z</time>
      </trkpt>
      <trkpt lat="44.85612" lon="5.55177">
        <ele>1196</ele>
        <time>2022-08-27T06:49:39Z</time>
      </trkpt>
      <trkpt lat="44.85616" lon="5.55171">
        <ele>1196</ele>
        <time>2022-08-27T06:49:45Z</time>
      </trkpt>
      <trkpt lat="44.85618" lon="5.55157">
        <ele>1198</ele>
        <time>2022-08-27T06:49:56Z</time>
      </trkpt>
      <trkpt lat="44.85617" lon="5.55151">
        <ele>1198</ele>
        <time>2022-08-27T06:50:00Z</time>
      </trkpt>
      <trkpt lat="44.85618" lon="5.55132">
        <ele>1200</ele>
        <time>2022-08-27T06:50:11Z</time>
      </trkpt>
      <trkpt lat="44.85615" lon="5.55127">
        <ele>1200</ele>
        <time>2022-08-27T06:50:14Z</time>
      </trkpt>
      <trkpt lat="44.85615" lon="5.55121">
        <ele>1201</ele>
        <time>2022-08-27T06:50:18Z</time>
      </trkpt>
      <trkpt lat="44.85615" lon="5.55093">
        <ele>1202</ele>
        <time>2022-08-27T06:50:32Z</time>
      </trkpt>
      <trkpt lat="44.85619" lon="5.55082">
        <ele>1203</ele>
        <time>2022-08-27T06:50:38Z</time>
      </trkpt>
      <trkpt lat="44.8562" lon="5.5506">
        <ele>1205</ele>
        <time>2022-08-27T06:50:52Z</time>
      </trkpt>
      <trkpt lat="44.85615" lon="5.55032">
        <ele>1207</ele>
        <time>2022-08-27T06:51:09Z</time>
      </trkpt>
      <trkpt lat="44.85617" lon="5.55024">
        <ele>1208</ele>
        <time>2022-08-27T06:51:15Z</time>
      </trkpt>
      <trkpt lat="44.85614" lon="5.55009">
        <ele>1209</ele>
        <time>2022-08-27T06:51:25Z</time>
      </trkpt>
      <trkpt lat="44.85616" lon="5.54991">
        <ele>1210</ele>
        <time>2022-08-27T06:51:38Z</time>
      </trkpt>
      <trkpt lat="44.85616" lon="5.5498">
        <ele>1210</ele>
        <time>2022-08-27T06:51:44Z</time>
      </trkpt>
      <trkpt lat="44.85614" lon="5.54974">
        <ele>1210</ele>
        <time>2022-08-27T06:51:47Z</time>
      </trkpt>
      <trkpt lat="44.85612" lon="5.54959">
        <ele>1211</ele>
        <time>2022-08-27T06:51:56Z</time>
      </trkpt>
      <trkpt lat="44.85609" lon="5.54943">
        <ele>1211</ele>
        <time>2022-08-27T06:52:04Z</time>
      </trkpt>
      <trkpt lat="44.85612" lon="5.54927">
        <ele>1211</ele>
        <time>2022-08-27T06:52:13Z</time>
      </trkpt>
      <trkpt lat="44.85616" lon="5.5492">
        <ele>1211</ele>
        <time>2022-08-27T06:52:19Z</time>
      </trkpt>
      <trkpt lat="44.85615" lon="5.54899">
        <ele>1211</ele>
        <time>2022-08-27T06:52:30Z</time>
      </trkpt>
      <trkpt lat="44.85613" lon="5.5489">
        <ele>1212</ele>
        <time>2022-08-27T06:52:36Z</time>
      </trkpt>
      <trkpt lat="44.85608" lon="5.54882">
        <ele>1212</ele>
        <time>2022-08-27T06:52:40Z</time>
      </trkpt>
      <trkpt lat="44.85608" lon="5.54875">
        <ele>1212</ele>
        <time>2022-08-27T06:52:45Z</time>
      </trkpt>
      <trkpt lat="44.85606" lon="5.54866">
        <ele>1212</ele>
        <time>2022-08-27T06:52:51Z</time>
      </trkpt>
      <trkpt lat="44.85602" lon="5.54862">
        <ele>1212</ele>
        <time>2022-08-27T06:53:02Z</time>
      </trkpt>
      <trkpt lat="44.85597" lon="5.54849">
        <ele>1213</ele>
        <time>2022-08-27T06:53:09Z</time>
      </trkpt>
      <trkpt lat="44.85586" lon="5.54841">
        <ele>1213</ele>
        <time>2022-08-27T06:53:19Z</time>
      </trkpt>
      <trkpt lat="44.85582" lon="5.54847">
        <ele>1214</ele>
        <time>2022-08-27T06:53:21Z</time>
      </trkpt>
      <trkpt lat="44.85572" lon="5.54846">
        <ele>1215</ele>
        <time>2022-08-27T06:53:28Z</time>
      </trkpt>
      <trkpt lat="44.85568" lon="5.54842">
        <ele>1215</ele>
        <time>2022-08-27T06:53:35Z</time>
      </trkpt>
      <trkpt lat="44.85567" lon="5.54836">
        <ele>1216</ele>
        <time>2022-08-27T06:53:38Z</time>
      </trkpt>
      <trkpt lat="44.85563" lon="5.54832">
        <ele>1216</ele>
        <time>2022-08-27T06:53:41Z</time>
      </trkpt>
      <trkpt lat="44.85563" lon="5.54824">
        <ele>1217</ele>
        <time>2022-08-27T06:53:45Z</time>
      </trkpt>
      <trkpt lat="44.8556" lon="5.54817">
        <ele>1218</ele>
        <time>2022-08-27T06:53:49Z</time>
      </trkpt>
      <trkpt lat="44.85556" lon="5.54813">
        <ele>1218</ele>
        <time>2022-08-27T06:53:53Z</time>
      </trkpt>
      <trkpt lat="44.85552" lon="5.54811">
        <ele>1219</ele>
        <time>2022-08-27T06:53:57Z</time>
      </trkpt>
      <trkpt lat="44.85547" lon="5.5481">
        <ele>1219</ele>
        <time>2022-08-27T06:54:01Z</time>
      </trkpt>
      <trkpt lat="44.85543" lon="5.54808">
        <ele>1220</ele>
        <time>2022-08-27T06:54:06Z</time>
      </trkpt>
      <trkpt lat="44.85526" lon="5.5479">
        <ele>1222</ele>
        <time>2022-08-27T06:54:25Z</time>
      </trkpt>
      <trkpt lat="44.85521" lon="5.54786">
        <ele>1223</ele>
        <time>2022-08-27T06:54:30Z</time>
      </trkpt>
      <trkpt lat="44.85517" lon="5.54779">
        <ele>1224</ele>
        <time>2022-08-27T06:54:36Z</time>
      </trkpt>
      <trkpt lat="44.85512" lon="5.54777">
        <ele>1225</ele>
        <time>2022-08-27T06:54:40Z</time>
      </trkpt>
      <trkpt lat="44.85509" lon="5.54774">
        <ele>1225</ele>
        <time>2022-08-27T06:54:43Z</time>
      </trkpt>
      <trkpt lat="44.85506" lon="5.54767">
        <ele>1226</ele>
        <time>2022-08-27T06:54:49Z</time>
      </trkpt>
      <trkpt lat="44.855" lon="5.54762">
        <ele>1227</ele>
        <time>2022-08-27T06:54:55Z</time>
      </trkpt>
      <trkpt lat="44.85497" lon="5.54757">
        <ele>1227</ele>
        <time>2022-08-27T06:54:59Z</time>
      </trkpt>
      <trkpt lat="44.85487" lon="5.54749">
        <ele>1228</ele>
        <time>2022-08-27T06:55:09Z</time>
      </trkpt>
      <trkpt lat="44.85476" lon="5.54744">
        <ele>1230</ele>
        <time>2022-08-27T06:55:20Z</time>
      </trkpt>
      <trkpt lat="44.85473" lon="5.54738">
        <ele>1231</ele>
        <time>2022-08-27T06:55:27Z</time>
      </trkpt>
      <trkpt lat="44.85469" lon="5.54736">
        <ele>1231</ele>
        <time>2022-08-27T06:55:31Z</time>
      </trkpt>
      <trkpt lat="44.85464" lon="5.54732">
        <ele>1232</ele>
        <time>2022-08-27T06:55:35Z</time>
      </trkpt>
      <trkpt lat="44.85437" lon="5.54715">
        <ele>1235</ele>
        <time>2022-08-27T06:56:02Z</time>
      </trkpt>
      <trkpt lat="44.85434" lon="5.5471">
        <ele>1235</ele>
        <time>2022-08-27T06:56:05Z</time>
      </trkpt>
      <trkpt lat="44.85433" lon="5.54703">
        <ele>1236</ele>
        <time>2022-08-27T06:56:10Z</time>
      </trkpt>
      <trkpt lat="44.85429" lon="5.54696">
        <ele>1237</ele>
        <time>2022-08-27T06:56:16Z</time>
      </trkpt>
      <trkpt lat="44.85414" lon="5.54683">
        <ele>1239</ele>
        <time>2022-08-27T06:56:35Z</time>
      </trkpt>
      <trkpt lat="44.85414" lon="5.54674">
        <ele>1240</ele>
        <time>2022-08-27T06:56:39Z</time>
      </trkpt>
      <trkpt lat="44.85405" lon="5.54664">
        <ele>1241</ele>
        <time>2022-08-27T06:56:49Z</time>
      </trkpt>
      <trkpt lat="44.85399" lon="5.54662">
        <ele>1241</ele>
        <time>2022-08-27T06:56:53Z</time>
      </trkpt>
      <trkpt lat="44.85386" lon="5.54646">
        <ele>1243</ele>
        <time>2022-08-27T06:57:08Z</time>
      </trkpt>
      <trkpt lat="44.8537" lon="5.54639">
        <ele>1244</ele>
        <time>2022-08-27T06:57:22Z</time>
      </trkpt>
      <trkpt lat="44.85357" lon="5.54637">
        <ele>1245</ele>
        <time>2022-08-27T06:57:30Z</time>
      </trkpt>
      <trkpt lat="44.85347" lon="5.54633">
        <ele>1246</ele>
        <time>2022-08-27T06:57:40Z</time>
      </trkpt>
      <trkpt lat="44.85328" lon="5.54632">
        <ele>1248</ele>
        <time>2022-08-27T06:57:55Z</time>
      </trkpt>
      <trkpt lat="44.85325" lon="5.54626">
        <ele>1249</ele>
        <time>2022-08-27T06:58:04Z</time>
      </trkpt>
      <trkpt lat="44.85313" lon="5.5462">
        <ele>1250</ele>
        <time>2022-08-27T06:58:15Z</time>
      </trkpt>
      <trkpt lat="44.85306" lon="5.54615">
        <ele>1251</ele>
        <time>2022-08-27T06:58:22Z</time>
      </trkpt>
      <trkpt lat="44.85297" lon="5.54611">
        <ele>1252</ele>
        <time>2022-08-27T06:58:28Z</time>
      </trkpt>
      <trkpt lat="44.85293" lon="5.54607">
        <ele>1252</ele>
        <time>2022-08-27T06:58:31Z</time>
      </trkpt>
      <trkpt lat="44.8528" lon="5.54605">
        <ele>1253</ele>
        <time>2022-08-27T06:58:42Z</time>
      </trkpt>
      <trkpt lat="44.85276" lon="5.54606">
        <ele>1254</ele>
        <time>2022-08-27T06:58:45Z</time>
      </trkpt>
      <trkpt lat="44.85272" lon="5.54603">
        <ele>1254</ele>
        <time>2022-08-27T06:58:50Z</time>
      </trkpt>
      <trkpt lat="44.85267" lon="5.546">
        <ele>1255</ele>
        <time>2022-08-27T06:58:54Z</time>
      </trkpt>
      <trkpt lat="44.85262" lon="5.546">
        <ele>1255</ele>
        <time>2022-08-27T06:58:58Z</time>
      </trkpt>
      <trkpt lat="44.85253" lon="5.54597">
        <ele>1256</ele>
        <time>2022-08-27T06:59:05Z</time>
      </trkpt>
      <trkpt lat="44.85248" lon="5.54599">
        <ele>1257</ele>
        <time>2022-08-27T06:59:09Z</time>
      </trkpt>
      <trkpt lat="44.85243" lon="5.54598">
        <ele>1257</ele>
        <time>2022-08-27T06:59:14Z</time>
      </trkpt>
      <trkpt lat="44.85226" lon="5.54592">
        <ele>1259</ele>
        <time>2022-08-27T06:59:28Z</time>
      </trkpt>
      <trkpt lat="44.85217" lon="5.54594">
        <ele>1261</ele>
        <time>2022-08-27T06:59:38Z</time>
      </trkpt>
      <trkpt lat="44.85213" lon="5.54592">
        <ele>1262</ele>
        <time>2022-08-27T06:59:41Z</time>
      </trkpt>
      <trkpt lat="44.85198" lon="5.54597">
        <ele>1263</ele>
        <time>2022-08-27T06:59:54Z</time>
      </trkpt>
      <trkpt lat="44.85184" lon="5.54596">
        <ele>1265</ele>
        <time>2022-08-27T07:00:06Z</time>
      </trkpt>
      <trkpt lat="44.85178" lon="5.54597">
        <ele>1266</ele>
        <time>2022-08-27T07:00:13Z</time>
      </trkpt>
      <trkpt lat="44.85164" lon="5.54598">
        <ele>1268</ele>
        <time>2022-08-27T07:00:28Z</time>
      </trkpt>
      <trkpt lat="44.85142" lon="5.54586">
        <ele>1270</ele>
        <time>2022-08-27T07:00:48Z</time>
      </trkpt>
      <trkpt lat="44.85138" lon="5.5458">
        <ele>1270</ele>
        <time>2022-08-27T07:00:52Z</time>
      </trkpt>
      <trkpt lat="44.85114" lon="5.54573">
        <ele>1272</ele>
        <time>2022-08-27T07:01:13Z</time>
      </trkpt>
      <trkpt lat="44.85108" lon="5.54566">
        <ele>1273</ele>
        <time>2022-08-27T07:01:21Z</time>
      </trkpt>
      <trkpt lat="44.85089" lon="5.54565">
        <ele>1273</ele>
        <time>2022-08-27T07:01:32Z</time>
      </trkpt>
      <trkpt lat="44.85083" lon="5.54563">
        <ele>1274</ele>
        <time>2022-08-27T07:01:36Z</time>
      </trkpt>
      <trkpt lat="44.85073" lon="5.54563">
        <ele>1274</ele>
        <time>2022-08-27T07:01:43Z</time>
      </trkpt>
      <trkpt lat="44.85058" lon="5.54563">
        <ele>1275</ele>
        <time>2022-08-27T07:01:56Z</time>
      </trkpt>
      <trkpt lat="44.85054" lon="5.54561">
        <ele>1276</ele>
        <time>2022-08-27T07:01:59Z</time>
      </trkpt>
      <trkpt lat="44.85048" lon="5.54566">
        <ele>1276</ele>
        <time>2022-08-27T07:02:05Z</time>
      </trkpt>
      <trkpt lat="44.8503" lon="5.54566">
        <ele>1278</ele>
        <time>2022-08-27T07:02:21Z</time>
      </trkpt>
      <trkpt lat="44.85026" lon="5.54563">
        <ele>1279</ele>
        <time>2022-08-27T07:02:25Z</time>
      </trkpt>
      <trkpt lat="44.85016" lon="5.54558">
        <ele>1281</ele>
        <time>2022-08-27T07:02:41Z</time>
      </trkpt>
      <trkpt lat="44.85012" lon="5.54556">
        <ele>1281</ele>
        <time>2022-08-27T07:02:46Z</time>
      </trkpt>
      <trkpt lat="44.85008" lon="5.5455">
        <ele>1281</ele>
        <time>2022-08-27T07:02:49Z</time>
      </trkpt>
      <trkpt lat="44.85003" lon="5.54543">
        <ele>1282</ele>
        <time>2022-08-27T07:02:57Z</time>
      </trkpt>
      <trkpt lat="44.84989" lon="5.54509">
        <ele>1286</ele>
        <time>2022-08-27T07:03:25Z</time>
      </trkpt>
      <trkpt lat="44.84983" lon="5.54504">
        <ele>1286</ele>
        <time>2022-08-27T07:03:31Z</time>
      </trkpt>
      <trkpt lat="44.84983" lon="5.54492">
        <ele>1288</ele>
        <time>2022-08-27T07:03:44Z</time>
      </trkpt>
      <trkpt lat="44.84977" lon="5.5448">
        <ele>1290</ele>
        <time>2022-08-27T07:03:55Z</time>
      </trkpt>
      <trkpt lat="44.84974" lon="5.54471">
        <ele>1291</ele>
        <time>2022-08-27T07:04:04Z</time>
      </trkpt>
      <trkpt lat="44.84964" lon="5.54456">
        <ele>1293</ele>
        <time>2022-08-27T07:04:16Z</time>
      </trkpt>
      <trkpt lat="44.8496" lon="5.54453">
        <ele>1293</ele>
        <time>2022-08-27T07:04:19Z</time>
      </trkpt>
      <trkpt lat="44.84952" lon="5.54435">
        <ele>1296</ele>
        <time>2022-08-27T07:04:41Z</time>
      </trkpt>
      <trkpt lat="44.84946" lon="5.54432">
        <ele>1297</ele>
        <time>2022-08-27T07:04:44Z</time>
      </trkpt>
      <trkpt lat="44.84941" lon="5.54429">
        <ele>1298</ele>
        <time>2022-08-27T07:04:53Z</time>
      </trkpt>
      <trkpt lat="44.8493" lon="5.54425">
        <ele>1300</ele>
        <time>2022-08-27T07:05:08Z</time>
      </trkpt>
      <trkpt lat="44.84927" lon="5.54417">
        <ele>1301</ele>
        <time>2022-08-27T07:05:15Z</time>
      </trkpt>
      <trkpt lat="44.84921" lon="5.54413">
        <ele>1302</ele>
        <time>2022-08-27T07:05:22Z</time>
      </trkpt>
      <trkpt lat="44.84918" lon="5.54407">
        <ele>1305</ele>
        <time>2022-08-27T07:05:36Z</time>
      </trkpt>
      <trkpt lat="44.84904" lon="5.54392">
        <ele>1307</ele>
        <time>2022-08-27T07:05:57Z</time>
      </trkpt>
      <trkpt lat="44.849" lon="5.54388">
        <ele>1308</ele>
        <time>2022-08-27T07:06:01Z</time>
      </trkpt>
      <trkpt lat="44.84898" lon="5.54382">
        <ele>1309</ele>
        <time>2022-08-27T07:06:08Z</time>
      </trkpt>
      <trkpt lat="44.84891" lon="5.54373">
        <ele>1312</ele>
        <time>2022-08-27T07:06:24Z</time>
      </trkpt>
      <trkpt lat="44.84888" lon="5.54367">
        <ele>1312</ele>
        <time>2022-08-27T07:06:28Z</time>
      </trkpt>
      <trkpt lat="44.84884" lon="5.54364">
        <ele>1313</ele>
        <time>2022-08-27T07:06:33Z</time>
      </trkpt>
      <trkpt lat="44.84873" lon="5.54358">
        <ele>1316</ele>
        <time>2022-08-27T07:06:51Z</time>
      </trkpt>
      <trkpt lat="44.84864" lon="5.5435">
        <ele>1318</ele>
        <time>2022-08-27T07:07:05Z</time>
      </trkpt>
      <trkpt lat="44.84859" lon="5.54342">
        <ele>1320</ele>
        <time>2022-08-27T07:07:14Z</time>
      </trkpt>
      <trkpt lat="44.84855" lon="5.54339">
        <ele>1320</ele>
        <time>2022-08-27T07:07:18Z</time>
      </trkpt>
      <trkpt lat="44.84851" lon="5.54333">
        <ele>1321</ele>
        <time>2022-08-27T07:07:26Z</time>
      </trkpt>
      <trkpt lat="44.84849" lon="5.54326">
        <ele>1322</ele>
        <time>2022-08-27T07:07:31Z</time>
      </trkpt>
      <trkpt lat="44.84844" lon="5.54321">
        <ele>1324</ele>
        <time>2022-08-27T07:07:39Z</time>
      </trkpt>
      <trkpt lat="44.84837" lon="5.54323">
        <ele>1325</ele>
        <time>2022-08-27T07:07:48Z</time>
      </trkpt>
      <trkpt lat="44.84835" lon="5.54318">
        <ele>1326</ele>
        <time>2022-08-27T07:07:51Z</time>
      </trkpt>
      <trkpt lat="44.84832" lon="5.54312">
        <ele>1327</ele>
        <time>2022-08-27T07:07:59Z</time>
      </trkpt>
      <trkpt lat="44.84823" lon="5.54303">
        <ele>1328</ele>
        <time>2022-08-27T07:08:10Z</time>
      </trkpt>
      <trkpt lat="44.84821" lon="5.54295">
        <ele>1329</ele>
        <time>2022-08-27T07:08:16Z</time>
      </trkpt>
      <trkpt lat="44.84817" lon="5.54291">
        <ele>1329</ele>
        <time>2022-08-27T07:08:19Z</time>
      </trkpt>
      <trkpt lat="44.84815" lon="5.54285">
        <ele>1329</ele>
        <time>2022-08-27T07:08:23Z</time>
      </trkpt>
      <trkpt lat="44.84811" lon="5.54281">
        <ele>1330</ele>
        <time>2022-08-27T07:08:27Z</time>
      </trkpt>
      <trkpt lat="44.84808" lon="5.54275">
        <ele>1330</ele>
        <time>2022-08-27T07:08:31Z</time>
      </trkpt>
      <trkpt lat="44.84803" lon="5.54273">
        <ele>1330</ele>
        <time>2022-08-27T07:08:34Z</time>
      </trkpt>
      <trkpt lat="44.84801" lon="5.54267">
        <ele>1330</ele>
        <time>2022-08-27T07:08:37Z</time>
      </trkpt>
      <trkpt lat="44.84781" lon="5.54244">
        <ele>1332</ele>
        <time>2022-08-27T07:08:58Z</time>
      </trkpt>
      <trkpt lat="44.84778" lon="5.54238">
        <ele>1333</ele>
        <time>2022-08-27T07:09:02Z</time>
      </trkpt>
      <trkpt lat="44.84762" lon="5.54225">
        <ele>1334</ele>
        <time>2022-08-27T07:09:14Z</time>
      </trkpt>
      <trkpt lat="44.84759" lon="5.54231">
        <ele>1335</ele>
        <time>2022-08-27T07:09:16Z</time>
      </trkpt>
      <trkpt lat="44.84746" lon="5.54238">
        <ele>1336</ele>
        <time>2022-08-27T07:09:26Z</time>
      </trkpt>
      <trkpt lat="44.84741" lon="5.54235">
        <ele>1337</ele>
        <time>2022-08-27T07:09:38Z</time>
      </trkpt>
      <trkpt lat="44.84731" lon="5.54232">
        <ele>1338</ele>
        <time>2022-08-27T07:09:56Z</time>
      </trkpt>
      <trkpt lat="44.84727" lon="5.54229">
        <ele>1339</ele>
        <time>2022-08-27T07:10:01Z</time>
      </trkpt>
      <trkpt lat="44.84718" lon="5.54205">
        <ele>1339</ele>
        <time>2022-08-27T07:10:19Z</time>
      </trkpt>
      <trkpt lat="44.84706" lon="5.54191">
        <ele>1339</ele>
        <time>2022-08-27T07:10:34Z</time>
      </trkpt>
      <trkpt lat="44.84697" lon="5.54183">
        <ele>1338</ele>
        <time>2022-08-27T07:10:41Z</time>
      </trkpt>
      <trkpt lat="44.84693" lon="5.54177">
        <ele>1338</ele>
        <time>2022-08-27T07:10:44Z</time>
      </trkpt>
      <trkpt lat="44.84692" lon="5.54167">
        <ele>1338</ele>
        <time>2022-08-27T07:10:47Z</time>
      </trkpt>
      <trkpt lat="44.84693" lon="5.54153">
        <ele>1338</ele>
        <time>2022-08-27T07:10:52Z</time>
      </trkpt>
      <trkpt lat="44.84698" lon="5.54142">
        <ele>1338</ele>
        <time>2022-08-27T07:10:57Z</time>
      </trkpt>
      <trkpt lat="44.84702" lon="5.54137">
        <ele>1339</ele>
        <time>2022-08-27T07:11:01Z</time>
      </trkpt>
      <trkpt lat="44.84707" lon="5.54137">
        <ele>1339</ele>
        <time>2022-08-27T07:11:06Z</time>
      </trkpt>
      <trkpt lat="44.84717" lon="5.54131">
        <ele>1340</ele>
        <time>2022-08-27T07:11:13Z</time>
      </trkpt>
      <trkpt lat="44.8472" lon="5.54127">
        <ele>1341</ele>
        <time>2022-08-27T07:11:18Z</time>
      </trkpt>
      <trkpt lat="44.84726" lon="5.54124">
        <ele>1343</ele>
        <time>2022-08-27T07:11:29Z</time>
      </trkpt>
      <trkpt lat="44.84732" lon="5.5412">
        <ele>1345</ele>
        <time>2022-08-27T07:11:39Z</time>
      </trkpt>
      <trkpt lat="44.84736" lon="5.54118">
        <ele>1345</ele>
        <time>2022-08-27T07:11:42Z</time>
      </trkpt>
      <trkpt lat="44.84742" lon="5.54113">
        <ele>1346</ele>
        <time>2022-08-27T07:11:49Z</time>
      </trkpt>
      <trkpt lat="44.84759" lon="5.54102">
        <ele>1349</ele>
        <time>2022-08-27T07:12:11Z</time>
      </trkpt>
      <trkpt lat="44.84765" lon="5.54103">
        <ele>1350</ele>
        <time>2022-08-27T07:12:17Z</time>
      </trkpt>
      <trkpt lat="44.8477" lon="5.54104">
        <ele>1350</ele>
        <time>2022-08-27T07:12:21Z</time>
      </trkpt>
      <trkpt lat="44.84774" lon="5.54102">
        <ele>1350</ele>
        <time>2022-08-27T07:12:24Z</time>
      </trkpt>
      <trkpt lat="44.84778" lon="5.54098">
        <ele>1350</ele>
        <time>2022-08-27T07:12:27Z</time>
      </trkpt>
      <trkpt lat="44.84782" lon="5.54096">
        <ele>1350</ele>
        <time>2022-08-27T07:12:29Z</time>
      </trkpt>
      <trkpt lat="44.84788" lon="5.54098">
        <ele>1351</ele>
        <time>2022-08-27T07:12:37Z</time>
      </trkpt>
      <trkpt lat="44.84797" lon="5.54095">
        <ele>1352</ele>
        <time>2022-08-27T07:12:44Z</time>
      </trkpt>
      <trkpt lat="44.84808" lon="5.54087">
        <ele>1353</ele>
        <time>2022-08-27T07:12:54Z</time>
      </trkpt>
      <trkpt lat="44.84813" lon="5.54085">
        <ele>1353</ele>
        <time>2022-08-27T07:12:58Z</time>
      </trkpt>
      <trkpt lat="44.84826" lon="5.54087">
        <ele>1352</ele>
        <time>2022-08-27T07:13:10Z</time>
      </trkpt>
      <trkpt lat="44.84829" lon="5.54096">
        <ele>1351</ele>
        <time>2022-08-27T07:13:16Z</time>
      </trkpt>
      <trkpt lat="44.84838" lon="5.54098">
        <ele>1352</ele>
        <time>2022-08-27T07:13:23Z</time>
      </trkpt>
      <trkpt lat="44.84848" lon="5.54094">
        <ele>1352</ele>
        <time>2022-08-27T07:13:29Z</time>
      </trkpt>
      <trkpt lat="44.84852" lon="5.54092">
        <ele>1351</ele>
        <time>2022-08-27T07:13:32Z</time>
      </trkpt>
      <trkpt lat="44.84866" lon="5.54089">
        <ele>1349</ele>
        <time>2022-08-27T07:13:43Z</time>
      </trkpt>
      <trkpt lat="44.84877" lon="5.54087">
        <ele>1349</ele>
        <time>2022-08-27T07:13:50Z</time>
      </trkpt>
      <trkpt lat="44.8489" lon="5.54074">
        <ele>1350</ele>
        <time>2022-08-27T07:14:02Z</time>
      </trkpt>
      <trkpt lat="44.849" lon="5.54071">
        <ele>1350</ele>
        <time>2022-08-27T07:14:09Z</time>
      </trkpt>
      <trkpt lat="44.84915" lon="5.5407">
        <ele>1351</ele>
        <time>2022-08-27T07:14:21Z</time>
      </trkpt>
      <trkpt lat="44.84927" lon="5.54055">
        <ele>1352</ele>
        <time>2022-08-27T07:14:34Z</time>
      </trkpt>
      <trkpt lat="44.84936" lon="5.54049">
        <ele>1352</ele>
        <time>2022-08-27T07:14:43Z</time>
      </trkpt>
      <trkpt lat="44.84941" lon="5.54054">
        <ele>1353</ele>
        <time>2022-08-27T07:14:56Z</time>
      </trkpt>
      <trkpt lat="44.84943" lon="5.5406">
        <ele>1354</ele>
        <time>2022-08-27T07:15:00Z</time>
      </trkpt>
      <trkpt lat="44.84949" lon="5.54059">
        <ele>1355</ele>
        <time>2022-08-27T07:15:07Z</time>
      </trkpt>
      <trkpt lat="44.84954" lon="5.54062">
        <ele>1355</ele>
        <time>2022-08-27T07:15:11Z</time>
      </trkpt>
      <trkpt lat="44.84958" lon="5.54068">
        <ele>1355</ele>
        <time>2022-08-27T07:15:15Z</time>
      </trkpt>
      <trkpt lat="44.84964" lon="5.54066">
        <ele>1356</ele>
        <time>2022-08-27T07:15:19Z</time>
      </trkpt>
      <trkpt lat="44.84974" lon="5.54061">
        <ele>1356</ele>
        <time>2022-08-27T07:15:26Z</time>
      </trkpt>
      <trkpt lat="44.84979" lon="5.54067">
        <ele>1356</ele>
        <time>2022-08-27T07:15:32Z</time>
      </trkpt>
      <trkpt lat="44.8499" lon="5.54071">
        <ele>1357</ele>
        <time>2022-08-27T07:15:40Z</time>
      </trkpt>
      <trkpt lat="44.84994" lon="5.54078">
        <ele>1357</ele>
        <time>2022-08-27T07:15:47Z</time>
      </trkpt>
      <trkpt lat="44.84999" lon="5.54079">
        <ele>1358</ele>
        <time>2022-08-27T07:15:51Z</time>
      </trkpt>
      <trkpt lat="44.85006" lon="5.54085">
        <ele>1358</ele>
        <time>2022-08-27T07:15:59Z</time>
      </trkpt>
      <trkpt lat="44.85008" lon="5.5409">
        <ele>1358</ele>
        <time>2022-08-27T07:16:02Z</time>
      </trkpt>
      <trkpt lat="44.85021" lon="5.54099">
        <ele>1359</ele>
        <time>2022-08-27T07:16:13Z</time>
      </trkpt>
      <trkpt lat="44.85031" lon="5.541">
        <ele>1360</ele>
        <time>2022-08-27T07:16:20Z</time>
      </trkpt>
      <trkpt lat="44.85051" lon="5.54091">
        <ele>1361</ele>
        <time>2022-08-27T07:16:37Z</time>
      </trkpt>
      <trkpt lat="44.85057" lon="5.54088">
        <ele>1361</ele>
        <time>2022-08-27T07:16:42Z</time>
      </trkpt>
      <trkpt lat="44.85068" lon="5.54084">
        <ele>1362</ele>
        <time>2022-08-27T07:16:50Z</time>
      </trkpt>
      <trkpt lat="44.85073" lon="5.54082">
        <ele>1362</ele>
        <time>2022-08-27T07:16:54Z</time>
      </trkpt>
      <trkpt lat="44.8508" lon="5.54081">
        <ele>1363</ele>
        <time>2022-08-27T07:17:00Z</time>
      </trkpt>
      <trkpt lat="44.85084" lon="5.5408">
        <ele>1363</ele>
        <time>2022-08-27T07:17:05Z</time>
      </trkpt>
      <trkpt lat="44.8509" lon="5.54078">
        <ele>1363</ele>
        <time>2022-08-27T07:17:09Z</time>
      </trkpt>
      <trkpt lat="44.85092" lon="5.54071">
        <ele>1364</ele>
        <time>2022-08-27T07:17:13Z</time>
      </trkpt>
      <trkpt lat="44.85097" lon="5.54069">
        <ele>1364</ele>
        <time>2022-08-27T07:17:17Z</time>
      </trkpt>
      <trkpt lat="44.85108" lon="5.54069">
        <ele>1364</ele>
        <time>2022-08-27T07:17:26Z</time>
      </trkpt>
      <trkpt lat="44.85124" lon="5.54071">
        <ele>1365</ele>
        <time>2022-08-27T07:17:49Z</time>
      </trkpt>
      <trkpt lat="44.85129" lon="5.54073">
        <ele>1365</ele>
        <time>2022-08-27T07:17:53Z</time>
      </trkpt>
      <trkpt lat="44.85145" lon="5.54096">
        <ele>1367</ele>
        <time>2022-08-27T07:18:15Z</time>
      </trkpt>
      <trkpt lat="44.85161" lon="5.54086">
        <ele>1368</ele>
        <time>2022-08-27T07:18:29Z</time>
      </trkpt>
      <trkpt lat="44.85165" lon="5.54078">
        <ele>1368</ele>
        <time>2022-08-27T07:18:36Z</time>
      </trkpt>
      <trkpt lat="44.85177" lon="5.54074">
        <ele>1369</ele>
        <time>2022-08-27T07:18:45Z</time>
      </trkpt>
      <trkpt lat="44.85184" lon="5.54068">
        <ele>1370</ele>
        <time>2022-08-27T07:18:52Z</time>
      </trkpt>
      <trkpt lat="44.85192" lon="5.54059">
        <ele>1369</ele>
        <time>2022-08-27T07:18:59Z</time>
      </trkpt>
      <trkpt lat="44.85199" lon="5.54062">
        <ele>1370</ele>
        <time>2022-08-27T07:19:06Z</time>
      </trkpt>
      <trkpt lat="44.85204" lon="5.54066">
        <ele>1369</ele>
        <time>2022-08-27T07:19:11Z</time>
      </trkpt>
      <trkpt lat="44.85208" lon="5.54074">
        <ele>1369</ele>
        <time>2022-08-27T07:19:16Z</time>
      </trkpt>
      <trkpt lat="44.85214" lon="5.54084">
        <ele>1370</ele>
        <time>2022-08-27T07:19:27Z</time>
      </trkpt>
      <trkpt lat="44.85215" lon="5.54092">
        <ele>1371</ele>
        <time>2022-08-27T07:19:31Z</time>
      </trkpt>
      <trkpt lat="44.8522" lon="5.54095">
        <ele>1371</ele>
        <time>2022-08-27T07:19:36Z</time>
      </trkpt>
      <trkpt lat="44.8523" lon="5.54086">
        <ele>1372</ele>
        <time>2022-08-27T07:19:43Z</time>
      </trkpt>
      <trkpt lat="44.85235" lon="5.5408">
        <ele>1372</ele>
        <time>2022-08-27T07:19:48Z</time>
      </trkpt>
      <trkpt lat="44.85249" lon="5.54061">
        <ele>1373</ele>
        <time>2022-08-27T07:19:59Z</time>
      </trkpt>
      <trkpt lat="44.85246" lon="5.54052">
        <ele>1374</ele>
        <time>2022-08-27T07:20:03Z</time>
      </trkpt>
      <trkpt lat="44.85248" lon="5.54045">
        <ele>1374</ele>
        <time>2022-08-27T07:20:09Z</time>
      </trkpt>
      <trkpt lat="44.85252" lon="5.54037">
        <ele>1375</ele>
        <time>2022-08-27T07:20:17Z</time>
      </trkpt>
      <trkpt lat="44.85258" lon="5.54029">
        <ele>1376</ele>
        <time>2022-08-27T07:20:26Z</time>
      </trkpt>
      <trkpt lat="44.85266" lon="5.54026">
        <ele>1377</ele>
        <time>2022-08-27T07:20:34Z</time>
      </trkpt>
      <trkpt lat="44.85278" lon="5.54025">
        <ele>1377</ele>
        <time>2022-08-27T07:20:44Z</time>
      </trkpt>
      <trkpt lat="44.85283" lon="5.54027">
        <ele>1377</ele>
        <time>2022-08-27T07:20:48Z</time>
      </trkpt>
      <trkpt lat="44.85288" lon="5.54024">
        <ele>1377</ele>
        <time>2022-08-27T07:20:52Z</time>
      </trkpt>
      <trkpt lat="44.85289" lon="5.54015">
        <ele>1378</ele>
        <time>2022-08-27T07:20:55Z</time>
      </trkpt>
      <trkpt lat="44.85291" lon="5.54007">
        <ele>1378</ele>
        <time>2022-08-27T07:20:59Z</time>
      </trkpt>
      <trkpt lat="44.85294" lon="5.54002">
        <ele>1379</ele>
        <time>2022-08-27T07:21:03Z</time>
      </trkpt>
      <trkpt lat="44.85298" lon="5.54003">
        <ele>1379</ele>
        <time>2022-08-27T07:21:06Z</time>
      </trkpt>
      <trkpt lat="44.85303" lon="5.54003">
        <ele>1379</ele>
        <time>2022-08-27T07:21:09Z</time>
      </trkpt>
      <trkpt lat="44.85306" lon="5.53998">
        <ele>1379</ele>
        <time>2022-08-27T07:21:13Z</time>
      </trkpt>
      <trkpt lat="44.85308" lon="5.53984">
        <ele>1379</ele>
        <time>2022-08-27T07:21:21Z</time>
      </trkpt>
      <trkpt lat="44.85308" lon="5.53976">
        <ele>1379</ele>
        <time>2022-08-27T07:21:25Z</time>
      </trkpt>
      <trkpt lat="44.8531" lon="5.53967">
        <ele>1380</ele>
        <time>2022-08-27T07:21:29Z</time>
      </trkpt>
      <trkpt lat="44.85317" lon="5.53954">
        <ele>1380</ele>
        <time>2022-08-27T07:21:37Z</time>
      </trkpt>
      <trkpt lat="44.85322" lon="5.53951">
        <ele>1381</ele>
        <time>2022-08-27T07:21:44Z</time>
      </trkpt>
      <trkpt lat="44.85326" lon="5.53954">
        <ele>1381</ele>
        <time>2022-08-27T07:21:48Z</time>
      </trkpt>
      <trkpt lat="44.85333" lon="5.53954">
        <ele>1381</ele>
        <time>2022-08-27T07:21:54Z</time>
      </trkpt>
      <trkpt lat="44.85338" lon="5.53954">
        <ele>1382</ele>
        <time>2022-08-27T07:22:01Z</time>
      </trkpt>
      <trkpt lat="44.85341" lon="5.5396">
        <ele>1382</ele>
        <time>2022-08-27T07:22:09Z</time>
      </trkpt>
      <trkpt lat="44.85344" lon="5.53964">
        <ele>1381</ele>
        <time>2022-08-27T07:22:14Z</time>
      </trkpt>
      <trkpt lat="44.85349" lon="5.53966">
        <ele>1381</ele>
        <time>2022-08-27T07:22:19Z</time>
      </trkpt>
      <trkpt lat="44.85355" lon="5.53964">
        <ele>1381</ele>
        <time>2022-08-27T07:22:25Z</time>
      </trkpt>
      <trkpt lat="44.85359" lon="5.53959">
        <ele>1381</ele>
        <time>2022-08-27T07:22:29Z</time>
      </trkpt>
      <trkpt lat="44.85365" lon="5.53957">
        <ele>1381</ele>
        <time>2022-08-27T07:22:33Z</time>
      </trkpt>
      <trkpt lat="44.85378" lon="5.53955">
        <ele>1381</ele>
        <time>2022-08-27T07:22:42Z</time>
      </trkpt>
      <trkpt lat="44.85392" lon="5.53949">
        <ele>1381</ele>
        <time>2022-08-27T07:22:51Z</time>
      </trkpt>
      <trkpt lat="44.85395" lon="5.53942">
        <ele>1381</ele>
        <time>2022-08-27T07:22:55Z</time>
      </trkpt>
      <trkpt lat="44.85404" lon="5.53934">
        <ele>1381</ele>
        <time>2022-08-27T07:23:03Z</time>
      </trkpt>
      <trkpt lat="44.8541" lon="5.5393">
        <ele>1381</ele>
        <time>2022-08-27T07:23:08Z</time>
      </trkpt>
      <trkpt lat="44.85416" lon="5.53914">
        <ele>1382</ele>
        <time>2022-08-27T07:23:18Z</time>
      </trkpt>
      <trkpt lat="44.85417" lon="5.53906">
        <ele>1381</ele>
        <time>2022-08-27T07:23:21Z</time>
      </trkpt>
      <trkpt lat="44.85422" lon="5.53899">
        <ele>1381</ele>
        <time>2022-08-27T07:23:26Z</time>
      </trkpt>
      <trkpt lat="44.85427" lon="5.53895">
        <ele>1381</ele>
        <time>2022-08-27T07:23:30Z</time>
      </trkpt>
      <trkpt lat="44.85427" lon="5.53885">
        <ele>1382</ele>
        <time>2022-08-27T07:23:35Z</time>
      </trkpt>
      <trkpt lat="44.85427" lon="5.53876">
        <ele>1382</ele>
        <time>2022-08-27T07:23:40Z</time>
      </trkpt>
      <trkpt lat="44.85429" lon="5.53867">
        <ele>1382</ele>
        <time>2022-08-27T07:23:44Z</time>
      </trkpt>
      <trkpt lat="44.85432" lon="5.5386">
        <ele>1382</ele>
        <time>2022-08-27T07:23:49Z</time>
      </trkpt>
      <trkpt lat="44.85441" lon="5.53856">
        <ele>1381</ele>
        <time>2022-08-27T07:23:53Z</time>
      </trkpt>
      <trkpt lat="44.85446" lon="5.53859">
        <ele>1381</ele>
        <time>2022-08-27T07:23:57Z</time>
      </trkpt>
      <trkpt lat="44.85451" lon="5.5386">
        <ele>1382</ele>
        <time>2022-08-27T07:24:00Z</time>
      </trkpt>
      <trkpt lat="44.85455" lon="5.53859">
        <ele>1382</ele>
        <time>2022-08-27T07:24:05Z</time>
      </trkpt>
      <trkpt lat="44.8546" lon="5.53845">
        <ele>1382</ele>
        <time>2022-08-27T07:24:11Z</time>
      </trkpt>
      <trkpt lat="44.85461" lon="5.53837">
        <ele>1382</ele>
        <time>2022-08-27T07:24:15Z</time>
      </trkpt>
      <trkpt lat="44.8546" lon="5.53829">
        <ele>1382</ele>
        <time>2022-08-27T07:24:19Z</time>
      </trkpt>
      <trkpt lat="44.8546" lon="5.53821">
        <ele>1382</ele>
        <time>2022-08-27T07:24:25Z</time>
      </trkpt>
      <trkpt lat="44.85466" lon="5.53823">
        <ele>1383</ele>
        <time>2022-08-27T07:24:31Z</time>
      </trkpt>
      <trkpt lat="44.85471" lon="5.53824">
        <ele>1383</ele>
        <time>2022-08-27T07:24:36Z</time>
      </trkpt>
      <trkpt lat="44.85477" lon="5.53827">
        <ele>1382</ele>
        <time>2022-08-27T07:24:41Z</time>
      </trkpt>
      <trkpt lat="44.85483" lon="5.53824">
        <ele>1382</ele>
        <time>2022-08-27T07:24:45Z</time>
      </trkpt>
      <trkpt lat="44.85491" lon="5.53798">
        <ele>1382</ele>
        <time>2022-08-27T07:24:57Z</time>
      </trkpt>
      <trkpt lat="44.85497" lon="5.53795">
        <ele>1383</ele>
        <time>2022-08-27T07:25:05Z</time>
      </trkpt>
      <trkpt lat="44.85499" lon="5.53784">
        <ele>1382</ele>
        <time>2022-08-27T07:25:10Z</time>
      </trkpt>
      <trkpt lat="44.85513" lon="5.53766">
        <ele>1382</ele>
        <time>2022-08-27T07:25:22Z</time>
      </trkpt>
      <trkpt lat="44.85515" lon="5.53758">
        <ele>1382</ele>
        <time>2022-08-27T07:25:29Z</time>
      </trkpt>
      <trkpt lat="44.85518" lon="5.53747">
        <ele>1382</ele>
        <time>2022-08-27T07:25:38Z</time>
      </trkpt>
      <trkpt lat="44.85522" lon="5.53739">
        <ele>1382</ele>
        <time>2022-08-27T07:25:42Z</time>
      </trkpt>
      <trkpt lat="44.85528" lon="5.53735">
        <ele>1382</ele>
        <time>2022-08-27T07:25:46Z</time>
      </trkpt>
      <trkpt lat="44.85532" lon="5.53735">
        <ele>1382</ele>
        <time>2022-08-27T07:25:49Z</time>
      </trkpt>
      <trkpt lat="44.85535" lon="5.53723">
        <ele>1382</ele>
        <time>2022-08-27T07:25:57Z</time>
      </trkpt>
      <trkpt lat="44.85538" lon="5.53705">
        <ele>1383</ele>
        <time>2022-08-27T07:26:07Z</time>
      </trkpt>
      <trkpt lat="44.85542" lon="5.53699">
        <ele>1383</ele>
        <time>2022-08-27T07:26:13Z</time>
      </trkpt>
      <trkpt lat="44.85548" lon="5.53696">
        <ele>1383</ele>
        <time>2022-08-27T07:26:17Z</time>
      </trkpt>
      <trkpt lat="44.85551" lon="5.53686">
        <ele>1384</ele>
        <time>2022-08-27T07:26:29Z</time>
      </trkpt>
      <trkpt lat="44.85559" lon="5.53672">
        <ele>1386</ele>
        <time>2022-08-27T07:26:40Z</time>
      </trkpt>
      <trkpt lat="44.85559" lon="5.53664">
        <ele>1386</ele>
        <time>2022-08-27T07:26:45Z</time>
      </trkpt>
      <trkpt lat="44.85565" lon="5.53661">
        <ele>1387</ele>
        <time>2022-08-27T07:26:49Z</time>
      </trkpt>
      <trkpt lat="44.85565" lon="5.5365">
        <ele>1387</ele>
        <time>2022-08-27T07:26:55Z</time>
      </trkpt>
      <trkpt lat="44.85571" lon="5.53641">
        <ele>1388</ele>
        <time>2022-08-27T07:27:05Z</time>
      </trkpt>
      <trkpt lat="44.85575" lon="5.53638">
        <ele>1388</ele>
        <time>2022-08-27T07:27:10Z</time>
      </trkpt>
      <trkpt lat="44.85578" lon="5.53625">
        <ele>1389</ele>
        <time>2022-08-27T07:27:17Z</time>
      </trkpt>
      <trkpt lat="44.85577" lon="5.53617">
        <ele>1389</ele>
        <time>2022-08-27T07:27:23Z</time>
      </trkpt>
      <trkpt lat="44.85583" lon="5.53614">
        <ele>1390</ele>
        <time>2022-08-27T07:27:27Z</time>
      </trkpt>
      <trkpt lat="44.8559" lon="5.53607">
        <ele>1392</ele>
        <time>2022-08-27T07:27:40Z</time>
      </trkpt>
      <trkpt lat="44.85594" lon="5.53601">
        <ele>1392</ele>
        <time>2022-08-27T07:27:44Z</time>
      </trkpt>
      <trkpt lat="44.85592" lon="5.53593">
        <ele>1392</ele>
        <time>2022-08-27T07:27:49Z</time>
      </trkpt>
      <trkpt lat="44.85597" lon="5.53588">
        <ele>1392</ele>
        <time>2022-08-27T07:27:53Z</time>
      </trkpt>
      <trkpt lat="44.85605" lon="5.53579">
        <ele>1394</ele>
        <time>2022-08-27T07:28:05Z</time>
      </trkpt>
      <trkpt lat="44.8561" lon="5.53576">
        <ele>1394</ele>
        <time>2022-08-27T07:28:10Z</time>
      </trkpt>
      <trkpt lat="44.85612" lon="5.53564">
        <ele>1394</ele>
        <time>2022-08-27T07:28:14Z</time>
      </trkpt>
      <trkpt lat="44.85617" lon="5.53557">
        <ele>1395</ele>
        <time>2022-08-27T07:28:18Z</time>
      </trkpt>
      <trkpt lat="44.85618" lon="5.53548">
        <ele>1395</ele>
        <time>2022-08-27T07:28:22Z</time>
      </trkpt>
      <trkpt lat="44.85622" lon="5.53537">
        <ele>1395</ele>
        <time>2022-08-27T07:28:27Z</time>
      </trkpt>
      <trkpt lat="44.85621" lon="5.5353">
        <ele>1396</ele>
        <time>2022-08-27T07:28:32Z</time>
      </trkpt>
      <trkpt lat="44.85629" lon="5.5352">
        <ele>1397</ele>
        <time>2022-08-27T07:28:45Z</time>
      </trkpt>
      <trkpt lat="44.85627" lon="5.53512">
        <ele>1397</ele>
        <time>2022-08-27T07:28:51Z</time>
      </trkpt>
      <trkpt lat="44.85637" lon="5.53493">
        <ele>1399</ele>
        <time>2022-08-27T07:29:04Z</time>
      </trkpt>
      <trkpt lat="44.85636" lon="5.53484">
        <ele>1399</ele>
        <time>2022-08-27T07:29:09Z</time>
      </trkpt>
      <trkpt lat="44.85639" lon="5.53477">
        <ele>1400</ele>
        <time>2022-08-27T07:29:15Z</time>
      </trkpt>
      <trkpt lat="44.85638" lon="5.53466">
        <ele>1400</ele>
        <time>2022-08-27T07:29:21Z</time>
      </trkpt>
      <trkpt lat="44.85639" lon="5.53457">
        <ele>1401</ele>
        <time>2022-08-27T07:29:27Z</time>
      </trkpt>
      <trkpt lat="44.85642" lon="5.5345">
        <ele>1401</ele>
        <time>2022-08-27T07:29:31Z</time>
      </trkpt>
      <trkpt lat="44.85642" lon="5.53433">
        <ele>1401</ele>
        <time>2022-08-27T07:29:43Z</time>
      </trkpt>
      <trkpt lat="44.85648" lon="5.53431">
        <ele>1401</ele>
        <time>2022-08-27T07:29:47Z</time>
      </trkpt>
      <trkpt lat="44.8565" lon="5.53415">
        <ele>1399</ele>
        <time>2022-08-27T07:30:00Z</time>
      </trkpt>
      <trkpt lat="44.85656" lon="5.5342">
        <ele>1401</ele>
        <time>2022-08-27T07:30:26Z</time>
      </trkpt>
      <trkpt lat="44.85659" lon="5.53425">
        <ele>1400</ele>
        <time>2022-08-27T07:30:31Z</time>
      </trkpt>
      <trkpt lat="44.8566" lon="5.53432">
        <ele>1400</ele>
        <time>2022-08-27T07:30:37Z</time>
      </trkpt>
      <trkpt lat="44.85662" lon="5.5344">
        <ele>1401</ele>
        <time>2022-08-27T07:30:43Z</time>
      </trkpt>
      <trkpt lat="44.85667" lon="5.53442">
        <ele>1401</ele>
        <time>2022-08-27T07:30:48Z</time>
      </trkpt>
      <trkpt lat="44.85673" lon="5.53441">
        <ele>1401</ele>
        <time>2022-08-27T07:30:51Z</time>
      </trkpt>
      <trkpt lat="44.85679" lon="5.53453">
        <ele>1401</ele>
        <time>2022-08-27T07:30:59Z</time>
      </trkpt>
      <trkpt lat="44.85684" lon="5.53456">
        <ele>1401</ele>
        <time>2022-08-27T07:31:03Z</time>
      </trkpt>
      <trkpt lat="44.85691" lon="5.5347">
        <ele>1402</ele>
        <time>2022-08-27T07:31:16Z</time>
      </trkpt>
      <trkpt lat="44.85694" lon="5.53475">
        <ele>1403</ele>
        <time>2022-08-27T07:31:21Z</time>
      </trkpt>
      <trkpt lat="44.85699" lon="5.53486">
        <ele>1403</ele>
        <time>2022-08-27T07:31:29Z</time>
      </trkpt>
      <trkpt lat="44.85701" lon="5.53494">
        <ele>1403</ele>
        <time>2022-08-27T07:31:33Z</time>
      </trkpt>
      <trkpt lat="44.85701" lon="5.53501">
        <ele>1403</ele>
        <time>2022-08-27T07:31:37Z</time>
      </trkpt>
      <trkpt lat="44.85704" lon="5.53506">
        <ele>1403</ele>
        <time>2022-08-27T07:31:40Z</time>
      </trkpt>
      <trkpt lat="44.85709" lon="5.53508">
        <ele>1404</ele>
        <time>2022-08-27T07:31:44Z</time>
      </trkpt>
      <trkpt lat="44.85708" lon="5.53517">
        <ele>1404</ele>
        <time>2022-08-27T07:31:48Z</time>
      </trkpt>
      <trkpt lat="44.8571" lon="5.53522">
        <ele>1404</ele>
        <time>2022-08-27T07:31:52Z</time>
      </trkpt>
      <trkpt lat="44.85712" lon="5.53528">
        <ele>1404</ele>
        <time>2022-08-27T07:31:57Z</time>
      </trkpt>
      <trkpt lat="44.85712" lon="5.53538">
        <ele>1404</ele>
        <time>2022-08-27T07:32:04Z</time>
      </trkpt>
      <trkpt lat="44.85713" lon="5.53543">
        <ele>1404</ele>
        <time>2022-08-27T07:32:08Z</time>
      </trkpt>
      <trkpt lat="44.85712" lon="5.53556">
        <ele>1404</ele>
        <time>2022-08-27T07:32:15Z</time>
      </trkpt>
      <trkpt lat="44.85716" lon="5.53582">
        <ele>1404</ele>
        <time>2022-08-27T07:32:33Z</time>
      </trkpt>
      <trkpt lat="44.85724" lon="5.53597">
        <ele>1403</ele>
        <time>2022-08-27T07:32:43Z</time>
      </trkpt>
      <trkpt lat="44.85726" lon="5.53605">
        <ele>1403</ele>
        <time>2022-08-27T07:32:48Z</time>
      </trkpt>
      <trkpt lat="44.85747" lon="5.53628">
        <ele>1402</ele>
        <time>2022-08-27T07:33:07Z</time>
      </trkpt>
      <trkpt lat="44.85749" lon="5.53634">
        <ele>1402</ele>
        <time>2022-08-27T07:33:10Z</time>
      </trkpt>
      <trkpt lat="44.85756" lon="5.5364">
        <ele>1402</ele>
        <time>2022-08-27T07:33:17Z</time>
      </trkpt>
      <trkpt lat="44.8576" lon="5.53646">
        <ele>1402</ele>
        <time>2022-08-27T07:33:22Z</time>
      </trkpt>
      <trkpt lat="44.85761" lon="5.53654">
        <ele>1402</ele>
        <time>2022-08-27T07:33:26Z</time>
      </trkpt>
      <trkpt lat="44.85767" lon="5.53656">
        <ele>1402</ele>
        <time>2022-08-27T07:33:35Z</time>
      </trkpt>
      <trkpt lat="44.8577" lon="5.53653">
        <ele>1402</ele>
        <time>2022-08-27T07:33:38Z</time>
      </trkpt>
      <trkpt lat="44.85774" lon="5.53655">
        <ele>1402</ele>
        <time>2022-08-27T07:33:51Z</time>
      </trkpt>
      <trkpt lat="44.85771" lon="5.53652">
        <ele>1402</ele>
        <time>2022-08-27T07:34:42Z</time>
      </trkpt>
      <trkpt lat="44.85772" lon="5.53642">
        <ele>1404</ele>
        <time>2022-08-27T07:34:53Z</time>
      </trkpt>
      <trkpt lat="44.85773" lon="5.53635">
        <ele>1404</ele>
        <time>2022-08-27T07:34:58Z</time>
      </trkpt>
      <trkpt lat="44.85774" lon="5.53626">
        <ele>1406</ele>
        <time>2022-08-27T07:35:06Z</time>
      </trkpt>
      <trkpt lat="44.85775" lon="5.5362">
        <ele>1406</ele>
        <time>2022-08-27T07:35:11Z</time>
      </trkpt>
      <trkpt lat="44.85779" lon="5.53616">
        <ele>1407</ele>
        <time>2022-08-27T07:35:15Z</time>
      </trkpt>
      <trkpt lat="44.85779" lon="5.53608">
        <ele>1408</ele>
        <time>2022-08-27T07:35:23Z</time>
      </trkpt>
      <trkpt lat="44.85777" lon="5.53594">
        <ele>1410</ele>
        <time>2022-08-27T07:35:35Z</time>
      </trkpt>
      <trkpt lat="44.85782" lon="5.53569">
        <ele>1415</ele>
        <time>2022-08-27T07:36:00Z</time>
      </trkpt>
      <trkpt lat="44.85781" lon="5.53559">
        <ele>1416</ele>
        <time>2022-08-27T07:36:10Z</time>
      </trkpt>
      <trkpt lat="44.85776" lon="5.53538">
        <ele>1420</ele>
        <time>2022-08-27T07:36:32Z</time>
      </trkpt>
      <trkpt lat="44.85774" lon="5.5353">
        <ele>1423</ele>
        <time>2022-08-27T07:36:44Z</time>
      </trkpt>
      <trkpt lat="44.8577" lon="5.53523">
        <ele>1424</ele>
        <time>2022-08-27T07:36:52Z</time>
      </trkpt>
      <trkpt lat="44.85771" lon="5.53516">
        <ele>1426</ele>
        <time>2022-08-27T07:37:04Z</time>
      </trkpt>
      <trkpt lat="44.85768" lon="5.5351">
        <ele>1427</ele>
        <time>2022-08-27T07:37:09Z</time>
      </trkpt>
      <trkpt lat="44.85767" lon="5.53499">
        <ele>1429</ele>
        <time>2022-08-27T07:37:18Z</time>
      </trkpt>
      <trkpt lat="44.85765" lon="5.53494">
        <ele>1430</ele>
        <time>2022-08-27T07:37:23Z</time>
      </trkpt>
      <trkpt lat="44.85768" lon="5.53489">
        <ele>1431</ele>
        <time>2022-08-27T07:37:29Z</time>
      </trkpt>
      <trkpt lat="44.85765" lon="5.5348">
        <ele>1432</ele>
        <time>2022-08-27T07:37:39Z</time>
      </trkpt>
      <trkpt lat="44.85764" lon="5.53474">
        <ele>1433</ele>
        <time>2022-08-27T07:37:45Z</time>
      </trkpt>
      <trkpt lat="44.85759" lon="5.53469">
        <ele>1433</ele>
        <time>2022-08-27T07:37:49Z</time>
      </trkpt>
      <trkpt lat="44.8576" lon="5.53462">
        <ele>1434</ele>
        <time>2022-08-27T07:37:54Z</time>
      </trkpt>
      <trkpt lat="44.85758" lon="5.53456">
        <ele>1435</ele>
        <time>2022-08-27T07:37:58Z</time>
      </trkpt>
      <trkpt lat="44.85758" lon="5.53449">
        <ele>1435</ele>
        <time>2022-08-27T07:38:05Z</time>
      </trkpt>
      <trkpt lat="44.85753" lon="5.53443">
        <ele>1436</ele>
        <time>2022-08-27T07:38:09Z</time>
      </trkpt>
      <trkpt lat="44.85756" lon="5.53423">
        <ele>1438</ele>
        <time>2022-08-27T07:38:27Z</time>
      </trkpt>
      <trkpt lat="44.85749" lon="5.53415">
        <ele>1439</ele>
        <time>2022-08-27T07:38:34Z</time>
      </trkpt>
      <trkpt lat="44.8575" lon="5.53407">
        <ele>1441</ele>
        <time>2022-08-27T07:38:42Z</time>
      </trkpt>
      <trkpt lat="44.85747" lon="5.53401">
        <ele>1441</ele>
        <time>2022-08-27T07:38:47Z</time>
      </trkpt>
      <trkpt lat="44.85733" lon="5.5339">
        <ele>1443</ele>
        <time>2022-08-27T07:38:57Z</time>
      </trkpt>
      <trkpt lat="44.85728" lon="5.53384">
        <ele>1444</ele>
        <time>2022-08-27T07:39:01Z</time>
      </trkpt>
      <trkpt lat="44.85724" lon="5.53384">
        <ele>1444</ele>
        <time>2022-08-27T07:39:05Z</time>
      </trkpt>
      <trkpt lat="44.85721" lon="5.5338">
        <ele>1445</ele>
        <time>2022-08-27T07:39:10Z</time>
      </trkpt>
      <trkpt lat="44.85718" lon="5.53374">
        <ele>1445</ele>
        <time>2022-08-27T07:39:15Z</time>
      </trkpt>
      <trkpt lat="44.85714" lon="5.53372">
        <ele>1445</ele>
        <time>2022-08-27T07:39:19Z</time>
      </trkpt>
      <trkpt lat="44.85711" lon="5.53364">
        <ele>1446</ele>
        <time>2022-08-27T07:39:26Z</time>
      </trkpt>
      <trkpt lat="44.85709" lon="5.53354">
        <ele>1448</ele>
        <time>2022-08-27T07:39:38Z</time>
      </trkpt>
      <trkpt lat="44.85697" lon="5.53332">
        <ele>1452</ele>
        <time>2022-08-27T07:39:59Z</time>
      </trkpt>
      <trkpt lat="44.85693" lon="5.53327">
        <ele>1452</ele>
        <time>2022-08-27T07:40:04Z</time>
      </trkpt>
      <trkpt lat="44.85691" lon="5.53322">
        <ele>1452</ele>
        <time>2022-08-27T07:40:07Z</time>
      </trkpt>
      <trkpt lat="44.85691" lon="5.53315">
        <ele>1453</ele>
        <time>2022-08-27T07:40:10Z</time>
      </trkpt>
      <trkpt lat="44.85689" lon="5.53309">
        <ele>1453</ele>
        <time>2022-08-27T07:40:14Z</time>
      </trkpt>
      <trkpt lat="44.85684" lon="5.53307">
        <ele>1453</ele>
        <time>2022-08-27T07:40:17Z</time>
      </trkpt>
      <trkpt lat="44.85673" lon="5.53298">
        <ele>1457</ele>
        <time>2022-08-27T07:40:37Z</time>
      </trkpt>
      <trkpt lat="44.85669" lon="5.53298">
        <ele>1457</ele>
        <time>2022-08-27T07:40:42Z</time>
      </trkpt>
      <trkpt lat="44.85664" lon="5.53286">
        <ele>1460</ele>
        <time>2022-08-27T07:40:55Z</time>
      </trkpt>
      <trkpt lat="44.85653" lon="5.53283">
        <ele>1461</ele>
        <time>2022-08-27T07:41:03Z</time>
      </trkpt>
      <trkpt lat="44.85651" lon="5.53279">
        <ele>1462</ele>
        <time>2022-08-27T07:41:07Z</time>
      </trkpt>
      <trkpt lat="44.85647" lon="5.53276">
        <ele>1464</ele>
        <time>2022-08-27T07:41:19Z</time>
      </trkpt>
      <trkpt lat="44.85644" lon="5.53268">
        <ele>1466</ele>
        <time>2022-08-27T07:41:29Z</time>
      </trkpt>
      <trkpt lat="44.85629" lon="5.53233">
        <ele>1469</ele>
        <time>2022-08-27T07:41:54Z</time>
      </trkpt>
      <trkpt lat="44.8563" lon="5.53216">
        <ele>1471</ele>
        <time>2022-08-27T07:42:11Z</time>
      </trkpt>
      <trkpt lat="44.85634" lon="5.53202">
        <ele>1473</ele>
        <time>2022-08-27T07:42:26Z</time>
      </trkpt>
      <trkpt lat="44.85618" lon="5.53185">
        <ele>1477</ele>
        <time>2022-08-27T07:42:52Z</time>
      </trkpt>
      <trkpt lat="44.85613" lon="5.53163">
        <ele>1480</ele>
        <time>2022-08-27T07:43:13Z</time>
      </trkpt>
      <trkpt lat="44.85608" lon="5.5315">
        <ele>1481</ele>
        <time>2022-08-27T07:43:21Z</time>
      </trkpt>
      <trkpt lat="44.85595" lon="5.53148">
        <ele>1482</ele>
        <time>2022-08-27T07:43:30Z</time>
      </trkpt>
      <trkpt lat="44.85585" lon="5.53148">
        <ele>1483</ele>
        <time>2022-08-27T07:43:38Z</time>
      </trkpt>
      <trkpt lat="44.85592" lon="5.53134">
        <ele>1486</ele>
        <time>2022-08-27T07:43:54Z</time>
      </trkpt>
      <trkpt lat="44.8558" lon="5.5312">
        <ele>1489</ele>
        <time>2022-08-27T07:44:15Z</time>
      </trkpt>
      <trkpt lat="44.85573" lon="5.53112">
        <ele>1491</ele>
        <time>2022-08-27T07:44:34Z</time>
      </trkpt>
      <trkpt lat="44.85562" lon="5.53097">
        <ele>1493</ele>
        <time>2022-08-27T07:44:48Z</time>
      </trkpt>
      <trkpt lat="44.85531" lon="5.53068">
        <ele>1501</ele>
        <time>2022-08-27T07:45:42Z</time>
      </trkpt>
      <trkpt lat="44.85527" lon="5.53052">
        <ele>1505</ele>
        <time>2022-08-27T07:46:09Z</time>
      </trkpt>
      <trkpt lat="44.85517" lon="5.5305">
        <ele>1507</ele>
        <time>2022-08-27T07:46:17Z</time>
      </trkpt>
      <trkpt lat="44.85528" lon="5.5303">
        <ele>1511</ele>
        <time>2022-08-27T07:46:44Z</time>
      </trkpt>
      <trkpt lat="44.85522" lon="5.53013">
        <ele>1513</ele>
        <time>2022-08-27T07:46:56Z</time>
      </trkpt>
      <trkpt lat="44.85528" lon="5.53016">
        <ele>1517</ele>
        <time>2022-08-27T07:47:25Z</time>
      </trkpt>
      <trkpt lat="44.85527" lon="5.53001">
        <ele>1521</ele>
        <time>2022-08-27T07:47:48Z</time>
      </trkpt>
      <trkpt lat="44.8553" lon="5.52991">
        <ele>1522</ele>
        <time>2022-08-27T07:47:56Z</time>
      </trkpt>
      <trkpt lat="44.85533" lon="5.5298">
        <ele>1524</ele>
        <time>2022-08-27T07:48:08Z</time>
      </trkpt>
      <trkpt lat="44.85523" lon="5.52978">
        <ele>1525</ele>
        <time>2022-08-27T07:48:16Z</time>
      </trkpt>
      <trkpt lat="44.85519" lon="5.52967">
        <ele>1526</ele>
        <time>2022-08-27T07:48:29Z</time>
      </trkpt>
      <trkpt lat="44.85511" lon="5.5296">
        <ele>1528</ele>
        <time>2022-08-27T07:48:39Z</time>
      </trkpt>
      <trkpt lat="44.85498" lon="5.52941">
        <ele>1532</ele>
        <time>2022-08-27T07:49:09Z</time>
      </trkpt>
      <trkpt lat="44.8549" lon="5.52937">
        <ele>1534</ele>
        <time>2022-08-27T07:49:20Z</time>
      </trkpt>
      <trkpt lat="44.85494" lon="5.5292">
        <ele>1535</ele>
        <time>2022-08-27T07:49:34Z</time>
      </trkpt>
      <trkpt lat="44.85493" lon="5.52911">
        <ele>1537</ele>
        <time>2022-08-27T07:49:49Z</time>
      </trkpt>
      <trkpt lat="44.85489" lon="5.529">
        <ele>1539</ele>
        <time>2022-08-27T07:50:02Z</time>
      </trkpt>
      <trkpt lat="44.85485" lon="5.52891">
        <ele>1541</ele>
        <time>2022-08-27T07:50:14Z</time>
      </trkpt>
      <trkpt lat="44.85484" lon="5.52879">
        <ele>1543</ele>
        <time>2022-08-27T07:50:30Z</time>
      </trkpt>
      <trkpt lat="44.85481" lon="5.52873">
        <ele>1546</ele>
        <time>2022-08-27T07:50:45Z</time>
      </trkpt>
      <trkpt lat="44.8548" lon="5.52862">
        <ele>1548</ele>
        <time>2022-08-27T07:51:03Z</time>
      </trkpt>
      <trkpt lat="44.85473" lon="5.52857">
        <ele>1550</ele>
        <time>2022-08-27T07:51:14Z</time>
      </trkpt>
      <trkpt lat="44.85469" lon="5.52849">
        <ele>1553</ele>
        <time>2022-08-27T07:51:31Z</time>
      </trkpt>
      <trkpt lat="44.85461" lon="5.52851">
        <ele>1554</ele>
        <time>2022-08-27T07:51:41Z</time>
      </trkpt>
      <trkpt lat="44.85461" lon="5.52844">
        <ele>1555</ele>
        <time>2022-08-27T07:52:04Z</time>
      </trkpt>
      <trkpt lat="44.85467" lon="5.5283">
        <ele>1558</ele>
        <time>2022-08-27T07:52:25Z</time>
      </trkpt>
      <trkpt lat="44.85453" lon="5.52824">
        <ele>1561</ele>
        <time>2022-08-27T07:52:57Z</time>
      </trkpt>
      <trkpt lat="44.85453" lon="5.52815">
        <ele>1563</ele>
        <time>2022-08-27T07:53:09Z</time>
      </trkpt>
      <trkpt lat="44.85444" lon="5.52812">
        <ele>1565</ele>
        <time>2022-08-27T07:53:21Z</time>
      </trkpt>
      <trkpt lat="44.8544" lon="5.52806">
        <ele>1567</ele>
        <time>2022-08-27T07:53:35Z</time>
      </trkpt>
      <trkpt lat="44.85436" lon="5.5279">
        <ele>1573</ele>
        <time>2022-08-27T07:54:07Z</time>
      </trkpt>
      <trkpt lat="44.85432" lon="5.52779">
        <ele>1575</ele>
        <time>2022-08-27T07:54:22Z</time>
      </trkpt>
      <trkpt lat="44.85425" lon="5.52773">
        <ele>1577</ele>
        <time>2022-08-27T07:54:38Z</time>
      </trkpt>
      <trkpt lat="44.85426" lon="5.52762">
        <ele>1580</ele>
        <time>2022-08-27T07:54:57Z</time>
      </trkpt>
      <trkpt lat="44.85411" lon="5.52759">
        <ele>1584</ele>
        <time>2022-08-27T07:55:19Z</time>
      </trkpt>
      <trkpt lat="44.8542" lon="5.52748">
        <ele>1586</ele>
        <time>2022-08-27T07:55:33Z</time>
      </trkpt>
      <trkpt lat="44.85411" lon="5.52747">
        <ele>1586</ele>
        <time>2022-08-27T07:55:39Z</time>
      </trkpt>
      <trkpt lat="44.85404" lon="5.52742">
        <ele>1588</ele>
        <time>2022-08-27T07:55:47Z</time>
      </trkpt>
      <trkpt lat="44.85398" lon="5.52742">
        <ele>1589</ele>
        <time>2022-08-27T07:55:57Z</time>
      </trkpt>
      <trkpt lat="44.85399" lon="5.52731">
        <ele>1593</ele>
        <time>2022-08-27T07:56:22Z</time>
      </trkpt>
      <trkpt lat="44.85392" lon="5.52724">
        <ele>1596</ele>
        <time>2022-08-27T07:56:45Z</time>
      </trkpt>
      <trkpt lat="44.85388" lon="5.52703">
        <ele>1602</ele>
        <time>2022-08-27T07:57:18Z</time>
      </trkpt>
      <trkpt lat="44.8538" lon="5.52705">
        <ele>1603</ele>
        <time>2022-08-27T07:57:23Z</time>
      </trkpt>
      <trkpt lat="44.85386" lon="5.52691">
        <ele>1606</ele>
        <time>2022-08-27T07:57:40Z</time>
      </trkpt>
      <trkpt lat="44.85377" lon="5.52684">
        <ele>1608</ele>
        <time>2022-08-27T07:57:57Z</time>
      </trkpt>
      <trkpt lat="44.85372" lon="5.52678">
        <ele>1611</ele>
        <time>2022-08-27T07:58:14Z</time>
      </trkpt>
      <trkpt lat="44.85367" lon="5.52681">
        <ele>1612</ele>
        <time>2022-08-27T07:58:19Z</time>
      </trkpt>
      <trkpt lat="44.85371" lon="5.52687">
        <ele>1614</ele>
        <time>2022-08-27T07:58:37Z</time>
      </trkpt>
      <trkpt lat="44.85377" lon="5.52678">
        <ele>1615</ele>
        <time>2022-08-27T07:58:49Z</time>
      </trkpt>
      <trkpt lat="44.85375" lon="5.52667">
        <ele>1618</ele>
        <time>2022-08-27T07:59:09Z</time>
      </trkpt>
      <trkpt lat="44.8537" lon="5.52658">
        <ele>1620</ele>
        <time>2022-08-27T07:59:24Z</time>
      </trkpt>
      <trkpt lat="44.85373" lon="5.52648">
        <ele>1623</ele>
        <time>2022-08-27T07:59:40Z</time>
      </trkpt>
      <trkpt lat="44.85364" lon="5.52642">
        <ele>1625</ele>
        <time>2022-08-27T07:59:52Z</time>
      </trkpt>
      <trkpt lat="44.85361" lon="5.5263">
        <ele>1629</ele>
        <time>2022-08-27T08:00:19Z</time>
      </trkpt>
      <trkpt lat="44.85353" lon="5.52619">
        <ele>1631</ele>
        <time>2022-08-27T08:00:34Z</time>
      </trkpt>
      <trkpt lat="44.85344" lon="5.52607">
        <ele>1634</ele>
        <time>2022-08-27T08:00:52Z</time>
      </trkpt>
      <trkpt lat="44.85339" lon="5.52604">
        <ele>1637</ele>
        <time>2022-08-27T08:01:09Z</time>
      </trkpt>
      <trkpt lat="44.8533" lon="5.52606">
        <ele>1637</ele>
        <time>2022-08-27T08:01:15Z</time>
      </trkpt>
      <trkpt lat="44.85321" lon="5.52607">
        <ele>1640</ele>
        <time>2022-08-27T08:01:35Z</time>
      </trkpt>
      <trkpt lat="44.85315" lon="5.52598">
        <ele>1644</ele>
        <time>2022-08-27T08:01:57Z</time>
      </trkpt>
      <trkpt lat="44.85306" lon="5.52601">
        <ele>1644</ele>
        <time>2022-08-27T08:01:59Z</time>
      </trkpt>
      <trkpt lat="44.85303" lon="5.52596">
        <ele>1651</ele>
        <time>2022-08-27T08:02:45Z</time>
      </trkpt>
      <trkpt lat="44.85295" lon="5.52585">
        <ele>1654</ele>
        <time>2022-08-27T08:03:04Z</time>
      </trkpt>
      <trkpt lat="44.85303" lon="5.52579">
        <ele>1655</ele>
        <time>2022-08-27T08:03:16Z</time>
      </trkpt>
      <trkpt lat="44.85293" lon="5.52571">
        <ele>1659</ele>
        <time>2022-08-27T08:03:41Z</time>
      </trkpt>
      <trkpt lat="44.85268" lon="5.52576">
        <ele>1665</ele>
        <time>2022-08-27T08:04:22Z</time>
      </trkpt>
      <trkpt lat="44.85278" lon="5.5257">
        <ele>1666</ele>
        <time>2022-08-27T08:04:29Z</time>
      </trkpt>
      <trkpt lat="44.85273" lon="5.5256">
        <ele>1669</ele>
        <time>2022-08-27T08:04:51Z</time>
      </trkpt>
      <trkpt lat="44.85277" lon="5.52555">
        <ele>1672</ele>
        <time>2022-08-27T08:05:12Z</time>
      </trkpt>
      <trkpt lat="44.85281" lon="5.5255">
        <ele>1673</ele>
        <time>2022-08-27T08:05:23Z</time>
      </trkpt>
      <trkpt lat="44.85284" lon="5.5254">
        <ele>1675</ele>
        <time>2022-08-27T08:05:35Z</time>
      </trkpt>
      <trkpt lat="44.8526" lon="5.5253">
        <ele>1683</ele>
        <time>2022-08-27T08:06:23Z</time>
      </trkpt>
      <trkpt lat="44.85261" lon="5.52529">
        <ele>1685</ele>
        <time>2022-08-27T08:06:43Z</time>
      </trkpt>
      <trkpt lat="44.85258" lon="5.5252">
        <ele>1687</ele>
        <time>2022-08-27T08:07:16Z</time>
      </trkpt>
      <trkpt lat="44.85246" lon="5.52516">
        <ele>1692</ele>
        <time>2022-08-27T08:07:54Z</time>
      </trkpt>
      <trkpt lat="44.85231" lon="5.52509">
        <ele>1696</ele>
        <time>2022-08-27T08:08:21Z</time>
      </trkpt>
      <trkpt lat="44.85233" lon="5.52502">
        <ele>1700</ele>
        <time>2022-08-27T08:08:47Z</time>
      </trkpt>
      <trkpt lat="44.85219" lon="5.52494">
        <ele>1706</ele>
        <time>2022-08-27T08:09:25Z</time>
      </trkpt>
      <trkpt lat="44.85214" lon="5.52485">
        <ele>1709</ele>
        <time>2022-08-27T08:09:46Z</time>
      </trkpt>
      <trkpt lat="44.85212" lon="5.52478">
        <ele>1714</ele>
        <time>2022-08-27T08:10:25Z</time>
      </trkpt>
      <trkpt lat="44.85192" lon="5.52474">
        <ele>1719</ele>
        <time>2022-08-27T08:10:57Z</time>
      </trkpt>
      <trkpt lat="44.85201" lon="5.52472">
        <ele>1723</ele>
        <time>2022-08-27T08:11:21Z</time>
      </trkpt>
      <trkpt lat="44.85201" lon="5.5246">
        <ele>1724</ele>
        <time>2022-08-27T08:11:33Z</time>
      </trkpt>
      <trkpt lat="44.85203" lon="5.52446">
        <ele>1728</ele>
        <time>2022-08-27T08:11:57Z</time>
      </trkpt>
      <trkpt lat="44.85186" lon="5.52451">
        <ele>1730</ele>
        <time>2022-08-27T08:12:08Z</time>
      </trkpt>
      <trkpt lat="44.85178" lon="5.52447">
        <ele>1735</ele>
        <time>2022-08-27T08:12:43Z</time>
      </trkpt>
      <trkpt lat="44.85169" lon="5.52435">
        <ele>1738</ele>
        <time>2022-08-27T08:13:06Z</time>
      </trkpt>
      <trkpt lat="44.85166" lon="5.5242">
        <ele>1744</ele>
        <time>2022-08-27T08:13:43Z</time>
      </trkpt>
      <trkpt lat="44.85145" lon="5.52412">
        <ele>1747</ele>
        <time>2022-08-27T08:14:08Z</time>
      </trkpt>
      <trkpt lat="44.8514" lon="5.52402">
        <ele>1751</ele>
        <time>2022-08-27T08:14:37Z</time>
      </trkpt>
      <trkpt lat="44.85129" lon="5.52404">
        <ele>1753</ele>
        <time>2022-08-27T08:14:55Z</time>
      </trkpt>
      <trkpt lat="44.85124" lon="5.52398">
        <ele>1756</ele>
        <time>2022-08-27T08:15:15Z</time>
      </trkpt>
      <trkpt lat="44.85115" lon="5.524">
        <ele>1756</ele>
        <time>2022-08-27T08:15:22Z</time>
      </trkpt>
      <trkpt lat="44.85106" lon="5.52392">
        <ele>1759</ele>
        <time>2022-08-27T08:15:39Z</time>
      </trkpt>
      <trkpt lat="44.851" lon="5.52386">
        <ele>1761</ele>
        <time>2022-08-27T08:15:55Z</time>
      </trkpt>
      <trkpt lat="44.85086" lon="5.52375">
        <ele>1764</ele>
        <time>2022-08-27T08:16:27Z</time>
      </trkpt>
      <trkpt lat="44.85079" lon="5.52372">
        <ele>1767</ele>
        <time>2022-08-27T08:16:44Z</time>
      </trkpt>
      <trkpt lat="44.85082" lon="5.52362">
        <ele>1769</ele>
        <time>2022-08-27T08:17:04Z</time>
      </trkpt>
      <trkpt lat="44.8508" lon="5.52338">
        <ele>1775</ele>
        <time>2022-08-27T08:17:46Z</time>
      </trkpt>
      <trkpt lat="44.85069" lon="5.52341">
        <ele>1778</ele>
        <time>2022-08-27T08:18:08Z</time>
      </trkpt>
      <trkpt lat="44.85061" lon="5.52333">
        <ele>1782</ele>
        <time>2022-08-27T08:18:40Z</time>
      </trkpt>
      <trkpt lat="44.85059" lon="5.52327">
        <ele>1787</ele>
        <time>2022-08-27T08:19:12Z</time>
      </trkpt>
      <trkpt lat="44.85052" lon="5.52317">
        <ele>1789</ele>
        <time>2022-08-27T08:19:30Z</time>
      </trkpt>
      <trkpt lat="44.85043" lon="5.52321">
        <ele>1790</ele>
        <time>2022-08-27T08:19:34Z</time>
      </trkpt>
      <trkpt lat="44.8504" lon="5.52328">
        <ele>1790</ele>
        <time>2022-08-27T08:19:39Z</time>
      </trkpt>
      <trkpt lat="44.85038" lon="5.52324">
        <ele>1794</ele>
        <time>2022-08-27T08:20:07Z</time>
      </trkpt>
      <trkpt lat="44.85039" lon="5.52316">
        <ele>1796</ele>
        <time>2022-08-27T08:20:22Z</time>
      </trkpt>
      <trkpt lat="44.85031" lon="5.52307">
        <ele>1798</ele>
        <time>2022-08-27T08:20:38Z</time>
      </trkpt>
      <trkpt lat="44.8503" lon="5.52299">
        <ele>1802</ele>
        <time>2022-08-27T08:21:06Z</time>
      </trkpt>
      <trkpt lat="44.85019" lon="5.52301">
        <ele>1804</ele>
        <time>2022-08-27T08:21:25Z</time>
      </trkpt>
      <trkpt lat="44.85009" lon="5.52309">
        <ele>1806</ele>
        <time>2022-08-27T08:21:32Z</time>
      </trkpt>
      <trkpt lat="44.85009" lon="5.52305">
        <ele>1811</ele>
        <time>2022-08-27T08:22:13Z</time>
      </trkpt>
      <trkpt lat="44.85006" lon="5.52298">
        <ele>1812</ele>
        <time>2022-08-27T08:22:22Z</time>
      </trkpt>
      <trkpt lat="44.84999" lon="5.52294">
        <ele>1814</ele>
        <time>2022-08-27T08:22:42Z</time>
      </trkpt>
      <trkpt lat="44.84996" lon="5.52288">
        <ele>1815</ele>
        <time>2022-08-27T08:22:52Z</time>
      </trkpt>
      <trkpt lat="44.84984" lon="5.52282">
        <ele>1817</ele>
        <time>2022-08-27T08:23:08Z</time>
      </trkpt>
      <trkpt lat="44.84978" lon="5.52294">
        <ele>1819</ele>
        <time>2022-08-27T08:23:20Z</time>
      </trkpt>
      <trkpt lat="44.84979" lon="5.52285">
        <ele>1820</ele>
        <time>2022-08-27T08:23:31Z</time>
      </trkpt>
      <trkpt lat="44.84973" lon="5.52283">
        <ele>1824</ele>
        <time>2022-08-27T08:24:04Z</time>
      </trkpt>
      <trkpt lat="44.84969" lon="5.5229">
        <ele>1826</ele>
        <time>2022-08-27T08:24:13Z</time>
      </trkpt>
      <trkpt lat="44.84966" lon="5.523">
        <ele>1828</ele>
        <time>2022-08-27T08:24:26Z</time>
      </trkpt>
      <trkpt lat="44.84964" lon="5.52291">
        <ele>1829</ele>
        <time>2022-08-27T08:24:38Z</time>
      </trkpt>
      <trkpt lat="44.84963" lon="5.52285">
        <ele>1831</ele>
        <time>2022-08-27T08:24:52Z</time>
      </trkpt>
      <trkpt lat="44.84959" lon="5.52279">
        <ele>1833</ele>
        <time>2022-08-27T08:25:07Z</time>
      </trkpt>
      <trkpt lat="44.84953" lon="5.52273">
        <ele>1835</ele>
        <time>2022-08-27T08:25:22Z</time>
      </trkpt>
      <trkpt lat="44.8495" lon="5.52265">
        <ele>1836</ele>
        <time>2022-08-27T08:25:32Z</time>
      </trkpt>
      <trkpt lat="44.84945" lon="5.5226">
        <ele>1838</ele>
        <time>2022-08-27T08:25:42Z</time>
      </trkpt>
      <trkpt lat="44.84941" lon="5.52263">
        <ele>1840</ele>
        <time>2022-08-27T08:25:57Z</time>
      </trkpt>
      <trkpt lat="44.84936" lon="5.52265">
        <ele>1839</ele>
        <time>2022-08-27T08:26:12Z</time>
      </trkpt>
      <trkpt lat="44.84932" lon="5.52261">
        <ele>1838</ele>
        <time>2022-08-27T08:26:17Z</time>
      </trkpt>
      <trkpt lat="44.84928" lon="5.52253">
        <ele>1838</ele>
        <time>2022-08-27T08:26:25Z</time>
      </trkpt>
      <trkpt lat="44.84925" lon="5.52236">
        <ele>1843</ele>
        <time>2022-08-27T08:26:50Z</time>
      </trkpt>
      <trkpt lat="44.84921" lon="5.52225">
        <ele>1845</ele>
        <time>2022-08-27T08:27:02Z</time>
      </trkpt>
      <trkpt lat="44.84916" lon="5.5222">
        <ele>1846</ele>
        <time>2022-08-27T08:27:09Z</time>
      </trkpt>
      <trkpt lat="44.84912" lon="5.52211">
        <ele>1846</ele>
        <time>2022-08-27T08:27:18Z</time>
      </trkpt>
      <trkpt lat="44.84902" lon="5.5221">
        <ele>1848</ele>
        <time>2022-08-27T08:27:30Z</time>
      </trkpt>
      <trkpt lat="44.84897" lon="5.52208">
        <ele>1848</ele>
        <time>2022-08-27T08:27:35Z</time>
      </trkpt>
      <trkpt lat="44.84894" lon="5.52202">
        <ele>1848</ele>
        <time>2022-08-27T08:27:40Z</time>
      </trkpt>
      <trkpt lat="44.84886" lon="5.52189">
        <ele>1850</ele>
        <time>2022-08-27T08:27:54Z</time>
      </trkpt>
      <trkpt lat="44.84882" lon="5.52179">
        <ele>1851</ele>
        <time>2022-08-27T08:28:03Z</time>
      </trkpt>
      <trkpt lat="44.84876" lon="5.52173">
        <ele>1852</ele>
        <time>2022-08-27T08:28:13Z</time>
      </trkpt>
      <trkpt lat="44.8487" lon="5.52172">
        <ele>1853</ele>
        <time>2022-08-27T08:28:18Z</time>
      </trkpt>
      <trkpt lat="44.84859" lon="5.52156">
        <ele>1855</ele>
        <time>2022-08-27T08:28:36Z</time>
      </trkpt>
      <trkpt lat="44.84844" lon="5.52147">
        <ele>1857</ele>
        <time>2022-08-27T08:28:53Z</time>
      </trkpt>
      <trkpt lat="44.84837" lon="5.52135">
        <ele>1858</ele>
        <time>2022-08-27T08:29:03Z</time>
      </trkpt>
      <trkpt lat="44.84833" lon="5.52121">
        <ele>1859</ele>
        <time>2022-08-27T08:29:13Z</time>
      </trkpt>
      <trkpt lat="44.84826" lon="5.52112">
        <ele>1860</ele>
        <time>2022-08-27T08:29:23Z</time>
      </trkpt>
      <trkpt lat="44.84824" lon="5.52104">
        <ele>1861</ele>
        <time>2022-08-27T08:29:28Z</time>
      </trkpt>
      <trkpt lat="44.84818" lon="5.52093">
        <ele>1862</ele>
        <time>2022-08-27T08:29:42Z</time>
      </trkpt>
      <trkpt lat="44.84814" lon="5.52087">
        <ele>1864</ele>
        <time>2022-08-27T08:29:50Z</time>
      </trkpt>
      <trkpt lat="44.84805" lon="5.5208">
        <ele>1865</ele>
        <time>2022-08-27T08:30:01Z</time>
      </trkpt>
      <trkpt lat="44.84805" lon="5.5207">
        <ele>1865</ele>
        <time>2022-08-27T08:30:08Z</time>
      </trkpt>
      <trkpt lat="44.84799" lon="5.52067">
        <ele>1866</ele>
        <time>2022-08-27T08:30:14Z</time>
      </trkpt>
      <trkpt lat="44.84794" lon="5.52066">
        <ele>1867</ele>
        <time>2022-08-27T08:30:19Z</time>
      </trkpt>
      <trkpt lat="44.84777" lon="5.52054">
        <ele>1869</ele>
        <time>2022-08-27T08:30:39Z</time>
      </trkpt>
      <trkpt lat="44.84777" lon="5.52043">
        <ele>1869</ele>
        <time>2022-08-27T08:30:45Z</time>
      </trkpt>
      <trkpt lat="44.84769" lon="5.52039">
        <ele>1870</ele>
        <time>2022-08-27T08:30:55Z</time>
      </trkpt>
      <trkpt lat="44.84764" lon="5.52032">
        <ele>1871</ele>
        <time>2022-08-27T08:31:00Z</time>
      </trkpt>
      <trkpt lat="44.84759" lon="5.52022">
        <ele>1872</ele>
        <time>2022-08-27T08:31:12Z</time>
      </trkpt>
      <trkpt lat="44.84754" lon="5.52019">
        <ele>1873</ele>
        <time>2022-08-27T08:31:18Z</time>
      </trkpt>
      <trkpt lat="44.84747" lon="5.52004">
        <ele>1874</ele>
        <time>2022-08-27T08:31:30Z</time>
      </trkpt>
      <trkpt lat="44.84736" lon="5.51986">
        <ele>1877</ele>
        <time>2022-08-27T08:31:51Z</time>
      </trkpt>
      <trkpt lat="44.84731" lon="5.51984">
        <ele>1878</ele>
        <time>2022-08-27T08:31:56Z</time>
      </trkpt>
      <trkpt lat="44.84729" lon="5.51975">
        <ele>1879</ele>
        <time>2022-08-27T08:32:04Z</time>
      </trkpt>
      <trkpt lat="44.84725" lon="5.51971">
        <ele>1880</ele>
        <time>2022-08-27T08:32:11Z</time>
      </trkpt>
      <trkpt lat="44.84723" lon="5.51962">
        <ele>1882</ele>
        <time>2022-08-27T08:32:21Z</time>
      </trkpt>
      <trkpt lat="44.84708" lon="5.51944">
        <ele>1885</ele>
        <time>2022-08-27T08:32:43Z</time>
      </trkpt>
      <trkpt lat="44.84704" lon="5.51939">
        <ele>1885</ele>
        <time>2022-08-27T08:32:47Z</time>
      </trkpt>
      <trkpt lat="44.84702" lon="5.51933">
        <ele>1885</ele>
        <time>2022-08-27T08:32:51Z</time>
      </trkpt>
      <trkpt lat="44.84687" lon="5.51924">
        <ele>1886</ele>
        <time>2022-08-27T08:33:07Z</time>
      </trkpt>
      <trkpt lat="44.84684" lon="5.51918">
        <ele>1886</ele>
        <time>2022-08-27T08:33:11Z</time>
      </trkpt>
      <trkpt lat="44.84676" lon="5.51913">
        <ele>1887</ele>
        <time>2022-08-27T08:33:19Z</time>
      </trkpt>
      <trkpt lat="44.84671" lon="5.51911">
        <ele>1888</ele>
        <time>2022-08-27T08:33:25Z</time>
      </trkpt>
      <trkpt lat="44.8466" lon="5.51895">
        <ele>1890</ele>
        <time>2022-08-27T08:33:43Z</time>
      </trkpt>
      <trkpt lat="44.84656" lon="5.51887">
        <ele>1891</ele>
        <time>2022-08-27T08:33:50Z</time>
      </trkpt>
      <trkpt lat="44.84649" lon="5.51882">
        <ele>1892</ele>
        <time>2022-08-27T08:33:58Z</time>
      </trkpt>
      <trkpt lat="44.84644" lon="5.5188">
        <ele>1892</ele>
        <time>2022-08-27T08:34:02Z</time>
      </trkpt>
      <trkpt lat="44.8464" lon="5.51875">
        <ele>1892</ele>
        <time>2022-08-27T08:34:09Z</time>
      </trkpt>
      <trkpt lat="44.84639" lon="5.51867">
        <ele>1893</ele>
        <time>2022-08-27T08:34:16Z</time>
      </trkpt>
      <trkpt lat="44.8464" lon="5.51856">
        <ele>1894</ele>
        <time>2022-08-27T08:34:26Z</time>
      </trkpt>
      <trkpt lat="44.84639" lon="5.5185">
        <ele>1895</ele>
        <time>2022-08-27T08:34:31Z</time>
      </trkpt>
      <trkpt lat="44.84637" lon="5.51843">
        <ele>1896</ele>
        <time>2022-08-27T08:34:39Z</time>
      </trkpt>
      <trkpt lat="44.84634" lon="5.51838">
        <ele>1897</ele>
        <time>2022-08-27T08:34:45Z</time>
      </trkpt>
      <trkpt lat="44.84622" lon="5.51827">
        <ele>1901</ele>
        <time>2022-08-27T08:38:43Z</time>
      </trkpt>
      <trkpt lat="44.84606" lon="5.5181">
        <ele>1904</ele>
        <time>2022-08-27T08:39:06Z</time>
      </trkpt>
      <trkpt lat="44.84606" lon="5.51803">
        <ele>1903</ele>
        <time>2022-08-27T08:39:10Z</time>
      </trkpt>
      <trkpt lat="44.84607" lon="5.51794">
        <ele>1905</ele>
        <time>2022-08-27T08:39:19Z</time>
      </trkpt>
      <trkpt lat="44.84612" lon="5.51798">
        <ele>1905</ele>
        <time>2022-08-27T08:39:23Z</time>
      </trkpt>
      <trkpt lat="44.84616" lon="5.51799">
        <ele>1905</ele>
        <time>2022-08-27T08:39:28Z</time>
      </trkpt>
      <trkpt lat="44.84629" lon="5.51805">
        <ele>1908</ele>
        <time>2022-08-27T08:39:42Z</time>
      </trkpt>
      <trkpt lat="44.84633" lon="5.51811">
        <ele>1909</ele>
        <time>2022-08-27T08:39:48Z</time>
      </trkpt>
      <trkpt lat="44.84637" lon="5.51812">
        <ele>1909</ele>
        <time>2022-08-27T08:39:52Z</time>
      </trkpt>
      <trkpt lat="44.84643" lon="5.51817">
        <ele>1910</ele>
        <time>2022-08-27T08:40:00Z</time>
      </trkpt>
      <trkpt lat="44.84651" lon="5.51819">
        <ele>1912</ele>
        <time>2022-08-27T08:40:10Z</time>
      </trkpt>
      <trkpt lat="44.84654" lon="5.51823">
        <ele>1912</ele>
        <time>2022-08-27T08:40:14Z</time>
      </trkpt>
      <trkpt lat="44.84662" lon="5.51826">
        <ele>1913</ele>
        <time>2022-08-27T08:40:25Z</time>
      </trkpt>
      <trkpt lat="44.84673" lon="5.51825">
        <ele>1914</ele>
        <time>2022-08-27T08:40:36Z</time>
      </trkpt>
      <trkpt lat="44.84677" lon="5.51825">
        <ele>1914</ele>
        <time>2022-08-27T08:40:41Z</time>
      </trkpt>
      <trkpt lat="44.84681" lon="5.51828">
        <ele>1915</ele>
        <time>2022-08-27T08:40:45Z</time>
      </trkpt>
      <trkpt lat="44.84685" lon="5.5183">
        <ele>1915</ele>
        <time>2022-08-27T08:40:49Z</time>
      </trkpt>
      <trkpt lat="44.84689" lon="5.51831">
        <ele>1916</ele>
        <time>2022-08-27T08:40:53Z</time>
      </trkpt>
      <trkpt lat="44.84694" lon="5.51833">
        <ele>1916</ele>
        <time>2022-08-27T08:40:57Z</time>
      </trkpt>
      <trkpt lat="44.84698" lon="5.51837">
        <ele>1916</ele>
        <time>2022-08-27T08:41:01Z</time>
      </trkpt>
      <trkpt lat="44.84703" lon="5.51835">
        <ele>1917</ele>
        <time>2022-08-27T08:41:05Z</time>
      </trkpt>
      <trkpt lat="44.84707" lon="5.51832">
        <ele>1917</ele>
        <time>2022-08-27T08:41:10Z</time>
      </trkpt>
      <trkpt lat="44.84712" lon="5.51832">
        <ele>1917</ele>
        <time>2022-08-27T08:41:15Z</time>
      </trkpt>
      <trkpt lat="44.84715" lon="5.51835">
        <ele>1918</ele>
        <time>2022-08-27T08:41:19Z</time>
      </trkpt>
      <trkpt lat="44.8472" lon="5.51839">
        <ele>1919</ele>
        <time>2022-08-27T08:41:23Z</time>
      </trkpt>
      <trkpt lat="44.84724" lon="5.5184">
        <ele>1919</ele>
        <time>2022-08-27T08:41:28Z</time>
      </trkpt>
      <trkpt lat="44.84742" lon="5.51852">
        <ele>1920</ele>
        <time>2022-08-27T08:41:48Z</time>
      </trkpt>
      <trkpt lat="44.84767" lon="5.51874">
        <ele>1925</ele>
        <time>2022-08-27T08:42:19Z</time>
      </trkpt>
      <trkpt lat="44.84773" lon="5.51881">
        <ele>1925</ele>
        <time>2022-08-27T08:42:26Z</time>
      </trkpt>
      <trkpt lat="44.84776" lon="5.51885">
        <ele>1925</ele>
        <time>2022-08-27T08:42:30Z</time>
      </trkpt>
      <trkpt lat="44.84787" lon="5.51898">
        <ele>1925</ele>
        <time>2022-08-27T08:42:42Z</time>
      </trkpt>
      <trkpt lat="44.84792" lon="5.51902">
        <ele>1925</ele>
        <time>2022-08-27T08:42:46Z</time>
      </trkpt>
      <trkpt lat="44.848" lon="5.51913">
        <ele>1926</ele>
        <time>2022-08-27T08:42:57Z</time>
      </trkpt>
      <trkpt lat="44.84804" lon="5.51916">
        <ele>1926</ele>
        <time>2022-08-27T08:43:02Z</time>
      </trkpt>
      <trkpt lat="44.84809" lon="5.51916">
        <ele>1927</ele>
        <time>2022-08-27T08:43:07Z</time>
      </trkpt>
      <trkpt lat="44.84812" lon="5.51921">
        <ele>1927</ele>
        <time>2022-08-27T08:43:11Z</time>
      </trkpt>
      <trkpt lat="44.84815" lon="5.51924">
        <ele>1928</ele>
        <time>2022-08-27T08:43:15Z</time>
      </trkpt>
      <trkpt lat="44.8482" lon="5.51928">
        <ele>1928</ele>
        <time>2022-08-27T08:43:20Z</time>
      </trkpt>
      <trkpt lat="44.84828" lon="5.51931">
        <ele>1929</ele>
        <time>2022-08-27T08:44:16Z</time>
      </trkpt>
      <trkpt lat="44.84858" lon="5.51964">
        <ele>1931</ele>
        <time>2022-08-27T08:44:49Z</time>
      </trkpt>
      <trkpt lat="44.84861" lon="5.51968">
        <ele>1932</ele>
        <time>2022-08-27T08:44:53Z</time>
      </trkpt>
      <trkpt lat="44.84875" lon="5.51981">
        <ele>1932</ele>
        <time>2022-08-27T08:45:07Z</time>
      </trkpt>
      <trkpt lat="44.84879" lon="5.51985">
        <ele>1933</ele>
        <time>2022-08-27T08:45:11Z</time>
      </trkpt>
      <trkpt lat="44.84892" lon="5.51997">
        <ele>1931</ele>
        <time>2022-08-27T08:45:23Z</time>
      </trkpt>
      <trkpt lat="44.84903" lon="5.52009">
        <ele>1932</ele>
        <time>2022-08-27T08:45:35Z</time>
      </trkpt>
      <trkpt lat="44.84908" lon="5.52012">
        <ele>1932</ele>
        <time>2022-08-27T08:45:39Z</time>
      </trkpt>
      <trkpt lat="44.84914" lon="5.52013">
        <ele>1932</ele>
        <time>2022-08-27T08:45:43Z</time>
      </trkpt>
      <trkpt lat="44.84917" lon="5.52016">
        <ele>1932</ele>
        <time>2022-08-27T08:45:47Z</time>
      </trkpt>
      <trkpt lat="44.84921" lon="5.52021">
        <ele>1932</ele>
        <time>2022-08-27T08:45:51Z</time>
      </trkpt>
      <trkpt lat="44.8493" lon="5.52027">
        <ele>1933</ele>
        <time>2022-08-27T08:45:59Z</time>
      </trkpt>
      <trkpt lat="44.84944" lon="5.52034">
        <ele>1934</ele>
        <time>2022-08-27T08:46:11Z</time>
      </trkpt>
      <trkpt lat="44.84949" lon="5.52037">
        <ele>1934</ele>
        <time>2022-08-27T08:46:15Z</time>
      </trkpt>
      <trkpt lat="44.84953" lon="5.52038">
        <ele>1934</ele>
        <time>2022-08-27T08:46:19Z</time>
      </trkpt>
      <trkpt lat="44.84958" lon="5.52043">
        <ele>1934</ele>
        <time>2022-08-27T08:46:24Z</time>
      </trkpt>
      <trkpt lat="44.84965" lon="5.52051">
        <ele>1933</ele>
        <time>2022-08-27T08:46:31Z</time>
      </trkpt>
      <trkpt lat="44.84969" lon="5.52055">
        <ele>1933</ele>
        <time>2022-08-27T08:46:35Z</time>
      </trkpt>
      <trkpt lat="44.84983" lon="5.52066">
        <ele>1933</ele>
        <time>2022-08-27T08:46:47Z</time>
      </trkpt>
      <trkpt lat="44.84992" lon="5.52071">
        <ele>1931</ele>
        <time>2022-08-27T08:46:55Z</time>
      </trkpt>
      <trkpt lat="44.84997" lon="5.52077">
        <ele>1931</ele>
        <time>2022-08-27T08:47:00Z</time>
      </trkpt>
      <trkpt lat="44.85001" lon="5.52079">
        <ele>1931</ele>
        <time>2022-08-27T08:47:04Z</time>
      </trkpt>
      <trkpt lat="44.8501" lon="5.52087">
        <ele>1931</ele>
        <time>2022-08-27T08:47:13Z</time>
      </trkpt>
      <trkpt lat="44.85014" lon="5.52089">
        <ele>1931</ele>
        <time>2022-08-27T08:47:17Z</time>
      </trkpt>
      <trkpt lat="44.85018" lon="5.52092">
        <ele>1930</ele>
        <time>2022-08-27T08:47:21Z</time>
      </trkpt>
      <trkpt lat="44.85029" lon="5.52092">
        <ele>1928</ele>
        <time>2022-08-27T08:47:30Z</time>
      </trkpt>
      <trkpt lat="44.85033" lon="5.52091">
        <ele>1927</ele>
        <time>2022-08-27T08:47:33Z</time>
      </trkpt>
      <trkpt lat="44.85037" lon="5.52089">
        <ele>1927</ele>
        <time>2022-08-27T08:47:36Z</time>
      </trkpt>
      <trkpt lat="44.85043" lon="5.52088">
        <ele>1927</ele>
        <time>2022-08-27T08:47:40Z</time>
      </trkpt>
      <trkpt lat="44.85053" lon="5.52088">
        <ele>1927</ele>
        <time>2022-08-27T08:47:48Z</time>
      </trkpt>
      <trkpt lat="44.85058" lon="5.52089">
        <ele>1927</ele>
        <time>2022-08-27T08:47:52Z</time>
      </trkpt>
      <trkpt lat="44.85063" lon="5.52088">
        <ele>1927</ele>
        <time>2022-08-27T08:47:59Z</time>
      </trkpt>
      <trkpt lat="44.85075" lon="5.52097">
        <ele>1925</ele>
        <time>2022-08-27T08:48:12Z</time>
      </trkpt>
      <trkpt lat="44.85081" lon="5.52097">
        <ele>1924</ele>
        <time>2022-08-27T08:48:18Z</time>
      </trkpt>
      <trkpt lat="44.85085" lon="5.521">
        <ele>1924</ele>
        <time>2022-08-27T08:48:21Z</time>
      </trkpt>
      <trkpt lat="44.85095" lon="5.52099">
        <ele>1923</ele>
        <time>2022-08-27T08:48:28Z</time>
      </trkpt>
      <trkpt lat="44.85104" lon="5.52096">
        <ele>1922</ele>
        <time>2022-08-27T08:48:36Z</time>
      </trkpt>
      <trkpt lat="44.85114" lon="5.52094">
        <ele>1921</ele>
        <time>2022-08-27T08:48:44Z</time>
      </trkpt>
      <trkpt lat="44.85121" lon="5.52096">
        <ele>1921</ele>
        <time>2022-08-27T08:48:56Z</time>
      </trkpt>
      <trkpt lat="44.85125" lon="5.52099">
        <ele>1921</ele>
        <time>2022-08-27T08:49:00Z</time>
      </trkpt>
      <trkpt lat="44.85128" lon="5.52104">
        <ele>1921</ele>
        <time>2022-08-27T08:49:04Z</time>
      </trkpt>
      <trkpt lat="44.85135" lon="5.52108">
        <ele>1921</ele>
        <time>2022-08-27T08:49:11Z</time>
      </trkpt>
      <trkpt lat="44.85141" lon="5.52108">
        <ele>1921</ele>
        <time>2022-08-27T08:49:16Z</time>
      </trkpt>
      <trkpt lat="44.85159" lon="5.52115">
        <ele>1919</ele>
        <time>2022-08-27T08:49:31Z</time>
      </trkpt>
      <trkpt lat="44.85174" lon="5.52111">
        <ele>1914</ele>
        <time>2022-08-27T08:49:48Z</time>
      </trkpt>
      <trkpt lat="44.85213" lon="5.52119">
        <ele>1904</ele>
        <time>2022-08-27T08:50:20Z</time>
      </trkpt>
      <trkpt lat="44.85219" lon="5.52118">
        <ele>1902</ele>
        <time>2022-08-27T08:50:26Z</time>
      </trkpt>
      <trkpt lat="44.85224" lon="5.5212">
        <ele>1901</ele>
        <time>2022-08-27T08:50:30Z</time>
      </trkpt>
      <trkpt lat="44.85228" lon="5.52118">
        <ele>1900</ele>
        <time>2022-08-27T08:50:34Z</time>
      </trkpt>
      <trkpt lat="44.85232" lon="5.52116">
        <ele>1899</ele>
        <time>2022-08-27T08:50:41Z</time>
      </trkpt>
      <trkpt lat="44.85237" lon="5.52114">
        <ele>1896</ele>
        <time>2022-08-27T08:52:44Z</time>
      </trkpt>
      <trkpt lat="44.85243" lon="5.52113">
        <ele>1893</ele>
        <time>2022-08-27T08:52:55Z</time>
      </trkpt>
      <trkpt lat="44.85248" lon="5.52113">
        <ele>1892</ele>
        <time>2022-08-27T08:53:00Z</time>
      </trkpt>
      <trkpt lat="44.85281" lon="5.52109">
        <ele>1883</ele>
        <time>2022-08-27T08:53:33Z</time>
      </trkpt>
      <trkpt lat="44.85286" lon="5.52108">
        <ele>1882</ele>
        <time>2022-08-27T08:53:38Z</time>
      </trkpt>
      <trkpt lat="44.85291" lon="5.52104">
        <ele>1881</ele>
        <time>2022-08-27T08:53:42Z</time>
      </trkpt>
      <trkpt lat="44.85295" lon="5.52103">
        <ele>1879</ele>
        <time>2022-08-27T08:53:46Z</time>
      </trkpt>
      <trkpt lat="44.85299" lon="5.52101">
        <ele>1878</ele>
        <time>2022-08-27T08:53:50Z</time>
      </trkpt>
      <trkpt lat="44.85304" lon="5.52101">
        <ele>1877</ele>
        <time>2022-08-27T08:53:53Z</time>
      </trkpt>
      <trkpt lat="44.85312" lon="5.52097">
        <ele>1876</ele>
        <time>2022-08-27T08:54:01Z</time>
      </trkpt>
      <trkpt lat="44.85317" lon="5.52098">
        <ele>1875</ele>
        <time>2022-08-27T08:54:05Z</time>
      </trkpt>
      <trkpt lat="44.85331" lon="5.52101">
        <ele>1874</ele>
        <time>2022-08-27T08:54:18Z</time>
      </trkpt>
      <trkpt lat="44.85336" lon="5.52101">
        <ele>1873</ele>
        <time>2022-08-27T08:54:22Z</time>
      </trkpt>
      <trkpt lat="44.85341" lon="5.52102">
        <ele>1873</ele>
        <time>2022-08-27T08:54:26Z</time>
      </trkpt>
      <trkpt lat="44.85346" lon="5.52101">
        <ele>1872</ele>
        <time>2022-08-27T08:54:31Z</time>
      </trkpt>
      <trkpt lat="44.85351" lon="5.52102">
        <ele>1872</ele>
        <time>2022-08-27T08:54:36Z</time>
      </trkpt>
      <trkpt lat="44.85356" lon="5.521">
        <ele>1871</ele>
        <time>2022-08-27T08:54:40Z</time>
      </trkpt>
      <trkpt lat="44.85369" lon="5.52102">
        <ele>1870</ele>
        <time>2022-08-27T08:54:54Z</time>
      </trkpt>
      <trkpt lat="44.85381" lon="5.52105">
        <ele>1869</ele>
        <time>2022-08-27T08:55:05Z</time>
      </trkpt>
      <trkpt lat="44.85383" lon="5.52095">
        <ele>1870</ele>
        <time>2022-08-27T08:55:43Z</time>
      </trkpt>
      <trkpt lat="44.85386" lon="5.52091">
        <ele>1871</ele>
        <time>2022-08-27T08:55:54Z</time>
      </trkpt>
      <trkpt lat="44.85385" lon="5.52085">
        <ele>1874</ele>
        <time>2022-08-27T08:56:04Z</time>
      </trkpt>
      <trkpt lat="44.85386" lon="5.52075">
        <ele>1876</ele>
        <time>2022-08-27T08:56:14Z</time>
      </trkpt>
      <trkpt lat="44.85389" lon="5.52071">
        <ele>1877</ele>
        <time>2022-08-27T08:56:24Z</time>
      </trkpt>
      <trkpt lat="44.85391" lon="5.52064">
        <ele>1879</ele>
        <time>2022-08-27T08:56:34Z</time>
      </trkpt>
      <trkpt lat="44.85387" lon="5.52057">
        <ele>1881</ele>
        <time>2022-08-27T08:56:44Z</time>
      </trkpt>
      <trkpt lat="44.85387" lon="5.5205">
        <ele>1882</ele>
        <time>2022-08-27T08:56:54Z</time>
      </trkpt>
      <trkpt lat="44.85381" lon="5.52044">
        <ele>1882</ele>
        <time>2022-08-27T08:57:04Z</time>
      </trkpt>
      <trkpt lat="44.85378" lon="5.52038">
        <ele>1882</ele>
        <time>2022-08-27T08:57:10Z</time>
      </trkpt>
      <trkpt lat="44.85368" lon="5.52036">
        <ele>1880</ele>
        <time>2022-08-27T08:57:19Z</time>
      </trkpt>
      <trkpt lat="44.85362" lon="5.52017">
        <ele>1876</ele>
        <time>2022-08-27T08:58:11Z</time>
      </trkpt>
      <trkpt lat="44.85359" lon="5.52014">
        <ele>1876</ele>
        <time>2022-08-27T08:58:20Z</time>
      </trkpt>
      <trkpt lat="44.85364" lon="5.52024">
        <ele>1877</ele>
        <time>2022-08-27T08:58:55Z</time>
      </trkpt>
      <trkpt lat="44.85363" lon="5.52025">
        <ele>1876</ele>
        <time>2022-08-27T09:04:01Z</time>
      </trkpt>
      <trkpt lat="44.85365" lon="5.52023">
        <ele>1882</ele>
        <time>2022-08-27T09:32:12Z</time>
      </trkpt>
      <trkpt lat="44.85364" lon="5.52023">
        <ele>1879</ele>
        <time>2022-08-27T09:56:38Z</time>
      </trkpt>
      <trkpt lat="44.85365" lon="5.52026">
        <ele>1879</ele>
        <time>2022-08-27T10:00:12Z</time>
      </trkpt>
      <trkpt lat="44.85372" lon="5.52021">
        <ele>1879</ele>
        <time>2022-08-27T10:02:51Z</time>
      </trkpt>
      <trkpt lat="44.85377" lon="5.52022">
        <ele>1878</ele>
        <time>2022-08-27T10:02:55Z</time>
      </trkpt>
      <trkpt lat="44.85386" lon="5.5202">
        <ele>1877</ele>
        <time>2022-08-27T10:03:04Z</time>
      </trkpt>
      <trkpt lat="44.8539" lon="5.52022">
        <ele>1877</ele>
        <time>2022-08-27T10:03:08Z</time>
      </trkpt>
      <trkpt lat="44.85395" lon="5.52022">
        <ele>1877</ele>
        <time>2022-08-27T10:03:12Z</time>
      </trkpt>
      <trkpt lat="44.854" lon="5.52021">
        <ele>1877</ele>
        <time>2022-08-27T10:03:16Z</time>
      </trkpt>
      <trkpt lat="44.85404" lon="5.52023">
        <ele>1876</ele>
        <time>2022-08-27T10:03:19Z</time>
      </trkpt>
      <trkpt lat="44.85409" lon="5.52022">
        <ele>1876</ele>
        <time>2022-08-27T10:03:24Z</time>
      </trkpt>
      <trkpt lat="44.85414" lon="5.52023">
        <ele>1875</ele>
        <time>2022-08-27T10:03:28Z</time>
      </trkpt>
      <trkpt lat="44.85419" lon="5.52026">
        <ele>1875</ele>
        <time>2022-08-27T10:03:40Z</time>
      </trkpt>
      <trkpt lat="44.85423" lon="5.52025">
        <ele>1874</ele>
        <time>2022-08-27T10:03:43Z</time>
      </trkpt>
      <trkpt lat="44.85428" lon="5.52027">
        <ele>1874</ele>
        <time>2022-08-27T10:03:47Z</time>
      </trkpt>
      <trkpt lat="44.85438" lon="5.52025">
        <ele>1874</ele>
        <time>2022-08-27T10:03:55Z</time>
      </trkpt>
      <trkpt lat="44.85442" lon="5.52023">
        <ele>1874</ele>
        <time>2022-08-27T10:03:59Z</time>
      </trkpt>
      <trkpt lat="44.85447" lon="5.52022">
        <ele>1874</ele>
        <time>2022-08-27T10:04:02Z</time>
      </trkpt>
      <trkpt lat="44.85456" lon="5.52024">
        <ele>1875</ele>
        <time>2022-08-27T10:04:09Z</time>
      </trkpt>
      <trkpt lat="44.8546" lon="5.52028">
        <ele>1876</ele>
        <time>2022-08-27T10:04:13Z</time>
      </trkpt>
      <trkpt lat="44.85464" lon="5.52032">
        <ele>1876</ele>
        <time>2022-08-27T10:04:17Z</time>
      </trkpt>
      <trkpt lat="44.85475" lon="5.52042">
        <ele>1875</ele>
        <time>2022-08-27T10:04:28Z</time>
      </trkpt>
      <trkpt lat="44.85479" lon="5.52048">
        <ele>1875</ele>
        <time>2022-08-27T10:04:32Z</time>
      </trkpt>
      <trkpt lat="44.85487" lon="5.52055">
        <ele>1875</ele>
        <time>2022-08-27T10:04:38Z</time>
      </trkpt>
      <trkpt lat="44.85491" lon="5.52065">
        <ele>1875</ele>
        <time>2022-08-27T10:04:44Z</time>
      </trkpt>
      <trkpt lat="44.855" lon="5.52071">
        <ele>1875</ele>
        <time>2022-08-27T10:04:51Z</time>
      </trkpt>
      <trkpt lat="44.85508" lon="5.52075">
        <ele>1875</ele>
        <time>2022-08-27T10:04:58Z</time>
      </trkpt>
      <trkpt lat="44.85511" lon="5.52081">
        <ele>1875</ele>
        <time>2022-08-27T10:05:03Z</time>
      </trkpt>
      <trkpt lat="44.85518" lon="5.52089">
        <ele>1874</ele>
        <time>2022-08-27T10:05:11Z</time>
      </trkpt>
      <trkpt lat="44.8552" lon="5.52107">
        <ele>1870</ele>
        <time>2022-08-27T10:05:28Z</time>
      </trkpt>
      <trkpt lat="44.85523" lon="5.52112">
        <ele>1870</ele>
        <time>2022-08-27T10:05:32Z</time>
      </trkpt>
      <trkpt lat="44.85525" lon="5.52121">
        <ele>1869</ele>
        <time>2022-08-27T10:05:38Z</time>
      </trkpt>
      <trkpt lat="44.85522" lon="5.52129">
        <ele>1868</ele>
        <time>2022-08-27T10:05:41Z</time>
      </trkpt>
      <trkpt lat="44.85523" lon="5.52142">
        <ele>1867</ele>
        <time>2022-08-27T10:05:46Z</time>
      </trkpt>
      <trkpt lat="44.85526" lon="5.52148">
        <ele>1867</ele>
        <time>2022-08-27T10:05:48Z</time>
      </trkpt>
      <trkpt lat="44.85529" lon="5.52151">
        <ele>1866</ele>
        <time>2022-08-27T10:05:50Z</time>
      </trkpt>
      <trkpt lat="44.85533" lon="5.52155">
        <ele>1866</ele>
        <time>2022-08-27T10:05:53Z</time>
      </trkpt>
      <trkpt lat="44.85539" lon="5.52158">
        <ele>1866</ele>
        <time>2022-08-27T10:06:01Z</time>
      </trkpt>
      <trkpt lat="44.85544" lon="5.5216">
        <ele>1866</ele>
        <time>2022-08-27T10:06:07Z</time>
      </trkpt>
      <trkpt lat="44.85553" lon="5.52167">
        <ele>1866</ele>
        <time>2022-08-27T10:06:15Z</time>
      </trkpt>
      <trkpt lat="44.85562" lon="5.5217">
        <ele>1865</ele>
        <time>2022-08-27T10:06:23Z</time>
      </trkpt>
      <trkpt lat="44.85567" lon="5.52174">
        <ele>1865</ele>
        <time>2022-08-27T10:06:27Z</time>
      </trkpt>
      <trkpt lat="44.8557" lon="5.52176">
        <ele>1865</ele>
        <time>2022-08-27T10:06:31Z</time>
      </trkpt>
      <trkpt lat="44.85577" lon="5.52187">
        <ele>1866</ele>
        <time>2022-08-27T10:06:39Z</time>
      </trkpt>
      <trkpt lat="44.8558" lon="5.52191">
        <ele>1866</ele>
        <time>2022-08-27T10:06:43Z</time>
      </trkpt>
      <trkpt lat="44.85585" lon="5.52194">
        <ele>1866</ele>
        <time>2022-08-27T10:06:47Z</time>
      </trkpt>
      <trkpt lat="44.8559" lon="5.52205">
        <ele>1867</ele>
        <time>2022-08-27T10:06:55Z</time>
      </trkpt>
      <trkpt lat="44.856" lon="5.5221">
        <ele>1869</ele>
        <time>2022-08-27T10:07:04Z</time>
      </trkpt>
      <trkpt lat="44.85609" lon="5.52211">
        <ele>1871</ele>
        <time>2022-08-27T10:07:12Z</time>
      </trkpt>
      <trkpt lat="44.85624" lon="5.52218">
        <ele>1872</ele>
        <time>2022-08-27T10:07:32Z</time>
      </trkpt>
      <trkpt lat="44.85628" lon="5.52221">
        <ele>1872</ele>
        <time>2022-08-27T10:07:37Z</time>
      </trkpt>
      <trkpt lat="44.85641" lon="5.52226">
        <ele>1872</ele>
        <time>2022-08-27T10:07:51Z</time>
      </trkpt>
      <trkpt lat="44.85645" lon="5.52227">
        <ele>1874</ele>
        <time>2022-08-27T10:08:03Z</time>
      </trkpt>
      <trkpt lat="44.8565" lon="5.52229">
        <ele>1873</ele>
        <time>2022-08-27T10:08:13Z</time>
      </trkpt>
      <trkpt lat="44.85654" lon="5.52233">
        <ele>1874</ele>
        <time>2022-08-27T10:08:18Z</time>
      </trkpt>
      <trkpt lat="44.85676" lon="5.52243">
        <ele>1877</ele>
        <time>2022-08-27T10:08:39Z</time>
      </trkpt>
      <trkpt lat="44.85689" lon="5.52253">
        <ele>1878</ele>
        <time>2022-08-27T10:08:52Z</time>
      </trkpt>
      <trkpt lat="44.85693" lon="5.52254">
        <ele>1878</ele>
        <time>2022-08-27T10:08:56Z</time>
      </trkpt>
      <trkpt lat="44.85724" lon="5.52267">
        <ele>1883</ele>
        <time>2022-08-27T10:09:29Z</time>
      </trkpt>
      <trkpt lat="44.85733" lon="5.52271">
        <ele>1883</ele>
        <time>2022-08-27T10:09:38Z</time>
      </trkpt>
      <trkpt lat="44.8574" lon="5.52273">
        <ele>1884</ele>
        <time>2022-08-27T10:09:46Z</time>
      </trkpt>
      <trkpt lat="44.85757" lon="5.52288">
        <ele>1889</ele>
        <time>2022-08-27T10:10:09Z</time>
      </trkpt>
      <trkpt lat="44.85776" lon="5.52299">
        <ele>1891</ele>
        <time>2022-08-27T10:10:29Z</time>
      </trkpt>
      <trkpt lat="44.85789" lon="5.52299">
        <ele>1892</ele>
        <time>2022-08-27T10:10:41Z</time>
      </trkpt>
      <trkpt lat="44.85799" lon="5.52299">
        <ele>1892</ele>
        <time>2022-08-27T10:10:49Z</time>
      </trkpt>
      <trkpt lat="44.85809" lon="5.52294">
        <ele>1893</ele>
        <time>2022-08-27T10:10:59Z</time>
      </trkpt>
      <trkpt lat="44.85813" lon="5.52292">
        <ele>1893</ele>
        <time>2022-08-27T10:11:03Z</time>
      </trkpt>
      <trkpt lat="44.85818" lon="5.52289">
        <ele>1893</ele>
        <time>2022-08-27T10:11:08Z</time>
      </trkpt>
      <trkpt lat="44.85825" lon="5.52281">
        <ele>1893</ele>
        <time>2022-08-27T10:11:17Z</time>
      </trkpt>
      <trkpt lat="44.85835" lon="5.52269">
        <ele>1895</ele>
        <time>2022-08-27T10:11:34Z</time>
      </trkpt>
      <trkpt lat="44.85842" lon="5.52265">
        <ele>1897</ele>
        <time>2022-08-27T10:11:43Z</time>
      </trkpt>
      <trkpt lat="44.85846" lon="5.52263">
        <ele>1898</ele>
        <time>2022-08-27T10:11:48Z</time>
      </trkpt>
      <trkpt lat="44.85851" lon="5.52261">
        <ele>1898</ele>
        <time>2022-08-27T10:11:52Z</time>
      </trkpt>
      <trkpt lat="44.85856" lon="5.52257">
        <ele>1899</ele>
        <time>2022-08-27T10:11:59Z</time>
      </trkpt>
      <trkpt lat="44.8586" lon="5.52254">
        <ele>1899</ele>
        <time>2022-08-27T10:12:03Z</time>
      </trkpt>
      <trkpt lat="44.85867" lon="5.52246">
        <ele>1898</ele>
        <time>2022-08-27T10:12:12Z</time>
      </trkpt>
      <trkpt lat="44.85873" lon="5.52246">
        <ele>1896</ele>
        <time>2022-08-27T10:12:19Z</time>
      </trkpt>
      <trkpt lat="44.85877" lon="5.52244">
        <ele>1896</ele>
        <time>2022-08-27T10:12:23Z</time>
      </trkpt>
      <trkpt lat="44.85883" lon="5.52244">
        <ele>1897</ele>
        <time>2022-08-27T10:12:30Z</time>
      </trkpt>
      <trkpt lat="44.85887" lon="5.5224">
        <ele>1898</ele>
        <time>2022-08-27T10:12:35Z</time>
      </trkpt>
      <trkpt lat="44.85892" lon="5.52239">
        <ele>1898</ele>
        <time>2022-08-27T10:12:40Z</time>
      </trkpt>
      <trkpt lat="44.85896" lon="5.52233">
        <ele>1902</ele>
        <time>2022-08-27T10:12:52Z</time>
      </trkpt>
      <trkpt lat="44.85912" lon="5.52215">
        <ele>1907</ele>
        <time>2022-08-27T10:13:21Z</time>
      </trkpt>
      <trkpt lat="44.85916" lon="5.522">
        <ele>1909</ele>
        <time>2022-08-27T10:13:36Z</time>
      </trkpt>
      <trkpt lat="44.85912" lon="5.52195">
        <ele>1910</ele>
        <time>2022-08-27T10:14:01Z</time>
      </trkpt>
      <trkpt lat="44.85918" lon="5.52191">
        <ele>1911</ele>
        <time>2022-08-27T10:15:06Z</time>
      </trkpt>
      <trkpt lat="44.85927" lon="5.52177">
        <ele>1917</ele>
        <time>2022-08-27T10:15:33Z</time>
      </trkpt>
      <trkpt lat="44.85931" lon="5.52182">
        <ele>1919</ele>
        <time>2022-08-27T10:15:49Z</time>
      </trkpt>
      <trkpt lat="44.85933" lon="5.52188">
        <ele>1920</ele>
        <time>2022-08-27T10:15:59Z</time>
      </trkpt>
      <trkpt lat="44.85939" lon="5.52172">
        <ele>1925</ele>
        <time>2022-08-27T10:16:24Z</time>
      </trkpt>
      <trkpt lat="44.8594" lon="5.52166">
        <ele>1926</ele>
        <time>2022-08-27T10:16:30Z</time>
      </trkpt>
      <trkpt lat="44.85947" lon="5.52134">
        <ele>1934</ele>
        <time>2022-08-27T10:17:08Z</time>
      </trkpt>
      <trkpt lat="44.85952" lon="5.52136">
        <ele>1937</ele>
        <time>2022-08-27T10:17:24Z</time>
      </trkpt>
      <trkpt lat="44.85956" lon="5.52144">
        <ele>1938</ele>
        <time>2022-08-27T10:17:35Z</time>
      </trkpt>
      <trkpt lat="44.85962" lon="5.5215">
        <ele>1940</ele>
        <time>2022-08-27T10:17:46Z</time>
      </trkpt>
      <trkpt lat="44.85963" lon="5.52158">
        <ele>1942</ele>
        <time>2022-08-27T10:17:56Z</time>
      </trkpt>
      <trkpt lat="44.85966" lon="5.52166">
        <ele>1944</ele>
        <time>2022-08-27T10:18:06Z</time>
      </trkpt>
      <trkpt lat="44.8597" lon="5.52161">
        <ele>1946</ele>
        <time>2022-08-27T10:18:16Z</time>
      </trkpt>
      <trkpt lat="44.85974" lon="5.52162">
        <ele>1948</ele>
        <time>2022-08-27T10:18:26Z</time>
      </trkpt>
      <trkpt lat="44.85977" lon="5.52157">
        <ele>1951</ele>
        <time>2022-08-27T10:18:41Z</time>
      </trkpt>
      <trkpt lat="44.85982" lon="5.52159">
        <ele>1952</ele>
        <time>2022-08-27T10:18:51Z</time>
      </trkpt>
      <trkpt lat="44.85984" lon="5.52153">
        <ele>1954</ele>
        <time>2022-08-27T10:19:01Z</time>
      </trkpt>
      <trkpt lat="44.85987" lon="5.52149">
        <ele>1956</ele>
        <time>2022-08-27T10:19:11Z</time>
      </trkpt>
      <trkpt lat="44.85993" lon="5.52148">
        <ele>1960</ele>
        <time>2022-08-27T10:19:31Z</time>
      </trkpt>
      <trkpt lat="44.85998" lon="5.52142">
        <ele>1962</ele>
        <time>2022-08-27T10:19:43Z</time>
      </trkpt>
      <trkpt lat="44.86" lon="5.52133">
        <ele>1964</ele>
        <time>2022-08-27T10:19:54Z</time>
      </trkpt>
      <trkpt lat="44.86009" lon="5.52122">
        <ele>1968</ele>
        <time>2022-08-27T10:20:14Z</time>
      </trkpt>
      <trkpt lat="44.86013" lon="5.52117">
        <ele>1970</ele>
        <time>2022-08-27T10:20:24Z</time>
      </trkpt>
      <trkpt lat="44.86024" lon="5.52114">
        <ele>1976</ele>
        <time>2022-08-27T10:20:54Z</time>
      </trkpt>
      <trkpt lat="44.86038" lon="5.52096">
        <ele>1981</ele>
        <time>2022-08-27T10:21:24Z</time>
      </trkpt>
      <trkpt lat="44.86039" lon="5.52103">
        <ele>1983</ele>
        <time>2022-08-27T10:21:34Z</time>
      </trkpt>
      <trkpt lat="44.86039" lon="5.52113">
        <ele>1985</ele>
        <time>2022-08-27T10:21:45Z</time>
      </trkpt>
      <trkpt lat="44.8604" lon="5.52123">
        <ele>1987</ele>
        <time>2022-08-27T10:21:57Z</time>
      </trkpt>
      <trkpt lat="44.86039" lon="5.52143">
        <ele>1991</ele>
        <time>2022-08-27T10:22:17Z</time>
      </trkpt>
      <trkpt lat="44.8604" lon="5.52153">
        <ele>1993</ele>
        <time>2022-08-27T10:22:27Z</time>
      </trkpt>
      <trkpt lat="44.86045" lon="5.52152">
        <ele>1995</ele>
        <time>2022-08-27T10:22:37Z</time>
      </trkpt>
      <trkpt lat="44.86049" lon="5.52147">
        <ele>1997</ele>
        <time>2022-08-27T10:22:47Z</time>
      </trkpt>
      <trkpt lat="44.86053" lon="5.52151">
        <ele>2000</ele>
        <time>2022-08-27T10:23:02Z</time>
      </trkpt>
      <trkpt lat="44.86054" lon="5.52158">
        <ele>2002</ele>
        <time>2022-08-27T10:23:12Z</time>
      </trkpt>
      <trkpt lat="44.86052" lon="5.52167">
        <ele>2005</ele>
        <time>2022-08-27T10:23:27Z</time>
      </trkpt>
      <trkpt lat="44.86056" lon="5.5217">
        <ele>2007</ele>
        <time>2022-08-27T10:23:37Z</time>
      </trkpt>
      <trkpt lat="44.86068" lon="5.52159">
        <ele>2011</ele>
        <time>2022-08-27T10:24:38Z</time>
      </trkpt>
      <trkpt lat="44.8607" lon="5.52153">
        <ele>2012</ele>
        <time>2022-08-27T10:24:48Z</time>
      </trkpt>
      <trkpt lat="44.86073" lon="5.52161">
        <ele>2016</ele>
        <time>2022-08-27T10:25:08Z</time>
      </trkpt>
      <trkpt lat="44.86073" lon="5.52167">
        <ele>2017</ele>
        <time>2022-08-27T10:25:18Z</time>
      </trkpt>
      <trkpt lat="44.86073" lon="5.52176">
        <ele>2020</ele>
        <time>2022-08-27T10:25:33Z</time>
      </trkpt>
      <trkpt lat="44.86078" lon="5.52175">
        <ele>2023</ele>
        <time>2022-08-27T10:25:48Z</time>
      </trkpt>
      <trkpt lat="44.86081" lon="5.52182">
        <ele>2026</ele>
        <time>2022-08-27T10:26:05Z</time>
      </trkpt>
      <trkpt lat="44.86085" lon="5.52178">
        <ele>2028</ele>
        <time>2022-08-27T10:26:15Z</time>
      </trkpt>
      <trkpt lat="44.86087" lon="5.52184">
        <ele>2031</ele>
        <time>2022-08-27T10:26:35Z</time>
      </trkpt>
      <trkpt lat="44.86085" lon="5.5219">
        <ele>2032</ele>
        <time>2022-08-27T10:26:45Z</time>
      </trkpt>
      <trkpt lat="44.86092" lon="5.52187">
        <ele>2035</ele>
        <time>2022-08-27T10:27:00Z</time>
      </trkpt>
      <trkpt lat="44.86096" lon="5.52191">
        <ele>2038</ele>
        <time>2022-08-27T10:27:20Z</time>
      </trkpt>
      <trkpt lat="44.86099" lon="5.52184">
        <ele>2039</ele>
        <time>2022-08-27T10:27:30Z</time>
      </trkpt>
      <trkpt lat="44.86102" lon="5.52191">
        <ele>2042</ele>
        <time>2022-08-27T10:27:50Z</time>
      </trkpt>
      <trkpt lat="44.86101" lon="5.52198">
        <ele>2044</ele>
        <time>2022-08-27T10:28:01Z</time>
      </trkpt>
      <trkpt lat="44.86107" lon="5.52195">
        <ele>2046</ele>
        <time>2022-08-27T10:28:13Z</time>
      </trkpt>
      <trkpt lat="44.86109" lon="5.52204">
        <ele>2050</ele>
        <time>2022-08-27T10:28:38Z</time>
      </trkpt>
      <trkpt lat="44.86113" lon="5.52208">
        <ele>2052</ele>
        <time>2022-08-27T10:28:48Z</time>
      </trkpt>
      <trkpt lat="44.86117" lon="5.52203">
        <ele>2053</ele>
        <time>2022-08-27T10:28:58Z</time>
      </trkpt>
      <trkpt lat="44.86117" lon="5.52211">
        <ele>2055</ele>
        <time>2022-08-27T10:29:13Z</time>
      </trkpt>
      <trkpt lat="44.86122" lon="5.52212">
        <ele>2057</ele>
        <time>2022-08-27T10:29:28Z</time>
      </trkpt>
      <trkpt lat="44.86127" lon="5.52207">
        <ele>2059</ele>
        <time>2022-08-27T10:29:38Z</time>
      </trkpt>
      <trkpt lat="44.86127" lon="5.52217">
        <ele>2060</ele>
        <time>2022-08-27T10:29:48Z</time>
      </trkpt>
      <trkpt lat="44.86133" lon="5.52211">
        <ele>2062</ele>
        <time>2022-08-27T10:30:05Z</time>
      </trkpt>
      <trkpt lat="44.86133" lon="5.52221">
        <ele>2064</ele>
        <time>2022-08-27T10:30:20Z</time>
      </trkpt>
      <trkpt lat="44.86137" lon="5.52215">
        <ele>2066</ele>
        <time>2022-08-27T10:30:30Z</time>
      </trkpt>
      <trkpt lat="44.86139" lon="5.52208">
        <ele>2067</ele>
        <time>2022-08-27T10:30:45Z</time>
      </trkpt>
      <trkpt lat="44.86143" lon="5.52204">
        <ele>2070</ele>
        <time>2022-08-27T10:31:01Z</time>
      </trkpt>
      <trkpt lat="44.86144" lon="5.52196">
        <ele>2071</ele>
        <time>2022-08-27T10:31:11Z</time>
      </trkpt>
      <trkpt lat="44.8615" lon="5.52191">
        <ele>2073</ele>
        <time>2022-08-27T10:31:26Z</time>
      </trkpt>
      <trkpt lat="44.86153" lon="5.52183">
        <ele>2075</ele>
        <time>2022-08-27T10:31:38Z</time>
      </trkpt>
      <trkpt lat="44.86155" lon="5.52194">
        <ele>2077</ele>
        <time>2022-08-27T10:31:49Z</time>
      </trkpt>
      <trkpt lat="44.86159" lon="5.52195">
        <ele>2079</ele>
        <time>2022-08-27T10:32:04Z</time>
      </trkpt>
      <trkpt lat="44.86162" lon="5.52188">
        <ele>2081</ele>
        <time>2022-08-27T10:32:15Z</time>
      </trkpt>
      <trkpt lat="44.86165" lon="5.52201">
        <ele>2084</ele>
        <time>2022-08-27T10:32:33Z</time>
      </trkpt>
      <trkpt lat="44.86165" lon="5.52212">
        <ele>2085</ele>
        <time>2022-08-27T10:32:43Z</time>
      </trkpt>
      <trkpt lat="44.8617" lon="5.52207">
        <ele>2087</ele>
        <time>2022-08-27T10:32:58Z</time>
      </trkpt>
      <trkpt lat="44.86173" lon="5.522">
        <ele>2089</ele>
        <time>2022-08-27T10:33:08Z</time>
      </trkpt>
      <trkpt lat="44.86176" lon="5.52193">
        <ele>2090</ele>
        <time>2022-08-27T10:33:18Z</time>
      </trkpt>
      <trkpt lat="44.86178" lon="5.52184">
        <ele>2092</ele>
        <time>2022-08-27T10:33:28Z</time>
      </trkpt>
      <trkpt lat="44.86186" lon="5.52204">
        <ele>2096</ele>
        <time>2022-08-27T10:33:58Z</time>
      </trkpt>
      <trkpt lat="44.86189" lon="5.52215">
        <ele>2096</ele>
        <time>2022-08-27T10:34:08Z</time>
      </trkpt>
      <trkpt lat="44.86189" lon="5.52222">
        <ele>2097</ele>
        <time>2022-08-27T10:34:14Z</time>
      </trkpt>
      <trkpt lat="44.86194" lon="5.5222">
        <ele>2098</ele>
        <time>2022-08-27T10:34:26Z</time>
      </trkpt>
      <trkpt lat="44.86198" lon="5.52204">
        <ele>2102</ele>
        <time>2022-08-27T10:34:46Z</time>
      </trkpt>
      <trkpt lat="44.86207" lon="5.52218">
        <ele>2106</ele>
        <time>2022-08-27T10:35:16Z</time>
      </trkpt>
      <trkpt lat="44.86213" lon="5.52232">
        <ele>2109</ele>
        <time>2022-08-27T10:35:36Z</time>
      </trkpt>
      <trkpt lat="44.86218" lon="5.52227">
        <ele>2111</ele>
        <time>2022-08-27T10:35:51Z</time>
      </trkpt>
      <trkpt lat="44.86219" lon="5.52219">
        <ele>2113</ele>
        <time>2022-08-27T10:36:01Z</time>
      </trkpt>
      <trkpt lat="44.86219" lon="5.52211">
        <ele>2114</ele>
        <time>2022-08-27T10:36:11Z</time>
      </trkpt>
      <trkpt lat="44.86223" lon="5.52217">
        <ele>2116</ele>
        <time>2022-08-27T10:36:22Z</time>
      </trkpt>
      <trkpt lat="44.86226" lon="5.52224">
        <ele>2117</ele>
        <time>2022-08-27T10:36:32Z</time>
      </trkpt>
      <trkpt lat="44.86234" lon="5.52242">
        <ele>2120</ele>
        <time>2022-08-27T10:36:55Z</time>
      </trkpt>
      <trkpt lat="44.86238" lon="5.52235">
        <ele>2123</ele>
        <time>2022-08-27T10:37:10Z</time>
      </trkpt>
      <trkpt lat="44.86239" lon="5.52228">
        <ele>2125</ele>
        <time>2022-08-27T10:37:21Z</time>
      </trkpt>
      <trkpt lat="44.86243" lon="5.52231">
        <ele>2127</ele>
        <time>2022-08-27T10:37:36Z</time>
      </trkpt>
      <trkpt lat="44.86246" lon="5.52236">
        <ele>2128</ele>
        <time>2022-08-27T10:37:46Z</time>
      </trkpt>
      <trkpt lat="44.86252" lon="5.52253">
        <ele>2131</ele>
        <time>2022-08-27T10:38:06Z</time>
      </trkpt>
      <trkpt lat="44.86257" lon="5.52249">
        <ele>2133</ele>
        <time>2022-08-27T10:38:16Z</time>
      </trkpt>
      <trkpt lat="44.86262" lon="5.52254">
        <ele>2135</ele>
        <time>2022-08-27T10:38:32Z</time>
      </trkpt>
      <trkpt lat="44.86267" lon="5.52257">
        <ele>2136</ele>
        <time>2022-08-27T10:38:42Z</time>
      </trkpt>
      <trkpt lat="44.86271" lon="5.52251">
        <ele>2137</ele>
        <time>2022-08-27T10:38:52Z</time>
      </trkpt>
      <trkpt lat="44.8629" lon="5.52251">
        <ele>2143</ele>
        <time>2022-08-27T10:39:28Z</time>
      </trkpt>
      <trkpt lat="44.86295" lon="5.52255">
        <ele>2145</ele>
        <time>2022-08-27T10:39:43Z</time>
      </trkpt>
      <trkpt lat="44.86299" lon="5.5225">
        <ele>2146</ele>
        <time>2022-08-27T10:39:53Z</time>
      </trkpt>
      <trkpt lat="44.86307" lon="5.52256">
        <ele>2149</ele>
        <time>2022-08-27T10:40:56Z</time>
      </trkpt>
      <trkpt lat="44.8631" lon="5.52261">
        <ele>2150</ele>
        <time>2022-08-27T10:41:06Z</time>
      </trkpt>
      <trkpt lat="44.86314" lon="5.52266">
        <ele>2153</ele>
        <time>2022-08-27T10:41:21Z</time>
      </trkpt>
      <trkpt lat="44.86317" lon="5.5227">
        <ele>2154</ele>
        <time>2022-08-27T10:41:31Z</time>
      </trkpt>
      <trkpt lat="44.8632" lon="5.52273">
        <ele>2156</ele>
        <time>2022-08-27T10:41:41Z</time>
      </trkpt>
      <trkpt lat="44.86325" lon="5.52275">
        <ele>2157</ele>
        <time>2022-08-27T10:41:51Z</time>
      </trkpt>
      <trkpt lat="44.86328" lon="5.52281">
        <ele>2159</ele>
        <time>2022-08-27T10:42:01Z</time>
      </trkpt>
      <trkpt lat="44.86334" lon="5.52281">
        <ele>2160</ele>
        <time>2022-08-27T10:42:11Z</time>
      </trkpt>
      <trkpt lat="44.86338" lon="5.52285">
        <ele>2161</ele>
        <time>2022-08-27T10:42:21Z</time>
      </trkpt>
      <trkpt lat="44.86344" lon="5.52288">
        <ele>2163</ele>
        <time>2022-08-27T10:42:31Z</time>
      </trkpt>
      <trkpt lat="44.86355" lon="5.52296">
        <ele>2166</ele>
        <time>2022-08-27T10:42:53Z</time>
      </trkpt>
      <trkpt lat="44.8636" lon="5.52298">
        <ele>2168</ele>
        <time>2022-08-27T10:43:03Z</time>
      </trkpt>
      <trkpt lat="44.86364" lon="5.52303">
        <ele>2169</ele>
        <time>2022-08-27T10:43:13Z</time>
      </trkpt>
      <trkpt lat="44.86369" lon="5.52308">
        <ele>2171</ele>
        <time>2022-08-27T10:43:23Z</time>
      </trkpt>
      <trkpt lat="44.86373" lon="5.52313">
        <ele>2173</ele>
        <time>2022-08-27T10:43:53Z</time>
      </trkpt>
      <trkpt lat="44.86378" lon="5.52315">
        <ele>2175</ele>
        <time>2022-08-27T10:44:03Z</time>
      </trkpt>
      <trkpt lat="44.86384" lon="5.52318">
        <ele>2176</ele>
        <time>2022-08-27T10:44:13Z</time>
      </trkpt>
      <trkpt lat="44.86389" lon="5.52321">
        <ele>2178</ele>
        <time>2022-08-27T10:44:23Z</time>
      </trkpt>
      <trkpt lat="44.86393" lon="5.52326">
        <ele>2180</ele>
        <time>2022-08-27T10:44:33Z</time>
      </trkpt>
      <trkpt lat="44.86412" lon="5.52329">
        <ele>2184</ele>
        <time>2022-08-27T10:45:05Z</time>
      </trkpt>
      <trkpt lat="44.86416" lon="5.52329">
        <ele>2184</ele>
        <time>2022-08-27T10:45:20Z</time>
      </trkpt>
      <trkpt lat="44.86424" lon="5.52326">
        <ele>2185</ele>
        <time>2022-08-27T10:45:30Z</time>
      </trkpt>
      <trkpt lat="44.86431" lon="5.52326">
        <ele>2187</ele>
        <time>2022-08-27T10:45:40Z</time>
      </trkpt>
      <trkpt lat="44.86442" lon="5.52321">
        <ele>2189</ele>
        <time>2022-08-27T10:46:00Z</time>
      </trkpt>
      <trkpt lat="44.86442" lon="5.52328">
        <ele>2191</ele>
        <time>2022-08-27T10:46:16Z</time>
      </trkpt>
      <trkpt lat="44.86448" lon="5.52331">
        <ele>2193</ele>
        <time>2022-08-27T10:46:27Z</time>
      </trkpt>
      <trkpt lat="44.86453" lon="5.5233">
        <ele>2195</ele>
        <time>2022-08-27T10:46:37Z</time>
      </trkpt>
      <trkpt lat="44.86459" lon="5.52333">
        <ele>2198</ele>
        <time>2022-08-27T10:46:53Z</time>
      </trkpt>
      <trkpt lat="44.86465" lon="5.52332">
        <ele>2201</ele>
        <time>2022-08-27T10:47:10Z</time>
      </trkpt>
      <trkpt lat="44.86469" lon="5.52333">
        <ele>2203</ele>
        <time>2022-08-27T10:47:20Z</time>
      </trkpt>
      <trkpt lat="44.86474" lon="5.52333">
        <ele>2205</ele>
        <time>2022-08-27T10:47:35Z</time>
      </trkpt>
      <trkpt lat="44.86466" lon="5.52345">
        <ele>2208</ele>
        <time>2022-08-27T10:47:55Z</time>
      </trkpt>
      <trkpt lat="44.86471" lon="5.52346">
        <ele>2210</ele>
        <time>2022-08-27T10:48:05Z</time>
      </trkpt>
      <trkpt lat="44.86476" lon="5.52349">
        <ele>2213</ele>
        <time>2022-08-27T10:48:20Z</time>
      </trkpt>
      <trkpt lat="44.8648" lon="5.52349">
        <ele>2214</ele>
        <time>2022-08-27T10:48:30Z</time>
      </trkpt>
      <trkpt lat="44.86486" lon="5.52351">
        <ele>2217</ele>
        <time>2022-08-27T10:48:45Z</time>
      </trkpt>
      <trkpt lat="44.86489" lon="5.52357">
        <ele>2220</ele>
        <time>2022-08-27T10:49:07Z</time>
      </trkpt>
      <trkpt lat="44.86498" lon="5.52361">
        <ele>2224</ele>
        <time>2022-08-27T10:49:28Z</time>
      </trkpt>
      <trkpt lat="44.86502" lon="5.52362">
        <ele>2225</ele>
        <time>2022-08-27T10:49:38Z</time>
      </trkpt>
      <trkpt lat="44.86506" lon="5.52363">
        <ele>2227</ele>
        <time>2022-08-27T10:49:48Z</time>
      </trkpt>
      <trkpt lat="44.86513" lon="5.5236">
        <ele>2228</ele>
        <time>2022-08-27T10:49:58Z</time>
      </trkpt>
      <trkpt lat="44.86517" lon="5.52365">
        <ele>2230</ele>
        <time>2022-08-27T10:50:08Z</time>
      </trkpt>
      <trkpt lat="44.86528" lon="5.52367">
        <ele>2233</ele>
        <time>2022-08-27T10:50:28Z</time>
      </trkpt>
      <trkpt lat="44.86525" lon="5.52373">
        <ele>2235</ele>
        <time>2022-08-27T10:50:48Z</time>
      </trkpt>
      <trkpt lat="44.86536" lon="5.52381">
        <ele>2239</ele>
        <time>2022-08-27T10:51:09Z</time>
      </trkpt>
      <trkpt lat="44.86539" lon="5.52384">
        <ele>2240</ele>
        <time>2022-08-27T10:51:20Z</time>
      </trkpt>
      <trkpt lat="44.86543" lon="5.52388">
        <ele>2242</ele>
        <time>2022-08-27T10:51:30Z</time>
      </trkpt>
      <trkpt lat="44.86555" lon="5.52392">
        <ele>2245</ele>
        <time>2022-08-27T10:51:50Z</time>
      </trkpt>
      <trkpt lat="44.8656" lon="5.52395">
        <ele>2247</ele>
        <time>2022-08-27T10:52:00Z</time>
      </trkpt>
      <trkpt lat="44.86565" lon="5.52396">
        <ele>2248</ele>
        <time>2022-08-27T10:52:10Z</time>
      </trkpt>
      <trkpt lat="44.8657" lon="5.52399">
        <ele>2249</ele>
        <time>2022-08-27T10:52:20Z</time>
      </trkpt>
      <trkpt lat="44.86583" lon="5.52408">
        <ele>2252</ele>
        <time>2022-08-27T10:52:40Z</time>
      </trkpt>
      <trkpt lat="44.86597" lon="5.52412">
        <ele>2253</ele>
        <time>2022-08-27T10:52:54Z</time>
      </trkpt>
      <trkpt lat="44.86603" lon="5.52415">
        <ele>2254</ele>
        <time>2022-08-27T10:53:02Z</time>
      </trkpt>
      <trkpt lat="44.86626" lon="5.52426">
        <ele>2259</ele>
        <time>2022-08-27T10:53:36Z</time>
      </trkpt>
      <trkpt lat="44.86632" lon="5.5243">
        <ele>2260</ele>
        <time>2022-08-27T10:53:44Z</time>
      </trkpt>
      <trkpt lat="44.86639" lon="5.5243">
        <ele>2262</ele>
        <time>2022-08-27T10:53:54Z</time>
      </trkpt>
      <trkpt lat="44.86644" lon="5.52433">
        <ele>2263</ele>
        <time>2022-08-27T10:54:04Z</time>
      </trkpt>
      <trkpt lat="44.86649" lon="5.52434">
        <ele>2263</ele>
        <time>2022-08-27T10:54:09Z</time>
      </trkpt>
      <trkpt lat="44.86659" lon="5.52439">
        <ele>2266</ele>
        <time>2022-08-27T10:54:24Z</time>
      </trkpt>
      <trkpt lat="44.86663" lon="5.52439">
        <ele>2266</ele>
        <time>2022-08-27T10:54:28Z</time>
      </trkpt>
      <trkpt lat="44.86687" lon="5.52447">
        <ele>2270</ele>
        <time>2022-08-27T10:54:57Z</time>
      </trkpt>
      <trkpt lat="44.86692" lon="5.5245">
        <ele>2271</ele>
        <time>2022-08-27T10:55:21Z</time>
      </trkpt>
      <trkpt lat="44.86698" lon="5.52455">
        <ele>2272</ele>
        <time>2022-08-27T10:55:33Z</time>
      </trkpt>
      <trkpt lat="44.86705" lon="5.52457">
        <ele>2273</ele>
        <time>2022-08-27T10:55:42Z</time>
      </trkpt>
      <trkpt lat="44.8671" lon="5.52458">
        <ele>2274</ele>
        <time>2022-08-27T10:55:49Z</time>
      </trkpt>
      <trkpt lat="44.86715" lon="5.52462">
        <ele>2275</ele>
        <time>2022-08-27T10:55:59Z</time>
      </trkpt>
      <trkpt lat="44.86722" lon="5.52463">
        <ele>2277</ele>
        <time>2022-08-27T10:56:09Z</time>
      </trkpt>
      <trkpt lat="44.86739" lon="5.5247">
        <ele>2281</ele>
        <time>2022-08-27T10:56:39Z</time>
      </trkpt>
      <trkpt lat="44.86745" lon="5.52474">
        <ele>2283</ele>
        <time>2022-08-27T10:56:50Z</time>
      </trkpt>
      <trkpt lat="44.8675" lon="5.52479">
        <ele>2284</ele>
        <time>2022-08-27T10:57:00Z</time>
      </trkpt>
      <trkpt lat="44.86755" lon="5.52481">
        <ele>2286</ele>
        <time>2022-08-27T10:57:10Z</time>
      </trkpt>
      <trkpt lat="44.8676" lon="5.52487">
        <ele>2289</ele>
        <time>2022-08-27T10:57:27Z</time>
      </trkpt>
      <trkpt lat="44.86765" lon="5.52491">
        <ele>2291</ele>
        <time>2022-08-27T10:57:39Z</time>
      </trkpt>
      <trkpt lat="44.86767" lon="5.52496">
        <ele>2292</ele>
        <time>2022-08-27T10:57:45Z</time>
      </trkpt>
      <trkpt lat="44.86772" lon="5.52498">
        <ele>2292</ele>
        <time>2022-08-27T10:57:49Z</time>
      </trkpt>
      <trkpt lat="44.86777" lon="5.525">
        <ele>2293</ele>
        <time>2022-08-27T10:57:55Z</time>
      </trkpt>
      <trkpt lat="44.86784" lon="5.525">
        <ele>2293</ele>
        <time>2022-08-27T10:58:01Z</time>
      </trkpt>
      <trkpt lat="44.86788" lon="5.52502">
        <ele>2292</ele>
        <time>2022-08-27T10:58:05Z</time>
      </trkpt>
      <trkpt lat="44.86797" lon="5.52502">
        <ele>2292</ele>
        <time>2022-08-27T10:58:12Z</time>
      </trkpt>
      <trkpt lat="44.86801" lon="5.52501">
        <ele>2291</ele>
        <time>2022-08-27T10:58:15Z</time>
      </trkpt>
      <trkpt lat="44.86805" lon="5.52501">
        <ele>2291</ele>
        <time>2022-08-27T10:58:19Z</time>
      </trkpt>
      <trkpt lat="44.8681" lon="5.525">
        <ele>2291</ele>
        <time>2022-08-27T10:58:23Z</time>
      </trkpt>
      <trkpt lat="44.86815" lon="5.52502">
        <ele>2290</ele>
        <time>2022-08-27T10:58:27Z</time>
      </trkpt>
      <trkpt lat="44.86819" lon="5.525">
        <ele>2290</ele>
        <time>2022-08-27T10:58:31Z</time>
      </trkpt>
      <trkpt lat="44.86824" lon="5.525">
        <ele>2290</ele>
        <time>2022-08-27T10:58:38Z</time>
      </trkpt>
      <trkpt lat="44.86834" lon="5.52501">
        <ele>2289</ele>
        <time>2022-08-27T10:58:50Z</time>
      </trkpt>
      <trkpt lat="44.86839" lon="5.525">
        <ele>2289</ele>
        <time>2022-08-27T10:58:54Z</time>
      </trkpt>
      <trkpt lat="44.86874" lon="5.52505">
        <ele>2288</ele>
        <time>2022-08-27T10:59:23Z</time>
      </trkpt>
      <trkpt lat="44.86878" lon="5.52508">
        <ele>2289</ele>
        <time>2022-08-27T10:59:31Z</time>
      </trkpt>
      <trkpt lat="44.86884" lon="5.5251">
        <ele>2291</ele>
        <time>2022-08-27T10:59:43Z</time>
      </trkpt>
      <trkpt lat="44.86889" lon="5.52515">
        <ele>2292</ele>
        <time>2022-08-27T10:59:53Z</time>
      </trkpt>
      <trkpt lat="44.86895" lon="5.52518">
        <ele>2293</ele>
        <time>2022-08-27T11:00:03Z</time>
      </trkpt>
      <trkpt lat="44.86901" lon="5.52523">
        <ele>2295</ele>
        <time>2022-08-27T11:00:13Z</time>
      </trkpt>
      <trkpt lat="44.86917" lon="5.52534">
        <ele>2299</ele>
        <time>2022-08-27T11:00:43Z</time>
      </trkpt>
      <trkpt lat="44.86922" lon="5.52537">
        <ele>2300</ele>
        <time>2022-08-27T11:00:53Z</time>
      </trkpt>
      <trkpt lat="44.86925" lon="5.52542">
        <ele>2302</ele>
        <time>2022-08-27T11:01:03Z</time>
      </trkpt>
      <trkpt lat="44.86922" lon="5.52549">
        <ele>2304</ele>
        <time>2022-08-27T11:01:18Z</time>
      </trkpt>
      <trkpt lat="44.86917" lon="5.52552">
        <ele>2305</ele>
        <time>2022-08-27T11:01:28Z</time>
      </trkpt>
      <trkpt lat="44.86911" lon="5.52558">
        <ele>2307</ele>
        <time>2022-08-27T11:01:40Z</time>
      </trkpt>
      <trkpt lat="44.86907" lon="5.52566">
        <ele>2309</ele>
        <time>2022-08-27T11:01:52Z</time>
      </trkpt>
      <trkpt lat="44.86918" lon="5.52571">
        <ele>2312</ele>
        <time>2022-08-27T11:02:13Z</time>
      </trkpt>
      <trkpt lat="44.86922" lon="5.52575">
        <ele>2314</ele>
        <time>2022-08-27T11:02:23Z</time>
      </trkpt>
      <trkpt lat="44.86935" lon="5.52588">
        <ele>2318</ele>
        <time>2022-08-27T11:02:53Z</time>
      </trkpt>
      <trkpt lat="44.8694" lon="5.52591">
        <ele>2320</ele>
        <time>2022-08-27T11:03:03Z</time>
      </trkpt>
      <trkpt lat="44.86944" lon="5.52597">
        <ele>2322</ele>
        <time>2022-08-27T11:03:13Z</time>
      </trkpt>
      <trkpt lat="44.86953" lon="5.52606">
        <ele>2325</ele>
        <time>2022-08-27T11:03:33Z</time>
      </trkpt>
      <trkpt lat="44.86963" lon="5.52618">
        <ele>2328</ele>
        <time>2022-08-27T11:03:57Z</time>
      </trkpt>
      <trkpt lat="44.8697" lon="5.5263">
        <ele>2332</ele>
        <time>2022-08-27T11:04:23Z</time>
      </trkpt>
      <trkpt lat="44.86974" lon="5.52638">
        <ele>2334</ele>
        <time>2022-08-27T11:04:33Z</time>
      </trkpt>
      <trkpt lat="44.86976" lon="5.52644">
        <ele>2335</ele>
        <time>2022-08-27T11:04:43Z</time>
      </trkpt>
      <trkpt lat="44.86974" lon="5.52653">
        <ele>2338</ele>
        <time>2022-08-27T11:04:58Z</time>
      </trkpt>
      <trkpt lat="44.86975" lon="5.5266">
        <ele>2340</ele>
        <time>2022-08-27T11:05:13Z</time>
      </trkpt>
      <trkpt lat="44.86977" lon="5.52665">
        <ele>2340</ele>
        <time>2022-08-27T11:05:33Z</time>
      </trkpt>
      <trkpt lat="44.86975" lon="5.52669">
        <ele>2343</ele>
        <time>2022-08-27T11:10:30Z</time>
      </trkpt>
      <trkpt lat="44.86973" lon="5.52662">
        <ele>2343</ele>
        <time>2022-08-27T11:13:51Z</time>
      </trkpt>
      <trkpt lat="44.86977" lon="5.52659">
        <ele>2343</ele>
        <time>2022-08-27T11:15:23Z</time>
      </trkpt>
      <trkpt lat="44.86979" lon="5.52665">
        <ele>2343</ele>
        <time>2022-08-27T11:21:46Z</time>
      </trkpt>
      <trkpt lat="44.86986" lon="5.52661">
        <ele>2343</ele>
        <time>2022-08-27T11:23:04Z</time>
      </trkpt>
      <trkpt lat="44.86994" lon="5.52657">
        <ele>2342</ele>
        <time>2022-08-27T11:23:14Z</time>
      </trkpt>
      <trkpt lat="44.86999" lon="5.52656">
        <ele>2341</ele>
        <time>2022-08-27T11:23:19Z</time>
      </trkpt>
      <trkpt lat="44.87014" lon="5.52652">
        <ele>2338</ele>
        <time>2022-08-27T11:23:39Z</time>
      </trkpt>
      <trkpt lat="44.87022" lon="5.52648">
        <ele>2336</ele>
        <time>2022-08-27T11:24:51Z</time>
      </trkpt>
      <trkpt lat="44.87034" lon="5.52643">
        <ele>2333</ele>
        <time>2022-08-27T11:25:07Z</time>
      </trkpt>
      <trkpt lat="44.87037" lon="5.5264">
        <ele>2331</ele>
        <time>2022-08-27T11:25:14Z</time>
      </trkpt>
      <trkpt lat="44.87042" lon="5.52638">
        <ele>2330</ele>
        <time>2022-08-27T11:25:39Z</time>
      </trkpt>
      <trkpt lat="44.87046" lon="5.52639">
        <ele>2330</ele>
        <time>2022-08-27T11:25:43Z</time>
      </trkpt>
      <trkpt lat="44.87051" lon="5.52634">
        <ele>2328</ele>
        <time>2022-08-27T11:25:50Z</time>
      </trkpt>
      <trkpt lat="44.8707" lon="5.52634">
        <ele>2324</ele>
        <time>2022-08-27T11:26:10Z</time>
      </trkpt>
      <trkpt lat="44.87077" lon="5.5263">
        <ele>2322</ele>
        <time>2022-08-27T11:26:18Z</time>
      </trkpt>
      <trkpt lat="44.87106" lon="5.5263">
        <ele>2317</ele>
        <time>2022-08-27T11:26:45Z</time>
      </trkpt>
      <trkpt lat="44.87119" lon="5.52623">
        <ele>2313</ele>
        <time>2022-08-27T11:27:01Z</time>
      </trkpt>
      <trkpt lat="44.87123" lon="5.52619">
        <ele>2310</ele>
        <time>2022-08-27T11:27:12Z</time>
      </trkpt>
      <trkpt lat="44.87127" lon="5.52622">
        <ele>2310</ele>
        <time>2022-08-27T11:27:17Z</time>
      </trkpt>
      <trkpt lat="44.87132" lon="5.52622">
        <ele>2310</ele>
        <time>2022-08-27T11:27:21Z</time>
      </trkpt>
      <trkpt lat="44.87136" lon="5.52621">
        <ele>2309</ele>
        <time>2022-08-27T11:27:26Z</time>
      </trkpt>
      <trkpt lat="44.87141" lon="5.52618">
        <ele>2308</ele>
        <time>2022-08-27T11:27:31Z</time>
      </trkpt>
      <trkpt lat="44.87158" lon="5.52614">
        <ele>2304</ele>
        <time>2022-08-27T11:27:50Z</time>
      </trkpt>
      <trkpt lat="44.87187" lon="5.526">
        <ele>2297</ele>
        <time>2022-08-27T11:28:20Z</time>
      </trkpt>
      <trkpt lat="44.87191" lon="5.52598">
        <ele>2296</ele>
        <time>2022-08-27T11:28:23Z</time>
      </trkpt>
      <trkpt lat="44.87205" lon="5.52595">
        <ele>2293</ele>
        <time>2022-08-27T11:28:35Z</time>
      </trkpt>
      <trkpt lat="44.87211" lon="5.52593">
        <ele>2290</ele>
        <time>2022-08-27T11:28:46Z</time>
      </trkpt>
      <trkpt lat="44.87234" lon="5.52587">
        <ele>2284</ele>
        <time>2022-08-27T11:29:12Z</time>
      </trkpt>
      <trkpt lat="44.87239" lon="5.52583">
        <ele>2282</ele>
        <time>2022-08-27T11:29:20Z</time>
      </trkpt>
      <trkpt lat="44.87244" lon="5.52583">
        <ele>2281</ele>
        <time>2022-08-27T11:29:25Z</time>
      </trkpt>
      <trkpt lat="44.87253" lon="5.52593">
        <ele>2278</ele>
        <time>2022-08-27T11:29:57Z</time>
      </trkpt>
      <trkpt lat="44.87262" lon="5.52585">
        <ele>2275</ele>
        <time>2022-08-27T11:30:06Z</time>
      </trkpt>
      <trkpt lat="44.87266" lon="5.52586">
        <ele>2274</ele>
        <time>2022-08-27T11:30:10Z</time>
      </trkpt>
      <trkpt lat="44.87283" lon="5.52574">
        <ele>2269</ele>
        <time>2022-08-27T11:30:25Z</time>
      </trkpt>
      <trkpt lat="44.87288" lon="5.52568">
        <ele>2267</ele>
        <time>2022-08-27T11:30:32Z</time>
      </trkpt>
      <trkpt lat="44.87293" lon="5.52566">
        <ele>2265</ele>
        <time>2022-08-27T11:30:38Z</time>
      </trkpt>
      <trkpt lat="44.873" lon="5.52561">
        <ele>2262</ele>
        <time>2022-08-27T11:30:47Z</time>
      </trkpt>
      <trkpt lat="44.87316" lon="5.52554">
        <ele>2258</ele>
        <time>2022-08-27T11:31:12Z</time>
      </trkpt>
      <trkpt lat="44.87319" lon="5.5255">
        <ele>2257</ele>
        <time>2022-08-27T11:31:19Z</time>
      </trkpt>
      <trkpt lat="44.87324" lon="5.52549">
        <ele>2256</ele>
        <time>2022-08-27T11:31:25Z</time>
      </trkpt>
      <trkpt lat="44.87337" lon="5.52542">
        <ele>2254</ele>
        <time>2022-08-27T11:31:37Z</time>
      </trkpt>
      <trkpt lat="44.87354" lon="5.52535">
        <ele>2251</ele>
        <time>2022-08-27T11:31:52Z</time>
      </trkpt>
      <trkpt lat="44.87358" lon="5.52536">
        <ele>2250</ele>
        <time>2022-08-27T11:31:55Z</time>
      </trkpt>
      <trkpt lat="44.87363" lon="5.52534">
        <ele>2250</ele>
        <time>2022-08-27T11:31:59Z</time>
      </trkpt>
      <trkpt lat="44.87378" lon="5.52524">
        <ele>2246</ele>
        <time>2022-08-27T11:32:15Z</time>
      </trkpt>
      <trkpt lat="44.87383" lon="5.52525">
        <ele>2246</ele>
        <time>2022-08-27T11:32:19Z</time>
      </trkpt>
      <trkpt lat="44.87386" lon="5.52522">
        <ele>2245</ele>
        <time>2022-08-27T11:32:23Z</time>
      </trkpt>
      <trkpt lat="44.87397" lon="5.52518">
        <ele>2243</ele>
        <time>2022-08-27T11:32:31Z</time>
      </trkpt>
      <trkpt lat="44.87401" lon="5.52515">
        <ele>2242</ele>
        <time>2022-08-27T11:32:34Z</time>
      </trkpt>
      <trkpt lat="44.87405" lon="5.5251">
        <ele>2241</ele>
        <time>2022-08-27T11:32:38Z</time>
      </trkpt>
      <trkpt lat="44.87409" lon="5.52509">
        <ele>2240</ele>
        <time>2022-08-27T11:32:41Z</time>
      </trkpt>
      <trkpt lat="44.87431" lon="5.52491">
        <ele>2236</ele>
        <time>2022-08-27T11:33:00Z</time>
      </trkpt>
      <trkpt lat="44.87434" lon="5.52486">
        <ele>2235</ele>
        <time>2022-08-27T11:33:03Z</time>
      </trkpt>
      <trkpt lat="44.87435" lon="5.5248">
        <ele>2234</ele>
        <time>2022-08-27T11:33:07Z</time>
      </trkpt>
      <trkpt lat="44.87441" lon="5.52475">
        <ele>2231</ele>
        <time>2022-08-27T11:33:15Z</time>
      </trkpt>
      <trkpt lat="44.87444" lon="5.5247">
        <ele>2231</ele>
        <time>2022-08-27T11:33:19Z</time>
      </trkpt>
      <trkpt lat="44.87448" lon="5.52461">
        <ele>2229</ele>
        <time>2022-08-27T11:33:30Z</time>
      </trkpt>
      <trkpt lat="44.8747" lon="5.52438">
        <ele>2225</ele>
        <time>2022-08-27T11:33:55Z</time>
      </trkpt>
      <trkpt lat="44.87474" lon="5.52435">
        <ele>2225</ele>
        <time>2022-08-27T11:34:00Z</time>
      </trkpt>
      <trkpt lat="44.8749" lon="5.52424">
        <ele>2222</ele>
        <time>2022-08-27T11:34:20Z</time>
      </trkpt>
      <trkpt lat="44.87507" lon="5.52409">
        <ele>2217</ele>
        <time>2022-08-27T11:34:42Z</time>
      </trkpt>
      <trkpt lat="44.87516" lon="5.52403">
        <ele>2215</ele>
        <time>2022-08-27T11:34:54Z</time>
      </trkpt>
      <trkpt lat="44.87525" lon="5.52395">
        <ele>2213</ele>
        <time>2022-08-27T11:35:09Z</time>
      </trkpt>
      <trkpt lat="44.87534" lon="5.52391">
        <ele>2211</ele>
        <time>2022-08-27T11:35:18Z</time>
      </trkpt>
      <trkpt lat="44.87538" lon="5.5239">
        <ele>2211</ele>
        <time>2022-08-27T11:35:22Z</time>
      </trkpt>
      <trkpt lat="44.87546" lon="5.52384">
        <ele>2209</ele>
        <time>2022-08-27T11:35:30Z</time>
      </trkpt>
      <trkpt lat="44.87559" lon="5.52382">
        <ele>2207</ele>
        <time>2022-08-27T11:35:40Z</time>
      </trkpt>
      <trkpt lat="44.87563" lon="5.52379">
        <ele>2205</ele>
        <time>2022-08-27T11:35:47Z</time>
      </trkpt>
      <trkpt lat="44.87566" lon="5.52373">
        <ele>2203</ele>
        <time>2022-08-27T11:35:57Z</time>
      </trkpt>
      <trkpt lat="44.8757" lon="5.5237">
        <ele>2202</ele>
        <time>2022-08-27T11:36:02Z</time>
      </trkpt>
      <trkpt lat="44.87575" lon="5.5237">
        <ele>2201</ele>
        <time>2022-08-27T11:36:07Z</time>
      </trkpt>
      <trkpt lat="44.8758" lon="5.52367">
        <ele>2199</ele>
        <time>2022-08-27T11:36:14Z</time>
      </trkpt>
      <trkpt lat="44.87594" lon="5.52353">
        <ele>2192</ele>
        <time>2022-08-27T11:36:43Z</time>
      </trkpt>
      <trkpt lat="44.87598" lon="5.52349">
        <ele>2189</ele>
        <time>2022-08-27T11:36:58Z</time>
      </trkpt>
      <trkpt lat="44.87603" lon="5.52344">
        <ele>2186</ele>
        <time>2022-08-27T11:37:08Z</time>
      </trkpt>
      <trkpt lat="44.87607" lon="5.52344">
        <ele>2185</ele>
        <time>2022-08-27T11:37:14Z</time>
      </trkpt>
      <trkpt lat="44.87605" lon="5.52335">
        <ele>2183</ele>
        <time>2022-08-27T11:37:26Z</time>
      </trkpt>
      <trkpt lat="44.87608" lon="5.52329">
        <ele>2180</ele>
        <time>2022-08-27T11:37:37Z</time>
      </trkpt>
      <trkpt lat="44.87615" lon="5.52328">
        <ele>2178</ele>
        <time>2022-08-27T11:37:47Z</time>
      </trkpt>
      <trkpt lat="44.87621" lon="5.52322">
        <ele>2174</ele>
        <time>2022-08-27T11:38:08Z</time>
      </trkpt>
      <trkpt lat="44.87618" lon="5.52317">
        <ele>2173</ele>
        <time>2022-08-27T11:38:12Z</time>
      </trkpt>
      <trkpt lat="44.87614" lon="5.52313">
        <ele>2172</ele>
        <time>2022-08-27T11:38:19Z</time>
      </trkpt>
      <trkpt lat="44.87611" lon="5.52305">
        <ele>2169</ele>
        <time>2022-08-27T11:38:30Z</time>
      </trkpt>
      <trkpt lat="44.87616" lon="5.52305">
        <ele>2168</ele>
        <time>2022-08-27T11:38:40Z</time>
      </trkpt>
      <trkpt lat="44.87617" lon="5.52297">
        <ele>2167</ele>
        <time>2022-08-27T11:38:44Z</time>
      </trkpt>
      <trkpt lat="44.87622" lon="5.52296">
        <ele>2165</ele>
        <time>2022-08-27T11:38:53Z</time>
      </trkpt>
      <trkpt lat="44.87629" lon="5.52297">
        <ele>2163</ele>
        <time>2022-08-27T11:39:03Z</time>
      </trkpt>
      <trkpt lat="44.87633" lon="5.52296">
        <ele>2161</ele>
        <time>2022-08-27T11:39:07Z</time>
      </trkpt>
      <trkpt lat="44.87638" lon="5.52293">
        <ele>2159</ele>
        <time>2022-08-27T11:39:15Z</time>
      </trkpt>
      <trkpt lat="44.87642" lon="5.52292">
        <ele>2158</ele>
        <time>2022-08-27T11:39:22Z</time>
      </trkpt>
      <trkpt lat="44.8764" lon="5.52286">
        <ele>2156</ele>
        <time>2022-08-27T11:39:28Z</time>
      </trkpt>
      <trkpt lat="44.87642" lon="5.52279">
        <ele>2154</ele>
        <time>2022-08-27T11:39:39Z</time>
      </trkpt>
      <trkpt lat="44.87649" lon="5.52282">
        <ele>2152</ele>
        <time>2022-08-27T11:39:49Z</time>
      </trkpt>
      <trkpt lat="44.87648" lon="5.52272">
        <ele>2150</ele>
        <time>2022-08-27T11:39:58Z</time>
      </trkpt>
      <trkpt lat="44.87653" lon="5.52274">
        <ele>2149</ele>
        <time>2022-08-27T11:40:03Z</time>
      </trkpt>
      <trkpt lat="44.87658" lon="5.5227">
        <ele>2147</ele>
        <time>2022-08-27T11:40:11Z</time>
      </trkpt>
      <trkpt lat="44.87662" lon="5.52268">
        <ele>2145</ele>
        <time>2022-08-27T11:40:21Z</time>
      </trkpt>
      <trkpt lat="44.87661" lon="5.52259">
        <ele>2142</ele>
        <time>2022-08-27T11:40:31Z</time>
      </trkpt>
      <trkpt lat="44.87666" lon="5.52256">
        <ele>2139</ele>
        <time>2022-08-27T11:40:41Z</time>
      </trkpt>
      <trkpt lat="44.87672" lon="5.52251">
        <ele>2138</ele>
        <time>2022-08-27T11:40:48Z</time>
      </trkpt>
      <trkpt lat="44.87675" lon="5.52257">
        <ele>2137</ele>
        <time>2022-08-27T11:40:52Z</time>
      </trkpt>
      <trkpt lat="44.8768" lon="5.52262">
        <ele>2135</ele>
        <time>2022-08-27T11:41:00Z</time>
      </trkpt>
      <trkpt lat="44.87686" lon="5.52262">
        <ele>2133</ele>
        <time>2022-08-27T11:41:07Z</time>
      </trkpt>
      <trkpt lat="44.87694" lon="5.52256">
        <ele>2131</ele>
        <time>2022-08-27T11:41:16Z</time>
      </trkpt>
      <trkpt lat="44.87699" lon="5.52249">
        <ele>2129</ele>
        <time>2022-08-27T11:41:23Z</time>
      </trkpt>
      <trkpt lat="44.87706" lon="5.52245">
        <ele>2127</ele>
        <time>2022-08-27T11:41:31Z</time>
      </trkpt>
      <trkpt lat="44.8771" lon="5.52238">
        <ele>2126</ele>
        <time>2022-08-27T11:41:38Z</time>
      </trkpt>
      <trkpt lat="44.87718" lon="5.52229">
        <ele>2124</ele>
        <time>2022-08-27T11:41:49Z</time>
      </trkpt>
      <trkpt lat="44.87723" lon="5.52229">
        <ele>2123</ele>
        <time>2022-08-27T11:41:53Z</time>
      </trkpt>
      <trkpt lat="44.87726" lon="5.52224">
        <ele>2122</ele>
        <time>2022-08-27T11:41:57Z</time>
      </trkpt>
      <trkpt lat="44.87732" lon="5.52221">
        <ele>2120</ele>
        <time>2022-08-27T11:42:04Z</time>
      </trkpt>
      <trkpt lat="44.87733" lon="5.52213">
        <ele>2118</ele>
        <time>2022-08-27T11:42:11Z</time>
      </trkpt>
      <trkpt lat="44.87737" lon="5.5221">
        <ele>2117</ele>
        <time>2022-08-27T11:42:21Z</time>
      </trkpt>
      <trkpt lat="44.87743" lon="5.52212">
        <ele>2115</ele>
        <time>2022-08-27T11:42:56Z</time>
      </trkpt>
      <trkpt lat="44.87748" lon="5.52211">
        <ele>2115</ele>
        <time>2022-08-27T11:43:00Z</time>
      </trkpt>
      <trkpt lat="44.87753" lon="5.52216">
        <ele>2113</ele>
        <time>2022-08-27T11:43:09Z</time>
      </trkpt>
      <trkpt lat="44.87761" lon="5.52219">
        <ele>2111</ele>
        <time>2022-08-27T11:43:18Z</time>
      </trkpt>
      <trkpt lat="44.87763" lon="5.52225">
        <ele>2110</ele>
        <time>2022-08-27T11:43:23Z</time>
      </trkpt>
      <trkpt lat="44.87772" lon="5.52229">
        <ele>2109</ele>
        <time>2022-08-27T11:43:31Z</time>
      </trkpt>
      <trkpt lat="44.87775" lon="5.52234">
        <ele>2108</ele>
        <time>2022-08-27T11:43:35Z</time>
      </trkpt>
      <trkpt lat="44.87779" lon="5.52237">
        <ele>2107</ele>
        <time>2022-08-27T11:43:39Z</time>
      </trkpt>
      <trkpt lat="44.87789" lon="5.5224">
        <ele>2105</ele>
        <time>2022-08-27T11:43:48Z</time>
      </trkpt>
      <trkpt lat="44.87807" lon="5.52247">
        <ele>2103</ele>
        <time>2022-08-27T11:44:04Z</time>
      </trkpt>
      <trkpt lat="44.87821" lon="5.52247">
        <ele>2103</ele>
        <time>2022-08-27T11:44:17Z</time>
      </trkpt>
      <trkpt lat="44.87825" lon="5.52245">
        <ele>2103</ele>
        <time>2022-08-27T11:44:21Z</time>
      </trkpt>
      <trkpt lat="44.87851" lon="5.52244">
        <ele>2101</ele>
        <time>2022-08-27T11:44:44Z</time>
      </trkpt>
      <trkpt lat="44.87856" lon="5.52243">
        <ele>2100</ele>
        <time>2022-08-27T11:44:49Z</time>
      </trkpt>
      <trkpt lat="44.87862" lon="5.52245">
        <ele>2099</ele>
        <time>2022-08-27T11:45:08Z</time>
      </trkpt>
      <trkpt lat="44.87866" lon="5.52244">
        <ele>2099</ele>
        <time>2022-08-27T11:45:12Z</time>
      </trkpt>
      <trkpt lat="44.8787" lon="5.52245">
        <ele>2099</ele>
        <time>2022-08-27T11:45:16Z</time>
      </trkpt>
      <trkpt lat="44.87874" lon="5.52248">
        <ele>2098</ele>
        <time>2022-08-27T11:45:20Z</time>
      </trkpt>
      <trkpt lat="44.87876" lon="5.5224">
        <ele>2096</ele>
        <time>2022-08-27T11:45:26Z</time>
      </trkpt>
      <trkpt lat="44.8788" lon="5.52237">
        <ele>2094</ele>
        <time>2022-08-27T11:45:39Z</time>
      </trkpt>
      <trkpt lat="44.87878" lon="5.52229">
        <ele>2094</ele>
        <time>2022-08-27T11:45:47Z</time>
      </trkpt>
      <trkpt lat="44.87878" lon="5.52235">
        <ele>2093</ele>
        <time>2022-08-27T11:46:38Z</time>
      </trkpt>
      <trkpt lat="44.87884" lon="5.52235">
        <ele>2093</ele>
        <time>2022-08-27T11:47:18Z</time>
      </trkpt>
      <trkpt lat="44.87887" lon="5.52242">
        <ele>2090</ele>
        <time>2022-08-27T11:48:45Z</time>
      </trkpt>
      <trkpt lat="44.8789" lon="5.52248">
        <ele>2090</ele>
        <time>2022-08-27T11:48:51Z</time>
      </trkpt>
      <trkpt lat="44.87896" lon="5.52251">
        <ele>2087</ele>
        <time>2022-08-27T11:49:03Z</time>
      </trkpt>
      <trkpt lat="44.87901" lon="5.52253">
        <ele>2085</ele>
        <time>2022-08-27T11:49:13Z</time>
      </trkpt>
      <trkpt lat="44.87901" lon="5.52245">
        <ele>2082</ele>
        <time>2022-08-27T11:49:28Z</time>
      </trkpt>
      <trkpt lat="44.87901" lon="5.52237">
        <ele>2079</ele>
        <time>2022-08-27T11:49:43Z</time>
      </trkpt>
      <trkpt lat="44.87907" lon="5.52234">
        <ele>2076</ele>
        <time>2022-08-27T11:49:54Z</time>
      </trkpt>
      <trkpt lat="44.8791" lon="5.52244">
        <ele>2074</ele>
        <time>2022-08-27T11:50:05Z</time>
      </trkpt>
      <trkpt lat="44.87925" lon="5.52253">
        <ele>2067</ele>
        <time>2022-08-27T11:50:42Z</time>
      </trkpt>
      <trkpt lat="44.8793" lon="5.52254">
        <ele>2067</ele>
        <time>2022-08-27T11:50:46Z</time>
      </trkpt>
      <trkpt lat="44.87934" lon="5.52259">
        <ele>2066</ele>
        <time>2022-08-27T11:50:54Z</time>
      </trkpt>
      <trkpt lat="44.87942" lon="5.52281">
        <ele>2063</ele>
        <time>2022-08-27T11:51:13Z</time>
      </trkpt>
      <trkpt lat="44.87946" lon="5.52286">
        <ele>2062</ele>
        <time>2022-08-27T11:51:20Z</time>
      </trkpt>
      <trkpt lat="44.87951" lon="5.52289">
        <ele>2060</ele>
        <time>2022-08-27T11:51:30Z</time>
      </trkpt>
      <trkpt lat="44.8796" lon="5.52298">
        <ele>2057</ele>
        <time>2022-08-27T11:51:46Z</time>
      </trkpt>
      <trkpt lat="44.87963" lon="5.52302">
        <ele>2055</ele>
        <time>2022-08-27T11:51:59Z</time>
      </trkpt>
      <trkpt lat="44.87968" lon="5.52306">
        <ele>2052</ele>
        <time>2022-08-27T11:52:17Z</time>
      </trkpt>
      <trkpt lat="44.87967" lon="5.52296">
        <ele>2050</ele>
        <time>2022-08-27T11:52:33Z</time>
      </trkpt>
      <trkpt lat="44.87973" lon="5.52286">
        <ele>2047</ele>
        <time>2022-08-27T11:52:46Z</time>
      </trkpt>
      <trkpt lat="44.87968" lon="5.52281">
        <ele>2045</ele>
        <time>2022-08-27T11:53:01Z</time>
      </trkpt>
      <trkpt lat="44.87968" lon="5.52267">
        <ele>2042</ele>
        <time>2022-08-27T11:53:21Z</time>
      </trkpt>
      <trkpt lat="44.87972" lon="5.52265">
        <ele>2038</ele>
        <time>2022-08-27T11:53:46Z</time>
      </trkpt>
      <trkpt lat="44.87975" lon="5.5227">
        <ele>2036</ele>
        <time>2022-08-27T11:53:56Z</time>
      </trkpt>
      <trkpt lat="44.8798" lon="5.52274">
        <ele>2034</ele>
        <time>2022-08-27T11:56:10Z</time>
      </trkpt>
      <trkpt lat="44.87986" lon="5.52276">
        <ele>2032</ele>
        <time>2022-08-27T11:57:33Z</time>
      </trkpt>
      <trkpt lat="44.8799" lon="5.52281">
        <ele>2031</ele>
        <time>2022-08-27T11:57:43Z</time>
      </trkpt>
      <trkpt lat="44.87994" lon="5.52285">
        <ele>2029</ele>
        <time>2022-08-27T11:57:48Z</time>
      </trkpt>
      <trkpt lat="44.87998" lon="5.52291">
        <ele>2028</ele>
        <time>2022-08-27T11:57:55Z</time>
      </trkpt>
      <trkpt lat="44.88003" lon="5.52296">
        <ele>2026</ele>
        <time>2022-08-27T11:58:06Z</time>
      </trkpt>
      <trkpt lat="44.88011" lon="5.52307">
        <ele>2023</ele>
        <time>2022-08-27T11:58:22Z</time>
      </trkpt>
      <trkpt lat="44.88016" lon="5.52306">
        <ele>2020</ele>
        <time>2022-08-27T11:58:32Z</time>
      </trkpt>
      <trkpt lat="44.88013" lon="5.52297">
        <ele>2018</ele>
        <time>2022-08-27T11:58:42Z</time>
      </trkpt>
      <trkpt lat="44.88014" lon="5.52291">
        <ele>2016</ele>
        <time>2022-08-27T11:58:52Z</time>
      </trkpt>
      <trkpt lat="44.88018" lon="5.52285">
        <ele>2014</ele>
        <time>2022-08-27T11:59:02Z</time>
      </trkpt>
      <trkpt lat="44.88026" lon="5.52297">
        <ele>2010</ele>
        <time>2022-08-27T11:59:19Z</time>
      </trkpt>
      <trkpt lat="44.88033" lon="5.52302">
        <ele>2008</ele>
        <time>2022-08-27T11:59:29Z</time>
      </trkpt>
      <trkpt lat="44.8804" lon="5.52302">
        <ele>2005</ele>
        <time>2022-08-27T11:59:40Z</time>
      </trkpt>
      <trkpt lat="44.88043" lon="5.52306">
        <ele>2004</ele>
        <time>2022-08-27T11:59:45Z</time>
      </trkpt>
      <trkpt lat="44.88041" lon="5.52324">
        <ele>1999</ele>
        <time>2022-08-27T12:00:11Z</time>
      </trkpt>
      <trkpt lat="44.88046" lon="5.52326">
        <ele>1997</ele>
        <time>2022-08-27T12:00:15Z</time>
      </trkpt>
      <trkpt lat="44.8805" lon="5.52326">
        <ele>1994</ele>
        <time>2022-08-27T12:00:24Z</time>
      </trkpt>
      <trkpt lat="44.88055" lon="5.52327">
        <ele>1991</ele>
        <time>2022-08-27T12:00:40Z</time>
      </trkpt>
      <trkpt lat="44.88053" lon="5.52335">
        <ele>1987</ele>
        <time>2022-08-27T12:00:55Z</time>
      </trkpt>
      <trkpt lat="44.88059" lon="5.52334">
        <ele>1985</ele>
        <time>2022-08-27T12:01:05Z</time>
      </trkpt>
      <trkpt lat="44.88066" lon="5.52336">
        <ele>1982</ele>
        <time>2022-08-27T12:01:20Z</time>
      </trkpt>
      <trkpt lat="44.88084" lon="5.52322">
        <ele>1976</ele>
        <time>2022-08-27T12:01:49Z</time>
      </trkpt>
      <trkpt lat="44.88088" lon="5.5232">
        <ele>1973</ele>
        <time>2022-08-27T12:02:01Z</time>
      </trkpt>
      <trkpt lat="44.88095" lon="5.5231">
        <ele>1971</ele>
        <time>2022-08-27T12:02:11Z</time>
      </trkpt>
      <trkpt lat="44.88097" lon="5.52305">
        <ele>1969</ele>
        <time>2022-08-27T12:02:21Z</time>
      </trkpt>
      <trkpt lat="44.88099" lon="5.52297">
        <ele>1968</ele>
        <time>2022-08-27T12:02:33Z</time>
      </trkpt>
      <trkpt lat="44.88096" lon="5.52289">
        <ele>1966</ele>
        <time>2022-08-27T12:02:45Z</time>
      </trkpt>
      <trkpt lat="44.88093" lon="5.52279">
        <ele>1963</ele>
        <time>2022-08-27T12:02:56Z</time>
      </trkpt>
      <trkpt lat="44.88092" lon="5.52271">
        <ele>1962</ele>
        <time>2022-08-27T12:03:06Z</time>
      </trkpt>
      <trkpt lat="44.88088" lon="5.5226">
        <ele>1960</ele>
        <time>2022-08-27T12:03:16Z</time>
      </trkpt>
      <trkpt lat="44.88086" lon="5.52255">
        <ele>1959</ele>
        <time>2022-08-27T12:03:20Z</time>
      </trkpt>
      <trkpt lat="44.88082" lon="5.52252">
        <ele>1958</ele>
        <time>2022-08-27T12:03:25Z</time>
      </trkpt>
      <trkpt lat="44.88076" lon="5.52232">
        <ele>1955</ele>
        <time>2022-08-27T12:03:48Z</time>
      </trkpt>
      <trkpt lat="44.88075" lon="5.52222">
        <ele>1952</ele>
        <time>2022-08-27T12:03:59Z</time>
      </trkpt>
      <trkpt lat="44.88074" lon="5.52214">
        <ele>1952</ele>
        <time>2022-08-27T12:04:03Z</time>
      </trkpt>
      <trkpt lat="44.88071" lon="5.52209">
        <ele>1950</ele>
        <time>2022-08-27T12:04:12Z</time>
      </trkpt>
      <trkpt lat="44.88075" lon="5.52208">
        <ele>1947</ele>
        <time>2022-08-27T12:04:27Z</time>
      </trkpt>
      <trkpt lat="44.88081" lon="5.52209">
        <ele>1946</ele>
        <time>2022-08-27T12:04:39Z</time>
      </trkpt>
      <trkpt lat="44.88096" lon="5.52218">
        <ele>1941</ele>
        <time>2022-08-27T12:05:01Z</time>
      </trkpt>
      <trkpt lat="44.88103" lon="5.52231">
        <ele>1937</ele>
        <time>2022-08-27T12:05:16Z</time>
      </trkpt>
      <trkpt lat="44.88108" lon="5.52233">
        <ele>1937</ele>
        <time>2022-08-27T12:05:23Z</time>
      </trkpt>
      <trkpt lat="44.88126" lon="5.52251">
        <ele>1934</ele>
        <time>2022-08-27T12:06:04Z</time>
      </trkpt>
      <trkpt lat="44.88129" lon="5.52254">
        <ele>1931</ele>
        <time>2022-08-27T12:06:29Z</time>
      </trkpt>
      <trkpt lat="44.88129" lon="5.5226">
        <ele>1927</ele>
        <time>2022-08-27T12:13:14Z</time>
      </trkpt>
      <trkpt lat="44.88131" lon="5.52256">
        <ele>1927</ele>
        <time>2022-08-27T12:15:21Z</time>
      </trkpt>
      <trkpt lat="44.88128" lon="5.52251">
        <ele>1927</ele>
        <time>2022-08-27T12:15:51Z</time>
      </trkpt>
      <trkpt lat="44.88127" lon="5.52251">
        <ele>1925</ele>
        <time>2022-08-27T12:19:53Z</time>
      </trkpt>
      <trkpt lat="44.88127" lon="5.52243">
        <ele>1925</ele>
        <time>2022-08-27T12:28:10Z</time>
      </trkpt>
      <trkpt lat="44.88119" lon="5.5223">
        <ele>1921</ele>
        <time>2022-08-27T12:28:30Z</time>
      </trkpt>
      <trkpt lat="44.88118" lon="5.52221">
        <ele>1919</ele>
        <time>2022-08-27T12:28:40Z</time>
      </trkpt>
      <trkpt lat="44.88145" lon="5.52213">
        <ele>1912</ele>
        <time>2022-08-27T12:29:15Z</time>
      </trkpt>
      <trkpt lat="44.88154" lon="5.52202">
        <ele>1909</ele>
        <time>2022-08-27T12:29:29Z</time>
      </trkpt>
      <trkpt lat="44.88157" lon="5.52197">
        <ele>1908</ele>
        <time>2022-08-27T12:29:34Z</time>
      </trkpt>
      <trkpt lat="44.88164" lon="5.52189">
        <ele>1906</ele>
        <time>2022-08-27T12:29:43Z</time>
      </trkpt>
      <trkpt lat="44.88168" lon="5.52186">
        <ele>1904</ele>
        <time>2022-08-27T12:29:50Z</time>
      </trkpt>
      <trkpt lat="44.88171" lon="5.52177">
        <ele>1902</ele>
        <time>2022-08-27T12:29:58Z</time>
      </trkpt>
      <trkpt lat="44.88176" lon="5.52171">
        <ele>1900</ele>
        <time>2022-08-27T12:30:06Z</time>
      </trkpt>
      <trkpt lat="44.88179" lon="5.52166">
        <ele>1899</ele>
        <time>2022-08-27T12:30:10Z</time>
      </trkpt>
      <trkpt lat="44.88182" lon="5.52163">
        <ele>1897</ele>
        <time>2022-08-27T12:30:17Z</time>
      </trkpt>
      <trkpt lat="44.88185" lon="5.52158">
        <ele>1896</ele>
        <time>2022-08-27T12:30:22Z</time>
      </trkpt>
      <trkpt lat="44.88182" lon="5.52152">
        <ele>1894</ele>
        <time>2022-08-27T12:30:31Z</time>
      </trkpt>
      <trkpt lat="44.88183" lon="5.52146">
        <ele>1892</ele>
        <time>2022-08-27T12:30:42Z</time>
      </trkpt>
      <trkpt lat="44.88187" lon="5.5214">
        <ele>1890</ele>
        <time>2022-08-27T12:30:50Z</time>
      </trkpt>
      <trkpt lat="44.88189" lon="5.52134">
        <ele>1888</ele>
        <time>2022-08-27T12:30:54Z</time>
      </trkpt>
      <trkpt lat="44.88203" lon="5.52114">
        <ele>1884</ele>
        <time>2022-08-27T12:31:15Z</time>
      </trkpt>
      <trkpt lat="44.88206" lon="5.52109">
        <ele>1882</ele>
        <time>2022-08-27T12:31:23Z</time>
      </trkpt>
      <trkpt lat="44.88203" lon="5.52103">
        <ele>1880</ele>
        <time>2022-08-27T12:31:29Z</time>
      </trkpt>
      <trkpt lat="44.88195" lon="5.521">
        <ele>1879</ele>
        <time>2022-08-27T12:31:36Z</time>
      </trkpt>
      <trkpt lat="44.88191" lon="5.52101">
        <ele>1878</ele>
        <time>2022-08-27T12:31:39Z</time>
      </trkpt>
      <trkpt lat="44.88186" lon="5.52104">
        <ele>1877</ele>
        <time>2022-08-27T12:31:43Z</time>
      </trkpt>
      <trkpt lat="44.88175" lon="5.52098">
        <ele>1873</ele>
        <time>2022-08-27T12:31:59Z</time>
      </trkpt>
      <trkpt lat="44.88166" lon="5.52102">
        <ele>1871</ele>
        <time>2022-08-27T12:32:08Z</time>
      </trkpt>
      <trkpt lat="44.88156" lon="5.52098">
        <ele>1868</ele>
        <time>2022-08-27T12:32:21Z</time>
      </trkpt>
      <trkpt lat="44.8816" lon="5.52093">
        <ele>1866</ele>
        <time>2022-08-27T12:32:28Z</time>
      </trkpt>
      <trkpt lat="44.88173" lon="5.52072">
        <ele>1861</ele>
        <time>2022-08-27T12:32:57Z</time>
      </trkpt>
      <trkpt lat="44.88177" lon="5.52058">
        <ele>1858</ele>
        <time>2022-08-27T12:33:09Z</time>
      </trkpt>
      <trkpt lat="44.88173" lon="5.52047">
        <ele>1856</ele>
        <time>2022-08-27T12:33:17Z</time>
      </trkpt>
      <trkpt lat="44.88174" lon="5.5204">
        <ele>1854</ele>
        <time>2022-08-27T12:33:25Z</time>
      </trkpt>
      <trkpt lat="44.88174" lon="5.52034">
        <ele>1853</ele>
        <time>2022-08-27T12:33:29Z</time>
      </trkpt>
      <trkpt lat="44.88176" lon="5.52023">
        <ele>1851</ele>
        <time>2022-08-27T12:33:37Z</time>
      </trkpt>
      <trkpt lat="44.88171" lon="5.52017">
        <ele>1849</ele>
        <time>2022-08-27T12:33:44Z</time>
      </trkpt>
      <trkpt lat="44.88163" lon="5.52021">
        <ele>1848</ele>
        <time>2022-08-27T12:33:51Z</time>
      </trkpt>
      <trkpt lat="44.8816" lon="5.52014">
        <ele>1845</ele>
        <time>2022-08-27T12:33:58Z</time>
      </trkpt>
      <trkpt lat="44.88162" lon="5.52009">
        <ele>1844</ele>
        <time>2022-08-27T12:34:03Z</time>
      </trkpt>
      <trkpt lat="44.88159" lon="5.52004">
        <ele>1843</ele>
        <time>2022-08-27T12:34:07Z</time>
      </trkpt>
      <trkpt lat="44.88163" lon="5.52002">
        <ele>1842</ele>
        <time>2022-08-27T12:34:13Z</time>
      </trkpt>
      <trkpt lat="44.88162" lon="5.5199">
        <ele>1839</ele>
        <time>2022-08-27T12:34:23Z</time>
      </trkpt>
      <trkpt lat="44.88165" lon="5.51973">
        <ele>1836</ele>
        <time>2022-08-27T12:34:35Z</time>
      </trkpt>
      <trkpt lat="44.88161" lon="5.51958">
        <ele>1834</ele>
        <time>2022-08-27T12:34:47Z</time>
      </trkpt>
      <trkpt lat="44.88162" lon="5.51952">
        <ele>1832</ele>
        <time>2022-08-27T12:34:52Z</time>
      </trkpt>
      <trkpt lat="44.88166" lon="5.51953">
        <ele>1832</ele>
        <time>2022-08-27T12:34:57Z</time>
      </trkpt>
      <trkpt lat="44.88171" lon="5.5195">
        <ele>1830</ele>
        <time>2022-08-27T12:35:02Z</time>
      </trkpt>
      <trkpt lat="44.88174" lon="5.51946">
        <ele>1830</ele>
        <time>2022-08-27T12:35:06Z</time>
      </trkpt>
      <trkpt lat="44.88176" lon="5.51941">
        <ele>1829</ele>
        <time>2022-08-27T12:35:10Z</time>
      </trkpt>
      <trkpt lat="44.88176" lon="5.51935">
        <ele>1828</ele>
        <time>2022-08-27T12:35:14Z</time>
      </trkpt>
      <trkpt lat="44.8818" lon="5.51924">
        <ele>1826</ele>
        <time>2022-08-27T12:35:22Z</time>
      </trkpt>
      <trkpt lat="44.88179" lon="5.51915">
        <ele>1826</ele>
        <time>2022-08-27T12:35:29Z</time>
      </trkpt>
      <trkpt lat="44.88187" lon="5.51896">
        <ele>1823</ele>
        <time>2022-08-27T12:35:47Z</time>
      </trkpt>
      <trkpt lat="44.88194" lon="5.51881">
        <ele>1819</ele>
        <time>2022-08-27T12:36:05Z</time>
      </trkpt>
      <trkpt lat="44.88196" lon="5.51873">
        <ele>1818</ele>
        <time>2022-08-27T12:36:11Z</time>
      </trkpt>
      <trkpt lat="44.88197" lon="5.51866">
        <ele>1817</ele>
        <time>2022-08-27T12:36:16Z</time>
      </trkpt>
      <trkpt lat="44.88196" lon="5.51861">
        <ele>1816</ele>
        <time>2022-08-27T12:36:23Z</time>
      </trkpt>
      <trkpt lat="44.88195" lon="5.51855">
        <ele>1814</ele>
        <time>2022-08-27T12:36:38Z</time>
      </trkpt>
      <trkpt lat="44.88192" lon="5.51848">
        <ele>1813</ele>
        <time>2022-08-27T12:36:48Z</time>
      </trkpt>
      <trkpt lat="44.88186" lon="5.51852">
        <ele>1812</ele>
        <time>2022-08-27T12:36:58Z</time>
      </trkpt>
      <trkpt lat="44.88187" lon="5.51845">
        <ele>1810</ele>
        <time>2022-08-27T12:37:15Z</time>
      </trkpt>
      <trkpt lat="44.88191" lon="5.51836">
        <ele>1808</ele>
        <time>2022-08-27T12:37:27Z</time>
      </trkpt>
      <trkpt lat="44.88195" lon="5.51831">
        <ele>1807</ele>
        <time>2022-08-27T12:37:47Z</time>
      </trkpt>
      <trkpt lat="44.88196" lon="5.51824">
        <ele>1805</ele>
        <time>2022-08-27T12:37:57Z</time>
      </trkpt>
      <trkpt lat="44.882" lon="5.51819">
        <ele>1804</ele>
        <time>2022-08-27T12:38:07Z</time>
      </trkpt>
      <trkpt lat="44.88203" lon="5.51814">
        <ele>1803</ele>
        <time>2022-08-27T12:38:13Z</time>
      </trkpt>
      <trkpt lat="44.8821" lon="5.51801">
        <ele>1800</ele>
        <time>2022-08-27T12:38:32Z</time>
      </trkpt>
      <trkpt lat="44.88215" lon="5.51792">
        <ele>1801</ele>
        <time>2022-08-27T12:38:58Z</time>
      </trkpt>
      <trkpt lat="44.88218" lon="5.51785">
        <ele>1800</ele>
        <time>2022-08-27T12:39:05Z</time>
      </trkpt>
      <trkpt lat="44.88221" lon="5.51779">
        <ele>1800</ele>
        <time>2022-08-27T12:39:09Z</time>
      </trkpt>
      <trkpt lat="44.88222" lon="5.51772">
        <ele>1800</ele>
        <time>2022-08-27T12:39:17Z</time>
      </trkpt>
      <trkpt lat="44.88227" lon="5.51758">
        <ele>1794</ele>
        <time>2022-08-27T12:39:52Z</time>
      </trkpt>
      <trkpt lat="44.88225" lon="5.51748">
        <ele>1791</ele>
        <time>2022-08-27T12:40:02Z</time>
      </trkpt>
      <trkpt lat="44.88226" lon="5.51736">
        <ele>1788</ele>
        <time>2022-08-27T12:40:12Z</time>
      </trkpt>
      <trkpt lat="44.88225" lon="5.5173">
        <ele>1787</ele>
        <time>2022-08-27T12:40:15Z</time>
      </trkpt>
      <trkpt lat="44.8823" lon="5.51719">
        <ele>1785</ele>
        <time>2022-08-27T12:40:23Z</time>
      </trkpt>
      <trkpt lat="44.88234" lon="5.51715">
        <ele>1785</ele>
        <time>2022-08-27T12:40:27Z</time>
      </trkpt>
      <trkpt lat="44.88238" lon="5.51702">
        <ele>1784</ele>
        <time>2022-08-27T12:40:36Z</time>
      </trkpt>
      <trkpt lat="44.88236" lon="5.51693">
        <ele>1784</ele>
        <time>2022-08-27T12:40:45Z</time>
      </trkpt>
      <trkpt lat="44.88238" lon="5.51688">
        <ele>1782</ele>
        <time>2022-08-27T12:40:49Z</time>
      </trkpt>
      <trkpt lat="44.88239" lon="5.51682">
        <ele>1782</ele>
        <time>2022-08-27T12:40:53Z</time>
      </trkpt>
      <trkpt lat="44.88245" lon="5.51669">
        <ele>1780</ele>
        <time>2022-08-27T12:41:05Z</time>
      </trkpt>
      <trkpt lat="44.88255" lon="5.51665">
        <ele>1779</ele>
        <time>2022-08-27T12:41:22Z</time>
      </trkpt>
      <trkpt lat="44.88263" lon="5.5166">
        <ele>1778</ele>
        <time>2022-08-27T12:41:32Z</time>
      </trkpt>
      <trkpt lat="44.88272" lon="5.51648">
        <ele>1777</ele>
        <time>2022-08-27T12:42:03Z</time>
      </trkpt>
      <trkpt lat="44.88272" lon="5.5164">
        <ele>1775</ele>
        <time>2022-08-27T12:42:11Z</time>
      </trkpt>
      <trkpt lat="44.88261" lon="5.51623">
        <ele>1773</ele>
        <time>2022-08-27T12:42:30Z</time>
      </trkpt>
      <trkpt lat="44.88259" lon="5.51617">
        <ele>1771</ele>
        <time>2022-08-27T12:42:35Z</time>
      </trkpt>
      <trkpt lat="44.8826" lon="5.51609">
        <ele>1770</ele>
        <time>2022-08-27T12:42:43Z</time>
      </trkpt>
      <trkpt lat="44.88256" lon="5.51602">
        <ele>1768</ele>
        <time>2022-08-27T12:42:53Z</time>
      </trkpt>
      <trkpt lat="44.88252" lon="5.51596">
        <ele>1765</ele>
        <time>2022-08-27T12:43:03Z</time>
      </trkpt>
      <trkpt lat="44.88248" lon="5.51593">
        <ele>1764</ele>
        <time>2022-08-27T12:43:08Z</time>
      </trkpt>
      <trkpt lat="44.88245" lon="5.51589">
        <ele>1763</ele>
        <time>2022-08-27T12:43:13Z</time>
      </trkpt>
      <trkpt lat="44.88239" lon="5.51589">
        <ele>1762</ele>
        <time>2022-08-27T12:43:22Z</time>
      </trkpt>
      <trkpt lat="44.88229" lon="5.51584">
        <ele>1760</ele>
        <time>2022-08-27T12:43:38Z</time>
      </trkpt>
      <trkpt lat="44.88226" lon="5.5158">
        <ele>1758</ele>
        <time>2022-08-27T12:43:44Z</time>
      </trkpt>
      <trkpt lat="44.88229" lon="5.51575">
        <ele>1758</ele>
        <time>2022-08-27T12:43:49Z</time>
      </trkpt>
      <trkpt lat="44.88234" lon="5.5157">
        <ele>1756</ele>
        <time>2022-08-27T12:43:57Z</time>
      </trkpt>
      <trkpt lat="44.88244" lon="5.51561">
        <ele>1752</ele>
        <time>2022-08-27T12:44:13Z</time>
      </trkpt>
      <trkpt lat="44.8825" lon="5.51551">
        <ele>1750</ele>
        <time>2022-08-27T12:44:22Z</time>
      </trkpt>
      <trkpt lat="44.88269" lon="5.51528">
        <ele>1745</ele>
        <time>2022-08-27T12:44:49Z</time>
      </trkpt>
      <trkpt lat="44.88272" lon="5.51522">
        <ele>1744</ele>
        <time>2022-08-27T12:44:53Z</time>
      </trkpt>
      <trkpt lat="44.88276" lon="5.51519">
        <ele>1743</ele>
        <time>2022-08-27T12:44:57Z</time>
      </trkpt>
      <trkpt lat="44.88278" lon="5.51513">
        <ele>1743</ele>
        <time>2022-08-27T12:45:01Z</time>
      </trkpt>
      <trkpt lat="44.88273" lon="5.51509">
        <ele>1741</ele>
        <time>2022-08-27T12:45:15Z</time>
      </trkpt>
      <trkpt lat="44.88243" lon="5.51497">
        <ele>1736</ele>
        <time>2022-08-27T12:45:45Z</time>
      </trkpt>
      <trkpt lat="44.88248" lon="5.51488">
        <ele>1733</ele>
        <time>2022-08-27T12:45:58Z</time>
      </trkpt>
      <trkpt lat="44.88247" lon="5.51482">
        <ele>1732</ele>
        <time>2022-08-27T12:46:02Z</time>
      </trkpt>
      <trkpt lat="44.8825" lon="5.51474">
        <ele>1730</ele>
        <time>2022-08-27T12:46:10Z</time>
      </trkpt>
      <trkpt lat="44.8826" lon="5.51461">
        <ele>1728</ele>
        <time>2022-08-27T12:46:22Z</time>
      </trkpt>
      <trkpt lat="44.88262" lon="5.51454">
        <ele>1728</ele>
        <time>2022-08-27T12:46:25Z</time>
      </trkpt>
      <trkpt lat="44.88261" lon="5.51439">
        <ele>1725</ele>
        <time>2022-08-27T12:46:35Z</time>
      </trkpt>
      <trkpt lat="44.88262" lon="5.51426">
        <ele>1723</ele>
        <time>2022-08-27T12:46:43Z</time>
      </trkpt>
      <trkpt lat="44.88268" lon="5.5141">
        <ele>1721</ele>
        <time>2022-08-27T12:46:55Z</time>
      </trkpt>
      <trkpt lat="44.88277" lon="5.51395">
        <ele>1719</ele>
        <time>2022-08-27T12:47:06Z</time>
      </trkpt>
      <trkpt lat="44.88278" lon="5.51389">
        <ele>1718</ele>
        <time>2022-08-27T12:47:09Z</time>
      </trkpt>
      <trkpt lat="44.88279" lon="5.51376">
        <ele>1717</ele>
        <time>2022-08-27T12:47:17Z</time>
      </trkpt>
      <trkpt lat="44.8828" lon="5.5137">
        <ele>1716</ele>
        <time>2022-08-27T12:47:21Z</time>
      </trkpt>
      <trkpt lat="44.88286" lon="5.5136">
        <ele>1715</ele>
        <time>2022-08-27T12:47:29Z</time>
      </trkpt>
      <trkpt lat="44.88291" lon="5.51358">
        <ele>1714</ele>
        <time>2022-08-27T12:47:33Z</time>
      </trkpt>
      <trkpt lat="44.88307" lon="5.51338">
        <ele>1711</ele>
        <time>2022-08-27T12:47:51Z</time>
      </trkpt>
      <trkpt lat="44.88315" lon="5.51329">
        <ele>1710</ele>
        <time>2022-08-27T12:47:59Z</time>
      </trkpt>
      <trkpt lat="44.88316" lon="5.51322">
        <ele>1709</ele>
        <time>2022-08-27T12:48:03Z</time>
      </trkpt>
      <trkpt lat="44.88314" lon="5.51317">
        <ele>1708</ele>
        <time>2022-08-27T12:48:06Z</time>
      </trkpt>
      <trkpt lat="44.88313" lon="5.51289">
        <ele>1706</ele>
        <time>2022-08-27T12:48:23Z</time>
      </trkpt>
      <trkpt lat="44.88314" lon="5.51283">
        <ele>1705</ele>
        <time>2022-08-27T12:48:27Z</time>
      </trkpt>
      <trkpt lat="44.88317" lon="5.51279">
        <ele>1704</ele>
        <time>2022-08-27T12:48:31Z</time>
      </trkpt>
      <trkpt lat="44.88324" lon="5.51274">
        <ele>1703</ele>
        <time>2022-08-27T12:48:38Z</time>
      </trkpt>
      <trkpt lat="44.88327" lon="5.51269">
        <ele>1703</ele>
        <time>2022-08-27T12:48:42Z</time>
      </trkpt>
      <trkpt lat="44.88331" lon="5.51253">
        <ele>1701</ele>
        <time>2022-08-27T12:48:53Z</time>
      </trkpt>
      <trkpt lat="44.88335" lon="5.51249">
        <ele>1700</ele>
        <time>2022-08-27T12:48:57Z</time>
      </trkpt>
      <trkpt lat="44.88341" lon="5.51228">
        <ele>1697</ele>
        <time>2022-08-27T12:49:12Z</time>
      </trkpt>
      <trkpt lat="44.88348" lon="5.51216">
        <ele>1695</ele>
        <time>2022-08-27T12:49:22Z</time>
      </trkpt>
      <trkpt lat="44.88353" lon="5.512">
        <ele>1692</ele>
        <time>2022-08-27T12:49:35Z</time>
      </trkpt>
      <trkpt lat="44.88356" lon="5.51181">
        <ele>1689</ele>
        <time>2022-08-27T12:49:47Z</time>
      </trkpt>
      <trkpt lat="44.88355" lon="5.51175">
        <ele>1688</ele>
        <time>2022-08-27T12:49:51Z</time>
      </trkpt>
      <trkpt lat="44.88359" lon="5.51165">
        <ele>1686</ele>
        <time>2022-08-27T12:49:58Z</time>
      </trkpt>
      <trkpt lat="44.88365" lon="5.51156">
        <ele>1685</ele>
        <time>2022-08-27T12:50:05Z</time>
      </trkpt>
      <trkpt lat="44.88362" lon="5.51152">
        <ele>1684</ele>
        <time>2022-08-27T12:50:08Z</time>
      </trkpt>
      <trkpt lat="44.88362" lon="5.51145">
        <ele>1683</ele>
        <time>2022-08-27T12:50:12Z</time>
      </trkpt>
      <trkpt lat="44.8837" lon="5.51115">
        <ele>1679</ele>
        <time>2022-08-27T12:50:31Z</time>
      </trkpt>
      <trkpt lat="44.88371" lon="5.51103">
        <ele>1677</ele>
        <time>2022-08-27T12:50:39Z</time>
      </trkpt>
      <trkpt lat="44.88374" lon="5.51097">
        <ele>1677</ele>
        <time>2022-08-27T12:50:43Z</time>
      </trkpt>
      <trkpt lat="44.88378" lon="5.51093">
        <ele>1676</ele>
        <time>2022-08-27T12:50:47Z</time>
      </trkpt>
      <trkpt lat="44.88378" lon="5.51087">
        <ele>1675</ele>
        <time>2022-08-27T12:50:51Z</time>
      </trkpt>
      <trkpt lat="44.8838" lon="5.51074">
        <ele>1673</ele>
        <time>2022-08-27T12:51:00Z</time>
      </trkpt>
      <trkpt lat="44.88376" lon="5.51069">
        <ele>1672</ele>
        <time>2022-08-27T12:51:04Z</time>
      </trkpt>
      <trkpt lat="44.88377" lon="5.51063">
        <ele>1671</ele>
        <time>2022-08-27T12:51:08Z</time>
      </trkpt>
      <trkpt lat="44.8838" lon="5.51059">
        <ele>1670</ele>
        <time>2022-08-27T12:51:12Z</time>
      </trkpt>
      <trkpt lat="44.88382" lon="5.51045">
        <ele>1669</ele>
        <time>2022-08-27T12:51:21Z</time>
      </trkpt>
      <trkpt lat="44.88385" lon="5.51037">
        <ele>1668</ele>
        <time>2022-08-27T12:51:27Z</time>
      </trkpt>
      <trkpt lat="44.88383" lon="5.51024">
        <ele>1666</ele>
        <time>2022-08-27T12:51:36Z</time>
      </trkpt>
      <trkpt lat="44.88387" lon="5.51011">
        <ele>1664</ele>
        <time>2022-08-27T12:51:48Z</time>
      </trkpt>
      <trkpt lat="44.88391" lon="5.51007">
        <ele>1663</ele>
        <time>2022-08-27T12:51:52Z</time>
      </trkpt>
      <trkpt lat="44.88393" lon="5.51002">
        <ele>1662</ele>
        <time>2022-08-27T12:51:56Z</time>
      </trkpt>
      <trkpt lat="44.88396" lon="5.50995">
        <ele>1662</ele>
        <time>2022-08-27T12:52:02Z</time>
      </trkpt>
      <trkpt lat="44.884" lon="5.50988">
        <ele>1660</ele>
        <time>2022-08-27T12:52:09Z</time>
      </trkpt>
      <trkpt lat="44.88419" lon="5.50968">
        <ele>1655</ele>
        <time>2022-08-27T12:52:32Z</time>
      </trkpt>
      <trkpt lat="44.88423" lon="5.50966">
        <ele>1654</ele>
        <time>2022-08-27T12:52:37Z</time>
      </trkpt>
      <trkpt lat="44.88426" lon="5.5096">
        <ele>1653</ele>
        <time>2022-08-27T12:52:41Z</time>
      </trkpt>
      <trkpt lat="44.88427" lon="5.50951">
        <ele>1653</ele>
        <time>2022-08-27T12:52:42Z</time>
      </trkpt>
      <trkpt lat="44.88424" lon="5.50946">
        <ele>1652</ele>
        <time>2022-08-27T12:52:46Z</time>
      </trkpt>
      <trkpt lat="44.88428" lon="5.50939">
        <ele>1651</ele>
        <time>2022-08-27T12:52:52Z</time>
      </trkpt>
      <trkpt lat="44.88433" lon="5.50939">
        <ele>1650</ele>
        <time>2022-08-27T12:52:55Z</time>
      </trkpt>
      <trkpt lat="44.88447" lon="5.50901">
        <ele>1643</ele>
        <time>2022-08-27T12:53:27Z</time>
      </trkpt>
      <trkpt lat="44.88453" lon="5.50876">
        <ele>1639</ele>
        <time>2022-08-27T12:53:45Z</time>
      </trkpt>
      <trkpt lat="44.88453" lon="5.50863">
        <ele>1638</ele>
        <time>2022-08-27T12:53:51Z</time>
      </trkpt>
      <trkpt lat="44.88451" lon="5.50857">
        <ele>1637</ele>
        <time>2022-08-27T12:53:56Z</time>
      </trkpt>
      <trkpt lat="44.88455" lon="5.50852">
        <ele>1637</ele>
        <time>2022-08-27T12:53:59Z</time>
      </trkpt>
      <trkpt lat="44.88457" lon="5.50845">
        <ele>1636</ele>
        <time>2022-08-27T12:54:03Z</time>
      </trkpt>
      <trkpt lat="44.88457" lon="5.5084">
        <ele>1635</ele>
        <time>2022-08-27T12:54:06Z</time>
      </trkpt>
      <trkpt lat="44.88459" lon="5.50834">
        <ele>1635</ele>
        <time>2022-08-27T12:54:10Z</time>
      </trkpt>
      <trkpt lat="44.88456" lon="5.50829">
        <ele>1634</ele>
        <time>2022-08-27T12:54:14Z</time>
      </trkpt>
      <trkpt lat="44.88462" lon="5.50818">
        <ele>1633</ele>
        <time>2022-08-27T12:54:22Z</time>
      </trkpt>
      <trkpt lat="44.88464" lon="5.50812">
        <ele>1632</ele>
        <time>2022-08-27T12:54:27Z</time>
      </trkpt>
      <trkpt lat="44.88465" lon="5.50806">
        <ele>1632</ele>
        <time>2022-08-27T12:54:30Z</time>
      </trkpt>
      <trkpt lat="44.88464" lon="5.50799">
        <ele>1632</ele>
        <time>2022-08-27T12:54:34Z</time>
      </trkpt>
      <trkpt lat="44.88464" lon="5.50792">
        <ele>1631</ele>
        <time>2022-08-27T12:54:38Z</time>
      </trkpt>
      <trkpt lat="44.8847" lon="5.50771">
        <ele>1630</ele>
        <time>2022-08-27T12:54:50Z</time>
      </trkpt>
      <trkpt lat="44.8847" lon="5.50764">
        <ele>1629</ele>
        <time>2022-08-27T12:54:54Z</time>
      </trkpt>
      <trkpt lat="44.88472" lon="5.50758">
        <ele>1628</ele>
        <time>2022-08-27T12:54:58Z</time>
      </trkpt>
      <trkpt lat="44.88472" lon="5.50751">
        <ele>1628</ele>
        <time>2022-08-27T12:55:03Z</time>
      </trkpt>
      <trkpt lat="44.88478" lon="5.50723">
        <ele>1627</ele>
        <time>2022-08-27T12:55:30Z</time>
      </trkpt>
      <trkpt lat="44.88479" lon="5.50712">
        <ele>1626</ele>
        <time>2022-08-27T12:55:40Z</time>
      </trkpt>
      <trkpt lat="44.88482" lon="5.50707">
        <ele>1626</ele>
        <time>2022-08-27T12:55:45Z</time>
      </trkpt>
      <trkpt lat="44.88484" lon="5.50694">
        <ele>1626</ele>
        <time>2022-08-27T12:55:53Z</time>
      </trkpt>
      <trkpt lat="44.88482" lon="5.50688">
        <ele>1626</ele>
        <time>2022-08-27T12:55:58Z</time>
      </trkpt>
      <trkpt lat="44.88482" lon="5.5068">
        <ele>1626</ele>
        <time>2022-08-27T12:56:02Z</time>
      </trkpt>
      <trkpt lat="44.88486" lon="5.50667">
        <ele>1625</ele>
        <time>2022-08-27T12:56:15Z</time>
      </trkpt>
      <trkpt lat="44.88487" lon="5.50661">
        <ele>1625</ele>
        <time>2022-08-27T12:56:20Z</time>
      </trkpt>
      <trkpt lat="44.88488" lon="5.50654">
        <ele>1625</ele>
        <time>2022-08-27T12:56:25Z</time>
      </trkpt>
      <trkpt lat="44.88493" lon="5.50635">
        <ele>1624</ele>
        <time>2022-08-27T12:56:37Z</time>
      </trkpt>
      <trkpt lat="44.88495" lon="5.5063">
        <ele>1624</ele>
        <time>2022-08-27T12:56:42Z</time>
      </trkpt>
      <trkpt lat="44.88499" lon="5.50625">
        <ele>1625</ele>
        <time>2022-08-27T12:56:46Z</time>
      </trkpt>
      <trkpt lat="44.885" lon="5.50619">
        <ele>1625</ele>
        <time>2022-08-27T12:56:51Z</time>
      </trkpt>
      <trkpt lat="44.88499" lon="5.50611">
        <ele>1625</ele>
        <time>2022-08-27T12:56:56Z</time>
      </trkpt>
      <trkpt lat="44.88499" lon="5.50585">
        <ele>1621</ele>
        <time>2022-08-27T12:57:12Z</time>
      </trkpt>
      <trkpt lat="44.885" lon="5.50579">
        <ele>1621</ele>
        <time>2022-08-27T12:57:15Z</time>
      </trkpt>
      <trkpt lat="44.88503" lon="5.50576">
        <ele>1621</ele>
        <time>2022-08-27T12:57:18Z</time>
      </trkpt>
      <trkpt lat="44.88505" lon="5.50569">
        <ele>1621</ele>
        <time>2022-08-27T12:57:22Z</time>
      </trkpt>
      <trkpt lat="44.88505" lon="5.50564">
        <ele>1620</ele>
        <time>2022-08-27T12:57:25Z</time>
      </trkpt>
      <trkpt lat="44.88506" lon="5.50557">
        <ele>1619</ele>
        <time>2022-08-27T12:57:29Z</time>
      </trkpt>
      <trkpt lat="44.88508" lon="5.50537">
        <ele>1619</ele>
        <time>2022-08-27T12:57:41Z</time>
      </trkpt>
      <trkpt lat="44.88513" lon="5.50509">
        <ele>1617</ele>
        <time>2022-08-27T12:57:57Z</time>
      </trkpt>
      <trkpt lat="44.88512" lon="5.50493">
        <ele>1616</ele>
        <time>2022-08-27T12:58:08Z</time>
      </trkpt>
      <trkpt lat="44.88513" lon="5.50487">
        <ele>1617</ele>
        <time>2022-08-27T12:58:12Z</time>
      </trkpt>
      <trkpt lat="44.88514" lon="5.50481">
        <ele>1617</ele>
        <time>2022-08-27T12:58:16Z</time>
      </trkpt>
      <trkpt lat="44.88511" lon="5.50456">
        <ele>1617</ele>
        <time>2022-08-27T12:58:33Z</time>
      </trkpt>
      <trkpt lat="44.88509" lon="5.5045">
        <ele>1617</ele>
        <time>2022-08-27T12:58:38Z</time>
      </trkpt>
      <trkpt lat="44.88506" lon="5.50445">
        <ele>1617</ele>
        <time>2022-08-27T12:58:42Z</time>
      </trkpt>
      <trkpt lat="44.88507" lon="5.50435">
        <ele>1617</ele>
        <time>2022-08-27T12:58:50Z</time>
      </trkpt>
      <trkpt lat="44.88509" lon="5.5043">
        <ele>1617</ele>
        <time>2022-08-27T12:58:55Z</time>
      </trkpt>
      <trkpt lat="44.8851" lon="5.50424">
        <ele>1617</ele>
        <time>2022-08-27T12:59:00Z</time>
      </trkpt>
      <trkpt lat="44.88511" lon="5.50407">
        <ele>1618</ele>
        <time>2022-08-27T12:59:13Z</time>
      </trkpt>
      <trkpt lat="44.88507" lon="5.50362">
        <ele>1621</ele>
        <time>2022-08-27T12:59:46Z</time>
      </trkpt>
      <trkpt lat="44.88506" lon="5.50324">
        <ele>1624</ele>
        <time>2022-08-27T13:00:18Z</time>
      </trkpt>
      <trkpt lat="44.88509" lon="5.50329">
        <ele>1624</ele>
        <time>2022-08-27T13:00:24Z</time>
      </trkpt>
      <trkpt lat="44.88513" lon="5.50323">
        <ele>1624</ele>
        <time>2022-08-27T13:00:31Z</time>
      </trkpt>
      <trkpt lat="44.88518" lon="5.50318">
        <ele>1625</ele>
        <time>2022-08-27T13:00:38Z</time>
      </trkpt>
      <trkpt lat="44.88523" lon="5.50308">
        <ele>1626</ele>
        <time>2022-08-27T13:00:48Z</time>
      </trkpt>
      <trkpt lat="44.88524" lon="5.50302">
        <ele>1626</ele>
        <time>2022-08-27T13:00:53Z</time>
      </trkpt>
      <trkpt lat="44.88522" lon="5.50296">
        <ele>1626</ele>
        <time>2022-08-27T13:00:57Z</time>
      </trkpt>
      <trkpt lat="44.88523" lon="5.50289">
        <ele>1625</ele>
        <time>2022-08-27T13:01:01Z</time>
      </trkpt>
      <trkpt lat="44.88526" lon="5.50277">
        <ele>1625</ele>
        <time>2022-08-27T13:01:10Z</time>
      </trkpt>
      <trkpt lat="44.88527" lon="5.50268">
        <ele>1625</ele>
        <time>2022-08-27T13:01:23Z</time>
      </trkpt>
      <trkpt lat="44.88529" lon="5.50262">
        <ele>1625</ele>
        <time>2022-08-27T13:01:27Z</time>
      </trkpt>
      <trkpt lat="44.88531" lon="5.5025">
        <ele>1624</ele>
        <time>2022-08-27T13:01:35Z</time>
      </trkpt>
      <trkpt lat="44.88532" lon="5.50243">
        <ele>1624</ele>
        <time>2022-08-27T13:01:39Z</time>
      </trkpt>
      <trkpt lat="44.8853" lon="5.50238">
        <ele>1623</ele>
        <time>2022-08-27T13:01:44Z</time>
      </trkpt>
      <trkpt lat="44.88528" lon="5.50226">
        <ele>1623</ele>
        <time>2022-08-27T13:01:58Z</time>
      </trkpt>
      <trkpt lat="44.88528" lon="5.50215">
        <ele>1623</ele>
        <time>2022-08-27T13:02:05Z</time>
      </trkpt>
      <trkpt lat="44.88528" lon="5.50209">
        <ele>1623</ele>
        <time>2022-08-27T13:02:09Z</time>
      </trkpt>
      <trkpt lat="44.88523" lon="5.50192">
        <ele>1623</ele>
        <time>2022-08-27T13:02:21Z</time>
      </trkpt>
      <trkpt lat="44.88517" lon="5.50153">
        <ele>1626</ele>
        <time>2022-08-27T13:02:52Z</time>
      </trkpt>
      <trkpt lat="44.88516" lon="5.50146">
        <ele>1627</ele>
        <time>2022-08-27T13:02:57Z</time>
      </trkpt>
      <trkpt lat="44.88515" lon="5.50141">
        <ele>1627</ele>
        <time>2022-08-27T13:03:01Z</time>
      </trkpt>
      <trkpt lat="44.88514" lon="5.50116">
        <ele>1626</ele>
        <time>2022-08-27T13:03:17Z</time>
      </trkpt>
      <trkpt lat="44.88511" lon="5.50096">
        <ele>1625</ele>
        <time>2022-08-27T13:03:29Z</time>
      </trkpt>
      <trkpt lat="44.88511" lon="5.50088">
        <ele>1625</ele>
        <time>2022-08-27T13:03:36Z</time>
      </trkpt>
      <trkpt lat="44.88508" lon="5.5008">
        <ele>1624</ele>
        <time>2022-08-27T13:03:52Z</time>
      </trkpt>
      <trkpt lat="44.88508" lon="5.50074">
        <ele>1624</ele>
        <time>2022-08-27T13:03:56Z</time>
      </trkpt>
      <trkpt lat="44.88511" lon="5.50024">
        <ele>1619</ele>
        <time>2022-08-27T13:04:27Z</time>
      </trkpt>
      <trkpt lat="44.88512" lon="5.50018">
        <ele>1619</ele>
        <time>2022-08-27T13:04:31Z</time>
      </trkpt>
      <trkpt lat="44.88512" lon="5.50005">
        <ele>1617</ele>
        <time>2022-08-27T13:04:39Z</time>
      </trkpt>
      <trkpt lat="44.88515" lon="5.49987">
        <ele>1615</ele>
        <time>2022-08-27T13:04:51Z</time>
      </trkpt>
      <trkpt lat="44.88514" lon="5.4998">
        <ele>1614</ele>
        <time>2022-08-27T13:04:55Z</time>
      </trkpt>
      <trkpt lat="44.88516" lon="5.49948">
        <ele>1611</ele>
        <time>2022-08-27T13:05:15Z</time>
      </trkpt>
      <trkpt lat="44.88515" lon="5.49933">
        <ele>1610</ele>
        <time>2022-08-27T13:05:25Z</time>
      </trkpt>
      <trkpt lat="44.8852" lon="5.49908">
        <ele>1607</ele>
        <time>2022-08-27T13:05:41Z</time>
      </trkpt>
      <trkpt lat="44.88513" lon="5.49858">
        <ele>1600</ele>
        <time>2022-08-27T13:06:17Z</time>
      </trkpt>
      <trkpt lat="44.88511" lon="5.49834">
        <ele>1596</ele>
        <time>2022-08-27T13:06:35Z</time>
      </trkpt>
      <trkpt lat="44.8851" lon="5.49827">
        <ele>1595</ele>
        <time>2022-08-27T13:06:39Z</time>
      </trkpt>
      <trkpt lat="44.88505" lon="5.49817">
        <ele>1594</ele>
        <time>2022-08-27T13:06:47Z</time>
      </trkpt>
      <trkpt lat="44.88503" lon="5.49805">
        <ele>1592</ele>
        <time>2022-08-27T13:06:55Z</time>
      </trkpt>
      <trkpt lat="44.88502" lon="5.49768">
        <ele>1587</ele>
        <time>2022-08-27T13:07:19Z</time>
      </trkpt>
      <trkpt lat="44.88501" lon="5.49762">
        <ele>1586</ele>
        <time>2022-08-27T13:07:23Z</time>
      </trkpt>
      <trkpt lat="44.88501" lon="5.49713">
        <ele>1578</ele>
        <time>2022-08-27T13:07:54Z</time>
      </trkpt>
      <trkpt lat="44.88499" lon="5.49668">
        <ele>1574</ele>
        <time>2022-08-27T13:08:20Z</time>
      </trkpt>
      <trkpt lat="44.88498" lon="5.49662">
        <ele>1574</ele>
        <time>2022-08-27T13:08:23Z</time>
      </trkpt>
      <trkpt lat="44.88494" lon="5.49656">
        <ele>1573</ele>
        <time>2022-08-27T13:08:27Z</time>
      </trkpt>
      <trkpt lat="44.88493" lon="5.4965">
        <ele>1573</ele>
        <time>2022-08-27T13:08:31Z</time>
      </trkpt>
      <trkpt lat="44.88489" lon="5.49646">
        <ele>1573</ele>
        <time>2022-08-27T13:08:35Z</time>
      </trkpt>
      <trkpt lat="44.88481" lon="5.49642">
        <ele>1573</ele>
        <time>2022-08-27T13:08:42Z</time>
      </trkpt>
      <trkpt lat="44.88476" lon="5.49642">
        <ele>1573</ele>
        <time>2022-08-27T13:08:46Z</time>
      </trkpt>
      <trkpt lat="44.88473" lon="5.49638">
        <ele>1573</ele>
        <time>2022-08-27T13:08:49Z</time>
      </trkpt>
      <trkpt lat="44.88471" lon="5.49634">
        <ele>1573</ele>
        <time>2022-08-27T13:08:52Z</time>
      </trkpt>
      <trkpt lat="44.88471" lon="5.49628">
        <ele>1573</ele>
        <time>2022-08-27T13:08:56Z</time>
      </trkpt>
      <trkpt lat="44.88477" lon="5.4959">
        <ele>1569</ele>
        <time>2022-08-27T13:09:24Z</time>
      </trkpt>
      <trkpt lat="44.88479" lon="5.49584">
        <ele>1568</ele>
        <time>2022-08-27T13:09:29Z</time>
      </trkpt>
      <trkpt lat="44.8848" lon="5.49571">
        <ele>1567</ele>
        <time>2022-08-27T13:09:38Z</time>
      </trkpt>
      <trkpt lat="44.88478" lon="5.49558">
        <ele>1565</ele>
        <time>2022-08-27T13:09:46Z</time>
      </trkpt>
      <trkpt lat="44.88482" lon="5.49511">
        <ele>1560</ele>
        <time>2022-08-27T13:10:18Z</time>
      </trkpt>
      <trkpt lat="44.88484" lon="5.49504">
        <ele>1559</ele>
        <time>2022-08-27T13:10:22Z</time>
      </trkpt>
      <trkpt lat="44.88487" lon="5.4949">
        <ele>1558</ele>
        <time>2022-08-27T13:10:30Z</time>
      </trkpt>
      <trkpt lat="44.88485" lon="5.49478">
        <ele>1557</ele>
        <time>2022-08-27T13:10:37Z</time>
      </trkpt>
      <trkpt lat="44.88484" lon="5.49471">
        <ele>1557</ele>
        <time>2022-08-27T13:10:41Z</time>
      </trkpt>
      <trkpt lat="44.88483" lon="5.49451">
        <ele>1557</ele>
        <time>2022-08-27T13:10:53Z</time>
      </trkpt>
      <trkpt lat="44.88481" lon="5.49421">
        <ele>1559</ele>
        <time>2022-08-27T13:11:11Z</time>
      </trkpt>
      <trkpt lat="44.88478" lon="5.49408">
        <ele>1559</ele>
        <time>2022-08-27T13:11:20Z</time>
      </trkpt>
      <trkpt lat="44.88477" lon="5.49389">
        <ele>1557</ele>
        <time>2022-08-27T13:11:32Z</time>
      </trkpt>
      <trkpt lat="44.88478" lon="5.49383">
        <ele>1556</ele>
        <time>2022-08-27T13:11:36Z</time>
      </trkpt>
      <trkpt lat="44.8848" lon="5.49374">
        <ele>1556</ele>
        <time>2022-08-27T13:11:43Z</time>
      </trkpt>
      <trkpt lat="44.8848" lon="5.49368">
        <ele>1556</ele>
        <time>2022-08-27T13:11:48Z</time>
      </trkpt>
      <trkpt lat="44.8848" lon="5.4936">
        <ele>1556</ele>
        <time>2022-08-27T13:11:53Z</time>
      </trkpt>
      <trkpt lat="44.88484" lon="5.49343">
        <ele>1557</ele>
        <time>2022-08-27T13:12:07Z</time>
      </trkpt>
      <trkpt lat="44.88485" lon="5.49324">
        <ele>1557</ele>
        <time>2022-08-27T13:12:18Z</time>
      </trkpt>
      <trkpt lat="44.88483" lon="5.493">
        <ele>1557</ele>
        <time>2022-08-27T13:12:57Z</time>
      </trkpt>
      <trkpt lat="44.88483" lon="5.49291">
        <ele>1557</ele>
        <time>2022-08-27T13:13:03Z</time>
      </trkpt>
      <trkpt lat="44.88487" lon="5.49271">
        <ele>1557</ele>
        <time>2022-08-27T13:13:16Z</time>
      </trkpt>
      <trkpt lat="44.88489" lon="5.49243">
        <ele>1559</ele>
        <time>2022-08-27T13:13:36Z</time>
      </trkpt>
      <trkpt lat="44.8849" lon="5.49237">
        <ele>1559</ele>
        <time>2022-08-27T13:13:40Z</time>
      </trkpt>
      <trkpt lat="44.8849" lon="5.49225">
        <ele>1560</ele>
        <time>2022-08-27T13:13:48Z</time>
      </trkpt>
      <trkpt lat="44.88494" lon="5.49213">
        <ele>1561</ele>
        <time>2022-08-27T13:13:56Z</time>
      </trkpt>
      <trkpt lat="44.88496" lon="5.49206">
        <ele>1561</ele>
        <time>2022-08-27T13:14:00Z</time>
      </trkpt>
      <trkpt lat="44.88498" lon="5.49201">
        <ele>1561</ele>
        <time>2022-08-27T13:14:03Z</time>
      </trkpt>
      <trkpt lat="44.88499" lon="5.49194">
        <ele>1561</ele>
        <time>2022-08-27T13:14:07Z</time>
      </trkpt>
      <trkpt lat="44.88496" lon="5.49181">
        <ele>1561</ele>
        <time>2022-08-27T13:14:15Z</time>
      </trkpt>
      <trkpt lat="44.88491" lon="5.49168">
        <ele>1562</ele>
        <time>2022-08-27T13:14:23Z</time>
      </trkpt>
      <trkpt lat="44.8849" lon="5.49156">
        <ele>1561</ele>
        <time>2022-08-27T13:14:30Z</time>
      </trkpt>
      <trkpt lat="44.8849" lon="5.4915">
        <ele>1561</ele>
        <time>2022-08-27T13:14:34Z</time>
      </trkpt>
      <trkpt lat="44.88491" lon="5.49122">
        <ele>1561</ele>
        <time>2022-08-27T13:14:50Z</time>
      </trkpt>
      <trkpt lat="44.88496" lon="5.49096">
        <ele>1561</ele>
        <time>2022-08-27T13:15:06Z</time>
      </trkpt>
      <trkpt lat="44.88496" lon="5.49089">
        <ele>1561</ele>
        <time>2022-08-27T13:15:10Z</time>
      </trkpt>
      <trkpt lat="44.88498" lon="5.49081">
        <ele>1561</ele>
        <time>2022-08-27T13:15:14Z</time>
      </trkpt>
      <trkpt lat="44.88498" lon="5.49055">
        <ele>1560</ele>
        <time>2022-08-27T13:15:28Z</time>
      </trkpt>
      <trkpt lat="44.88501" lon="5.49042">
        <ele>1560</ele>
        <time>2022-08-27T13:15:36Z</time>
      </trkpt>
      <trkpt lat="44.88504" lon="5.49028">
        <ele>1560</ele>
        <time>2022-08-27T13:15:44Z</time>
      </trkpt>
      <trkpt lat="44.88504" lon="5.49016">
        <ele>1560</ele>
        <time>2022-08-27T13:15:52Z</time>
      </trkpt>
      <trkpt lat="44.88505" lon="5.49008">
        <ele>1560</ele>
        <time>2022-08-27T13:15:56Z</time>
      </trkpt>
      <trkpt lat="44.88504" lon="5.49002">
        <ele>1560</ele>
        <time>2022-08-27T13:16:00Z</time>
      </trkpt>
      <trkpt lat="44.88505" lon="5.48989">
        <ele>1560</ele>
        <time>2022-08-27T13:16:07Z</time>
      </trkpt>
      <trkpt lat="44.88505" lon="5.48982">
        <ele>1560</ele>
        <time>2022-08-27T13:16:11Z</time>
      </trkpt>
      <trkpt lat="44.88507" lon="5.48963">
        <ele>1560</ele>
        <time>2022-08-27T13:16:21Z</time>
      </trkpt>
      <trkpt lat="44.88502" lon="5.48951">
        <ele>1560</ele>
        <time>2022-08-27T13:16:28Z</time>
      </trkpt>
      <trkpt lat="44.8848" lon="5.48913">
        <ele>1558</ele>
        <time>2022-08-27T13:16:54Z</time>
      </trkpt>
      <trkpt lat="44.88474" lon="5.48904">
        <ele>1559</ele>
        <time>2022-08-27T13:17:02Z</time>
      </trkpt>
      <trkpt lat="44.88467" lon="5.48885">
        <ele>1559</ele>
        <time>2022-08-27T13:17:14Z</time>
      </trkpt>
      <trkpt lat="44.88449" lon="5.4884">
        <ele>1557</ele>
        <time>2022-08-27T13:17:41Z</time>
      </trkpt>
      <trkpt lat="44.88429" lon="5.48813">
        <ele>1556</ele>
        <time>2022-08-27T13:18:01Z</time>
      </trkpt>
      <trkpt lat="44.88424" lon="5.4881">
        <ele>1555</ele>
        <time>2022-08-27T13:18:06Z</time>
      </trkpt>
      <trkpt lat="44.8842" lon="5.48808">
        <ele>1555</ele>
        <time>2022-08-27T13:18:09Z</time>
      </trkpt>
      <trkpt lat="44.88415" lon="5.48809">
        <ele>1554</ele>
        <time>2022-08-27T13:18:13Z</time>
      </trkpt>
      <trkpt lat="44.88406" lon="5.48801">
        <ele>1554</ele>
        <time>2022-08-27T13:18:20Z</time>
      </trkpt>
      <trkpt lat="44.88401" lon="5.48799">
        <ele>1553</ele>
        <time>2022-08-27T13:18:25Z</time>
      </trkpt>
      <trkpt lat="44.88385" lon="5.48785">
        <ele>1551</ele>
        <time>2022-08-27T13:18:39Z</time>
      </trkpt>
      <trkpt lat="44.88378" lon="5.48777">
        <ele>1551</ele>
        <time>2022-08-27T13:18:46Z</time>
      </trkpt>
      <trkpt lat="44.88366" lon="5.48769">
        <ele>1550</ele>
        <time>2022-08-27T13:18:56Z</time>
      </trkpt>
      <trkpt lat="44.88359" lon="5.48759">
        <ele>1550</ele>
        <time>2022-08-27T13:19:04Z</time>
      </trkpt>
      <trkpt lat="44.88357" lon="5.48752">
        <ele>1550</ele>
        <time>2022-08-27T13:19:08Z</time>
      </trkpt>
      <trkpt lat="44.88354" lon="5.48746">
        <ele>1549</ele>
        <time>2022-08-27T13:19:13Z</time>
      </trkpt>
      <trkpt lat="44.88351" lon="5.4872">
        <ele>1547</ele>
        <time>2022-08-27T13:19:27Z</time>
      </trkpt>
      <trkpt lat="44.88349" lon="5.48714">
        <ele>1546</ele>
        <time>2022-08-27T13:19:31Z</time>
      </trkpt>
      <trkpt lat="44.88346" lon="5.48708">
        <ele>1545</ele>
        <time>2022-08-27T13:19:35Z</time>
      </trkpt>
      <trkpt lat="44.88336" lon="5.48698">
        <ele>1544</ele>
        <time>2022-08-27T13:19:44Z</time>
      </trkpt>
      <trkpt lat="44.88316" lon="5.4865">
        <ele>1539</ele>
        <time>2022-08-27T13:20:15Z</time>
      </trkpt>
      <trkpt lat="44.88305" lon="5.48602">
        <ele>1535</ele>
        <time>2022-08-27T13:20:43Z</time>
      </trkpt>
      <trkpt lat="44.88298" lon="5.48543">
        <ele>1530</ele>
        <time>2022-08-27T13:21:16Z</time>
      </trkpt>
      <trkpt lat="44.88289" lon="5.48495">
        <ele>1527</ele>
        <time>2022-08-27T13:21:43Z</time>
      </trkpt>
      <trkpt lat="44.88282" lon="5.48477">
        <ele>1526</ele>
        <time>2022-08-27T13:21:54Z</time>
      </trkpt>
      <trkpt lat="44.88275" lon="5.48447">
        <ele>1525</ele>
        <time>2022-08-27T13:22:10Z</time>
      </trkpt>
      <trkpt lat="44.88274" lon="5.48441">
        <ele>1525</ele>
        <time>2022-08-27T13:22:14Z</time>
      </trkpt>
      <trkpt lat="44.88271" lon="5.48422">
        <ele>1525</ele>
        <time>2022-08-27T13:22:25Z</time>
      </trkpt>
      <trkpt lat="44.88269" lon="5.48416">
        <ele>1525</ele>
        <time>2022-08-27T13:22:28Z</time>
      </trkpt>
      <trkpt lat="44.88251" lon="5.48386">
        <ele>1524</ele>
        <time>2022-08-27T13:22:48Z</time>
      </trkpt>
      <trkpt lat="44.88247" lon="5.48382">
        <ele>1524</ele>
        <time>2022-08-27T13:22:52Z</time>
      </trkpt>
      <trkpt lat="44.88243" lon="5.48377">
        <ele>1523</ele>
        <time>2022-08-27T13:22:56Z</time>
      </trkpt>
      <trkpt lat="44.88238" lon="5.48374">
        <ele>1523</ele>
        <time>2022-08-27T13:23:00Z</time>
      </trkpt>
      <trkpt lat="44.88235" lon="5.48369">
        <ele>1523</ele>
        <time>2022-08-27T13:23:03Z</time>
      </trkpt>
      <trkpt lat="44.88225" lon="5.48358">
        <ele>1523</ele>
        <time>2022-08-27T13:23:13Z</time>
      </trkpt>
      <trkpt lat="44.88211" lon="5.4835">
        <ele>1523</ele>
        <time>2022-08-27T13:23:25Z</time>
      </trkpt>
      <trkpt lat="44.88207" lon="5.48346">
        <ele>1523</ele>
        <time>2022-08-27T13:23:29Z</time>
      </trkpt>
      <trkpt lat="44.88203" lon="5.48344">
        <ele>1523</ele>
        <time>2022-08-27T13:23:33Z</time>
      </trkpt>
      <trkpt lat="44.88193" lon="5.48338">
        <ele>1523</ele>
        <time>2022-08-27T13:23:41Z</time>
      </trkpt>
      <trkpt lat="44.88188" lon="5.48336">
        <ele>1523</ele>
        <time>2022-08-27T13:23:45Z</time>
      </trkpt>
      <trkpt lat="44.88175" lon="5.48333">
        <ele>1524</ele>
        <time>2022-08-27T13:23:56Z</time>
      </trkpt>
      <trkpt lat="44.8817" lon="5.48329">
        <ele>1524</ele>
        <time>2022-08-27T13:24:00Z</time>
      </trkpt>
      <trkpt lat="44.88155" lon="5.48324">
        <ele>1525</ele>
        <time>2022-08-27T13:24:13Z</time>
      </trkpt>
      <trkpt lat="44.88151" lon="5.48325">
        <ele>1525</ele>
        <time>2022-08-27T13:24:17Z</time>
      </trkpt>
      <trkpt lat="44.88146" lon="5.48324">
        <ele>1525</ele>
        <time>2022-08-27T13:24:21Z</time>
      </trkpt>
      <trkpt lat="44.88141" lon="5.48321">
        <ele>1525</ele>
        <time>2022-08-27T13:24:25Z</time>
      </trkpt>
      <trkpt lat="44.88133" lon="5.48315">
        <ele>1524</ele>
        <time>2022-08-27T13:24:32Z</time>
      </trkpt>
      <trkpt lat="44.88123" lon="5.48309">
        <ele>1524</ele>
        <time>2022-08-27T13:24:40Z</time>
      </trkpt>
      <trkpt lat="44.88113" lon="5.48307">
        <ele>1524</ele>
        <time>2022-08-27T13:24:48Z</time>
      </trkpt>
      <trkpt lat="44.88099" lon="5.483">
        <ele>1525</ele>
        <time>2022-08-27T13:24:59Z</time>
      </trkpt>
      <trkpt lat="44.88095" lon="5.48299">
        <ele>1525</ele>
        <time>2022-08-27T13:25:03Z</time>
      </trkpt>
      <trkpt lat="44.88091" lon="5.48296">
        <ele>1525</ele>
        <time>2022-08-27T13:25:07Z</time>
      </trkpt>
      <trkpt lat="44.88075" lon="5.48281">
        <ele>1526</ele>
        <time>2022-08-27T13:25:23Z</time>
      </trkpt>
      <trkpt lat="44.88057" lon="5.48275">
        <ele>1527</ele>
        <time>2022-08-27T13:25:39Z</time>
      </trkpt>
      <trkpt lat="44.88025" lon="5.48249">
        <ele>1529</ele>
        <time>2022-08-27T13:26:12Z</time>
      </trkpt>
      <trkpt lat="44.88021" lon="5.48247">
        <ele>1529</ele>
        <time>2022-08-27T13:26:16Z</time>
      </trkpt>
      <trkpt lat="44.88012" lon="5.48242">
        <ele>1528</ele>
        <time>2022-08-27T13:26:23Z</time>
      </trkpt>
      <trkpt lat="44.87993" lon="5.48224">
        <ele>1525</ele>
        <time>2022-08-27T13:26:42Z</time>
      </trkpt>
      <trkpt lat="44.87983" lon="5.4821">
        <ele>1524</ele>
        <time>2022-08-27T13:26:53Z</time>
      </trkpt>
      <trkpt lat="44.87978" lon="5.48206">
        <ele>1524</ele>
        <time>2022-08-27T13:26:58Z</time>
      </trkpt>
      <trkpt lat="44.87966" lon="5.48183">
        <ele>1522</ele>
        <time>2022-08-27T13:27:13Z</time>
      </trkpt>
      <trkpt lat="44.87961" lon="5.48164">
        <ele>1522</ele>
        <time>2022-08-27T13:27:24Z</time>
      </trkpt>
      <trkpt lat="44.87955" lon="5.48147">
        <ele>1521</ele>
        <time>2022-08-27T13:27:35Z</time>
      </trkpt>
      <trkpt lat="44.87951" lon="5.48143">
        <ele>1520</ele>
        <time>2022-08-27T13:27:39Z</time>
      </trkpt>
      <trkpt lat="44.87946" lon="5.48145">
        <ele>1519</ele>
        <time>2022-08-27T13:27:43Z</time>
      </trkpt>
      <trkpt lat="44.87944" lon="5.48152">
        <ele>1519</ele>
        <time>2022-08-27T13:27:46Z</time>
      </trkpt>
      <trkpt lat="44.87945" lon="5.48158">
        <ele>1519</ele>
        <time>2022-08-27T13:27:49Z</time>
      </trkpt>
      <trkpt lat="44.87944" lon="5.48177">
        <ele>1517</ele>
        <time>2022-08-27T13:27:59Z</time>
      </trkpt>
      <trkpt lat="44.87946" lon="5.48183">
        <ele>1517</ele>
        <time>2022-08-27T13:28:03Z</time>
      </trkpt>
      <trkpt lat="44.87945" lon="5.4819">
        <ele>1516</ele>
        <time>2022-08-27T13:28:08Z</time>
      </trkpt>
      <trkpt lat="44.87941" lon="5.48194">
        <ele>1516</ele>
        <time>2022-08-27T13:28:12Z</time>
      </trkpt>
      <trkpt lat="44.87938" lon="5.48197">
        <ele>1515</ele>
        <time>2022-08-27T13:28:16Z</time>
      </trkpt>
      <trkpt lat="44.87933" lon="5.48194">
        <ele>1515</ele>
        <time>2022-08-27T13:28:20Z</time>
      </trkpt>
      <trkpt lat="44.87928" lon="5.4819">
        <ele>1514</ele>
        <time>2022-08-27T13:28:24Z</time>
      </trkpt>
      <trkpt lat="44.87922" lon="5.48188">
        <ele>1513</ele>
        <time>2022-08-27T13:28:31Z</time>
      </trkpt>
      <trkpt lat="44.87912" lon="5.48197">
        <ele>1511</ele>
        <time>2022-08-27T13:28:41Z</time>
      </trkpt>
      <trkpt lat="44.87911" lon="5.48204">
        <ele>1510</ele>
        <time>2022-08-27T13:28:46Z</time>
      </trkpt>
      <trkpt lat="44.87909" lon="5.48209">
        <ele>1509</ele>
        <time>2022-08-27T13:28:50Z</time>
      </trkpt>
      <trkpt lat="44.87906" lon="5.48214">
        <ele>1507</ele>
        <time>2022-08-27T13:28:54Z</time>
      </trkpt>
      <trkpt lat="44.87901" lon="5.48217">
        <ele>1507</ele>
        <time>2022-08-27T13:28:58Z</time>
      </trkpt>
      <trkpt lat="44.87897" lon="5.48221">
        <ele>1506</ele>
        <time>2022-08-27T13:29:02Z</time>
      </trkpt>
      <trkpt lat="44.87893" lon="5.48223">
        <ele>1505</ele>
        <time>2022-08-27T13:29:07Z</time>
      </trkpt>
      <trkpt lat="44.87889" lon="5.48219">
        <ele>1504</ele>
        <time>2022-08-27T13:29:11Z</time>
      </trkpt>
      <trkpt lat="44.87877" lon="5.48192">
        <ele>1501</ele>
        <time>2022-08-27T13:29:28Z</time>
      </trkpt>
      <trkpt lat="44.87875" lon="5.48185">
        <ele>1500</ele>
        <time>2022-08-27T13:29:32Z</time>
      </trkpt>
      <trkpt lat="44.87872" lon="5.48166">
        <ele>1500</ele>
        <time>2022-08-27T13:29:44Z</time>
      </trkpt>
      <trkpt lat="44.87867" lon="5.48154">
        <ele>1500</ele>
        <time>2022-08-27T13:29:51Z</time>
      </trkpt>
      <trkpt lat="44.87864" lon="5.48149">
        <ele>1500</ele>
        <time>2022-08-27T13:29:55Z</time>
      </trkpt>
      <trkpt lat="44.87861" lon="5.48144">
        <ele>1500</ele>
        <time>2022-08-27T13:29:59Z</time>
      </trkpt>
      <trkpt lat="44.87857" lon="5.48129">
        <ele>1498</ele>
        <time>2022-08-27T13:30:09Z</time>
      </trkpt>
      <trkpt lat="44.87851" lon="5.48119">
        <ele>1497</ele>
        <time>2022-08-27T13:30:16Z</time>
      </trkpt>
      <trkpt lat="44.87848" lon="5.48116">
        <ele>1497</ele>
        <time>2022-08-27T13:30:19Z</time>
      </trkpt>
      <trkpt lat="44.87842" lon="5.4811">
        <ele>1497</ele>
        <time>2022-08-27T13:30:25Z</time>
      </trkpt>
      <trkpt lat="44.8784" lon="5.48103">
        <ele>1495</ele>
        <time>2022-08-27T13:30:29Z</time>
      </trkpt>
      <trkpt lat="44.87837" lon="5.48095">
        <ele>1495</ele>
        <time>2022-08-27T13:30:36Z</time>
      </trkpt>
      <trkpt lat="44.87836" lon="5.48087">
        <ele>1495</ele>
        <time>2022-08-27T13:30:48Z</time>
      </trkpt>
      <trkpt lat="44.87838" lon="5.48073">
        <ele>1495</ele>
        <time>2022-08-27T13:30:56Z</time>
      </trkpt>
      <trkpt lat="44.87851" lon="5.48021">
        <ele>1493</ele>
        <time>2022-08-27T13:31:28Z</time>
      </trkpt>
      <trkpt lat="44.87866" lon="5.47977">
        <ele>1491</ele>
        <time>2022-08-27T13:31:55Z</time>
      </trkpt>
      <trkpt lat="44.87875" lon="5.47923">
        <ele>1489</ele>
        <time>2022-08-27T13:32:28Z</time>
      </trkpt>
      <trkpt lat="44.87875" lon="5.47916">
        <ele>1489</ele>
        <time>2022-08-27T13:32:33Z</time>
      </trkpt>
      <trkpt lat="44.87875" lon="5.47868">
        <ele>1488</ele>
        <time>2022-08-27T13:33:01Z</time>
      </trkpt>
      <trkpt lat="44.87878" lon="5.47848">
        <ele>1487</ele>
        <time>2022-08-27T13:33:13Z</time>
      </trkpt>
      <trkpt lat="44.87879" lon="5.4782">
        <ele>1486</ele>
        <time>2022-08-27T13:33:29Z</time>
      </trkpt>
      <trkpt lat="44.87881" lon="5.47813">
        <ele>1486</ele>
        <time>2022-08-27T13:33:34Z</time>
      </trkpt>
      <trkpt lat="44.87881" lon="5.47757">
        <ele>1484</ele>
        <time>2022-08-27T13:34:05Z</time>
      </trkpt>
      <trkpt lat="44.87883" lon="5.47744">
        <ele>1484</ele>
        <time>2022-08-27T13:34:14Z</time>
      </trkpt>
      <trkpt lat="44.87891" lon="5.47721">
        <ele>1483</ele>
        <time>2022-08-27T13:34:29Z</time>
      </trkpt>
      <trkpt lat="44.87894" lon="5.47716">
        <ele>1483</ele>
        <time>2022-08-27T13:34:32Z</time>
      </trkpt>
      <trkpt lat="44.87908" lon="5.47664">
        <ele>1481</ele>
        <time>2022-08-27T13:35:04Z</time>
      </trkpt>
      <trkpt lat="44.87924" lon="5.47612">
        <ele>1479</ele>
        <time>2022-08-27T13:35:37Z</time>
      </trkpt>
      <trkpt lat="44.87925" lon="5.47606">
        <ele>1479</ele>
        <time>2022-08-27T13:35:41Z</time>
      </trkpt>
      <trkpt lat="44.87929" lon="5.47595">
        <ele>1479</ele>
        <time>2022-08-27T13:35:48Z</time>
      </trkpt>
      <trkpt lat="44.8793" lon="5.47588">
        <ele>1478</ele>
        <time>2022-08-27T13:35:52Z</time>
      </trkpt>
      <trkpt lat="44.87932" lon="5.47582">
        <ele>1478</ele>
        <time>2022-08-27T13:35:56Z</time>
      </trkpt>
      <trkpt lat="44.87938" lon="5.47549">
        <ele>1477</ele>
        <time>2022-08-27T13:36:16Z</time>
      </trkpt>
      <trkpt lat="44.8794" lon="5.47542">
        <ele>1477</ele>
        <time>2022-08-27T13:36:20Z</time>
      </trkpt>
      <trkpt lat="44.87947" lon="5.47502">
        <ele>1476</ele>
        <time>2022-08-27T13:36:45Z</time>
      </trkpt>
      <trkpt lat="44.87955" lon="5.47477">
        <ele>1475</ele>
        <time>2022-08-27T13:37:01Z</time>
      </trkpt>
      <trkpt lat="44.87961" lon="5.47437">
        <ele>1474</ele>
        <time>2022-08-27T13:37:23Z</time>
      </trkpt>
      <trkpt lat="44.87961" lon="5.4743">
        <ele>1474</ele>
        <time>2022-08-27T13:37:28Z</time>
      </trkpt>
      <trkpt lat="44.87964" lon="5.47412">
        <ele>1474</ele>
        <time>2022-08-27T13:37:40Z</time>
      </trkpt>
      <trkpt lat="44.87972" lon="5.47394">
        <ele>1473</ele>
        <time>2022-08-27T13:37:52Z</time>
      </trkpt>
      <trkpt lat="44.87996" lon="5.47354">
        <ele>1472</ele>
        <time>2022-08-27T13:38:22Z</time>
      </trkpt>
      <trkpt lat="44.87999" lon="5.47336">
        <ele>1472</ele>
        <time>2022-08-27T13:38:34Z</time>
      </trkpt>
      <trkpt lat="44.88001" lon="5.47329">
        <ele>1472</ele>
        <time>2022-08-27T13:38:38Z</time>
      </trkpt>
      <trkpt lat="44.88006" lon="5.47317">
        <ele>1471</ele>
        <time>2022-08-27T13:38:46Z</time>
      </trkpt>
      <trkpt lat="44.88009" lon="5.47311">
        <ele>1470</ele>
        <time>2022-08-27T13:38:50Z</time>
      </trkpt>
      <trkpt lat="44.88012" lon="5.47305">
        <ele>1470</ele>
        <time>2022-08-27T13:38:54Z</time>
      </trkpt>
      <trkpt lat="44.88014" lon="5.47299">
        <ele>1470</ele>
        <time>2022-08-27T13:38:58Z</time>
      </trkpt>
      <trkpt lat="44.88022" lon="5.47274">
        <ele>1470</ele>
        <time>2022-08-27T13:39:14Z</time>
      </trkpt>
      <trkpt lat="44.88023" lon="5.47254">
        <ele>1469</ele>
        <time>2022-08-27T13:39:25Z</time>
      </trkpt>
      <trkpt lat="44.88025" lon="5.47241">
        <ele>1468</ele>
        <time>2022-08-27T13:39:33Z</time>
      </trkpt>
      <trkpt lat="44.88027" lon="5.47235">
        <ele>1467</ele>
        <time>2022-08-27T13:39:37Z</time>
      </trkpt>
      <trkpt lat="44.88029" lon="5.47228">
        <ele>1467</ele>
        <time>2022-08-27T13:39:42Z</time>
      </trkpt>
      <trkpt lat="44.88043" lon="5.472">
        <ele>1465</ele>
        <time>2022-08-27T13:40:02Z</time>
      </trkpt>
      <trkpt lat="44.88046" lon="5.47195">
        <ele>1464</ele>
        <time>2022-08-27T13:40:05Z</time>
      </trkpt>
      <trkpt lat="44.88049" lon="5.47188">
        <ele>1464</ele>
        <time>2022-08-27T13:40:10Z</time>
      </trkpt>
      <trkpt lat="44.88074" lon="5.47142">
        <ele>1462</ele>
        <time>2022-08-27T13:40:43Z</time>
      </trkpt>
      <trkpt lat="44.88077" lon="5.47136">
        <ele>1462</ele>
        <time>2022-08-27T13:40:47Z</time>
      </trkpt>
      <trkpt lat="44.8808" lon="5.4713">
        <ele>1462</ele>
        <time>2022-08-27T13:40:51Z</time>
      </trkpt>
      <trkpt lat="44.88083" lon="5.47117">
        <ele>1461</ele>
        <time>2022-08-27T13:40:58Z</time>
      </trkpt>
      <trkpt lat="44.88086" lon="5.47113">
        <ele>1461</ele>
        <time>2022-08-27T13:41:02Z</time>
      </trkpt>
      <trkpt lat="44.88087" lon="5.47106">
        <ele>1461</ele>
        <time>2022-08-27T13:41:06Z</time>
      </trkpt>
      <trkpt lat="44.88095" lon="5.47082">
        <ele>1461</ele>
        <time>2022-08-27T13:41:22Z</time>
      </trkpt>
      <trkpt lat="44.88096" lon="5.47075">
        <ele>1461</ele>
        <time>2022-08-27T13:41:26Z</time>
      </trkpt>
      <trkpt lat="44.88104" lon="5.47044">
        <ele>1460</ele>
        <time>2022-08-27T13:41:45Z</time>
      </trkpt>
      <trkpt lat="44.88107" lon="5.47039">
        <ele>1460</ele>
        <time>2022-08-27T13:41:49Z</time>
      </trkpt>
      <trkpt lat="44.8811" lon="5.47031">
        <ele>1459</ele>
        <time>2022-08-27T13:41:54Z</time>
      </trkpt>
      <trkpt lat="44.88116" lon="5.4702">
        <ele>1459</ele>
        <time>2022-08-27T13:42:02Z</time>
      </trkpt>
      <trkpt lat="44.88117" lon="5.47013">
        <ele>1459</ele>
        <time>2022-08-27T13:42:06Z</time>
      </trkpt>
      <trkpt lat="44.88125" lon="5.46996">
        <ele>1458</ele>
        <time>2022-08-27T13:42:18Z</time>
      </trkpt>
      <trkpt lat="44.88138" lon="5.46947">
        <ele>1457</ele>
        <time>2022-08-27T13:42:49Z</time>
      </trkpt>
      <trkpt lat="44.8814" lon="5.4694">
        <ele>1457</ele>
        <time>2022-08-27T13:42:53Z</time>
      </trkpt>
      <trkpt lat="44.88147" lon="5.46907">
        <ele>1457</ele>
        <time>2022-08-27T13:43:13Z</time>
      </trkpt>
      <trkpt lat="44.88161" lon="5.4687">
        <ele>1456</ele>
        <time>2022-08-27T13:43:38Z</time>
      </trkpt>
      <trkpt lat="44.88175" lon="5.46842">
        <ele>1455</ele>
        <time>2022-08-27T13:43:59Z</time>
      </trkpt>
      <trkpt lat="44.88191" lon="5.46807">
        <ele>1456</ele>
        <time>2022-08-27T13:44:28Z</time>
      </trkpt>
      <trkpt lat="44.88191" lon="5.46808">
        <ele>1458</ele>
        <time>2022-08-27T13:48:46Z</time>
      </trkpt>
      <trkpt lat="44.8819" lon="5.46806">
        <ele>1456</ele>
        <time>2022-08-27T13:51:24Z</time>
      </trkpt>
      <trkpt lat="44.88193" lon="5.46794">
        <ele>1456</ele>
        <time>2022-08-27T13:53:25Z</time>
      </trkpt>
      <trkpt lat="44.88194" lon="5.46786">
        <ele>1456</ele>
        <time>2022-08-27T13:53:30Z</time>
      </trkpt>
      <trkpt lat="44.88194" lon="5.46758">
        <ele>1455</ele>
        <time>2022-08-27T13:53:49Z</time>
      </trkpt>
      <trkpt lat="44.88198" lon="5.46747">
        <ele>1455</ele>
        <time>2022-08-27T13:53:57Z</time>
      </trkpt>
      <trkpt lat="44.88197" lon="5.4674">
        <ele>1455</ele>
        <time>2022-08-27T13:54:01Z</time>
      </trkpt>
      <trkpt lat="44.88204" lon="5.46714">
        <ele>1454</ele>
        <time>2022-08-27T13:54:18Z</time>
      </trkpt>
      <trkpt lat="44.88206" lon="5.46701">
        <ele>1454</ele>
        <time>2022-08-27T13:54:26Z</time>
      </trkpt>
      <trkpt lat="44.88206" lon="5.46694">
        <ele>1454</ele>
        <time>2022-08-27T13:54:30Z</time>
      </trkpt>
      <trkpt lat="44.88208" lon="5.46666">
        <ele>1453</ele>
        <time>2022-08-27T13:54:47Z</time>
      </trkpt>
      <trkpt lat="44.8821" lon="5.4666">
        <ele>1453</ele>
        <time>2022-08-27T13:54:50Z</time>
      </trkpt>
      <trkpt lat="44.8821" lon="5.46646">
        <ele>1453</ele>
        <time>2022-08-27T13:54:58Z</time>
      </trkpt>
      <trkpt lat="44.88212" lon="5.4664">
        <ele>1453</ele>
        <time>2022-08-27T13:55:02Z</time>
      </trkpt>
      <trkpt lat="44.8821" lon="5.46627">
        <ele>1452</ele>
        <time>2022-08-27T13:55:11Z</time>
      </trkpt>
      <trkpt lat="44.88214" lon="5.46614">
        <ele>1452</ele>
        <time>2022-08-27T13:55:19Z</time>
      </trkpt>
      <trkpt lat="44.88211" lon="5.46603">
        <ele>1451</ele>
        <time>2022-08-27T13:55:27Z</time>
      </trkpt>
      <trkpt lat="44.88211" lon="5.46588">
        <ele>1451</ele>
        <time>2022-08-27T13:55:35Z</time>
      </trkpt>
      <trkpt lat="44.88209" lon="5.46581">
        <ele>1451</ele>
        <time>2022-08-27T13:55:41Z</time>
      </trkpt>
      <trkpt lat="44.88213" lon="5.46561">
        <ele>1450</ele>
        <time>2022-08-27T13:55:53Z</time>
      </trkpt>
      <trkpt lat="44.88217" lon="5.46549">
        <ele>1450</ele>
        <time>2022-08-27T13:56:00Z</time>
      </trkpt>
      <trkpt lat="44.88217" lon="5.46543">
        <ele>1450</ele>
        <time>2022-08-27T13:56:04Z</time>
      </trkpt>
      <trkpt lat="44.88223" lon="5.46523">
        <ele>1449</ele>
        <time>2022-08-27T13:56:19Z</time>
      </trkpt>
      <trkpt lat="44.88222" lon="5.46516">
        <ele>1449</ele>
        <time>2022-08-27T13:56:23Z</time>
      </trkpt>
      <trkpt lat="44.88225" lon="5.46509">
        <ele>1448</ele>
        <time>2022-08-27T13:56:28Z</time>
      </trkpt>
      <trkpt lat="44.88237" lon="5.46493">
        <ele>1446</ele>
        <time>2022-08-27T13:56:40Z</time>
      </trkpt>
      <trkpt lat="44.88241" lon="5.46491">
        <ele>1446</ele>
        <time>2022-08-27T13:56:43Z</time>
      </trkpt>
      <trkpt lat="44.88246" lon="5.46484">
        <ele>1445</ele>
        <time>2022-08-27T13:56:49Z</time>
      </trkpt>
      <trkpt lat="44.88247" lon="5.46475">
        <ele>1445</ele>
        <time>2022-08-27T13:56:52Z</time>
      </trkpt>
      <trkpt lat="44.88247" lon="5.46458">
        <ele>1444</ele>
        <time>2022-08-27T13:57:01Z</time>
      </trkpt>
      <trkpt lat="44.88249" lon="5.46452">
        <ele>1444</ele>
        <time>2022-08-27T13:57:04Z</time>
      </trkpt>
      <trkpt lat="44.88252" lon="5.46445">
        <ele>1444</ele>
        <time>2022-08-27T13:57:08Z</time>
      </trkpt>
      <trkpt lat="44.88255" lon="5.46433">
        <ele>1443</ele>
        <time>2022-08-27T13:57:17Z</time>
      </trkpt>
      <trkpt lat="44.88254" lon="5.46418">
        <ele>1442</ele>
        <time>2022-08-27T13:57:27Z</time>
      </trkpt>
      <trkpt lat="44.88258" lon="5.46412">
        <ele>1441</ele>
        <time>2022-08-27T13:57:31Z</time>
      </trkpt>
      <trkpt lat="44.88261" lon="5.46398">
        <ele>1441</ele>
        <time>2022-08-27T13:57:39Z</time>
      </trkpt>
      <trkpt lat="44.88261" lon="5.46383">
        <ele>1440</ele>
        <time>2022-08-27T13:57:49Z</time>
      </trkpt>
      <trkpt lat="44.88264" lon="5.4637">
        <ele>1439</ele>
        <time>2022-08-27T13:57:57Z</time>
      </trkpt>
      <trkpt lat="44.88268" lon="5.46363">
        <ele>1438</ele>
        <time>2022-08-27T13:58:02Z</time>
      </trkpt>
      <trkpt lat="44.8827" lon="5.46349">
        <ele>1437</ele>
        <time>2022-08-27T13:58:10Z</time>
      </trkpt>
      <trkpt lat="44.88269" lon="5.46343">
        <ele>1437</ele>
        <time>2022-08-27T13:58:14Z</time>
      </trkpt>
      <trkpt lat="44.88276" lon="5.4633">
        <ele>1436</ele>
        <time>2022-08-27T13:58:22Z</time>
      </trkpt>
      <trkpt lat="44.88283" lon="5.46297">
        <ele>1434</ele>
        <time>2022-08-27T13:58:44Z</time>
      </trkpt>
      <trkpt lat="44.8829" lon="5.46244">
        <ele>1431</ele>
        <time>2022-08-27T13:59:14Z</time>
      </trkpt>
      <trkpt lat="44.8829" lon="5.46234">
        <ele>1430</ele>
        <time>2022-08-27T13:59:20Z</time>
      </trkpt>
      <trkpt lat="44.88287" lon="5.46227">
        <ele>1430</ele>
        <time>2022-08-27T13:59:24Z</time>
      </trkpt>
      <trkpt lat="44.88282" lon="5.46223">
        <ele>1429</ele>
        <time>2022-08-27T13:59:27Z</time>
      </trkpt>
      <trkpt lat="44.88281" lon="5.46208">
        <ele>1428</ele>
        <time>2022-08-27T13:59:35Z</time>
      </trkpt>
      <trkpt lat="44.88283" lon="5.462">
        <ele>1428</ele>
        <time>2022-08-27T13:59:40Z</time>
      </trkpt>
      <trkpt lat="44.8828" lon="5.46193">
        <ele>1428</ele>
        <time>2022-08-27T13:59:44Z</time>
      </trkpt>
      <trkpt lat="44.88278" lon="5.46181">
        <ele>1427</ele>
        <time>2022-08-27T13:59:51Z</time>
      </trkpt>
      <trkpt lat="44.8828" lon="5.46174">
        <ele>1427</ele>
        <time>2022-08-27T13:59:55Z</time>
      </trkpt>
      <trkpt lat="44.88278" lon="5.4616">
        <ele>1427</ele>
        <time>2022-08-27T14:00:02Z</time>
      </trkpt>
      <trkpt lat="44.88276" lon="5.46153">
        <ele>1426</ele>
        <time>2022-08-27T14:00:07Z</time>
      </trkpt>
      <trkpt lat="44.88277" lon="5.46146">
        <ele>1426</ele>
        <time>2022-08-27T14:00:11Z</time>
      </trkpt>
      <trkpt lat="44.88275" lon="5.46131">
        <ele>1426</ele>
        <time>2022-08-27T14:00:20Z</time>
      </trkpt>
      <trkpt lat="44.88273" lon="5.46125">
        <ele>1425</ele>
        <time>2022-08-27T14:00:23Z</time>
      </trkpt>
      <trkpt lat="44.88273" lon="5.46119">
        <ele>1425</ele>
        <time>2022-08-27T14:00:27Z</time>
      </trkpt>
      <trkpt lat="44.8827" lon="5.46114">
        <ele>1425</ele>
        <time>2022-08-27T14:00:30Z</time>
      </trkpt>
      <trkpt lat="44.88268" lon="5.46108">
        <ele>1425</ele>
        <time>2022-08-27T14:00:34Z</time>
      </trkpt>
      <trkpt lat="44.88264" lon="5.46104">
        <ele>1425</ele>
        <time>2022-08-27T14:00:37Z</time>
      </trkpt>
      <trkpt lat="44.88261" lon="5.46092">
        <ele>1424</ele>
        <time>2022-08-27T14:00:44Z</time>
      </trkpt>
      <trkpt lat="44.88256" lon="5.4608">
        <ele>1424</ele>
        <time>2022-08-27T14:00:52Z</time>
      </trkpt>
      <trkpt lat="44.88252" lon="5.46058">
        <ele>1423</ele>
        <time>2022-08-27T14:01:05Z</time>
      </trkpt>
      <trkpt lat="44.88249" lon="5.46053">
        <ele>1423</ele>
        <time>2022-08-27T14:01:09Z</time>
      </trkpt>
      <trkpt lat="44.88247" lon="5.46047">
        <ele>1423</ele>
        <time>2022-08-27T14:01:13Z</time>
      </trkpt>
      <trkpt lat="44.88241" lon="5.46036">
        <ele>1423</ele>
        <time>2022-08-27T14:01:20Z</time>
      </trkpt>
      <trkpt lat="44.8824" lon="5.46029">
        <ele>1423</ele>
        <time>2022-08-27T14:01:24Z</time>
      </trkpt>
      <trkpt lat="44.88237" lon="5.46024">
        <ele>1422</ele>
        <time>2022-08-27T14:01:28Z</time>
      </trkpt>
      <trkpt lat="44.88234" lon="5.46012">
        <ele>1422</ele>
        <time>2022-08-27T14:01:36Z</time>
      </trkpt>
      <trkpt lat="44.88228" lon="5.46002">
        <ele>1422</ele>
        <time>2022-08-27T14:01:42Z</time>
      </trkpt>
      <trkpt lat="44.88226" lon="5.45994">
        <ele>1422</ele>
        <time>2022-08-27T14:01:47Z</time>
      </trkpt>
      <trkpt lat="44.88229" lon="5.45988">
        <ele>1422</ele>
        <time>2022-08-27T14:01:49Z</time>
      </trkpt>
      <trkpt lat="44.88226" lon="5.45982">
        <ele>1421</ele>
        <time>2022-08-27T14:01:53Z</time>
      </trkpt>
      <trkpt lat="44.88222" lon="5.45976">
        <ele>1421</ele>
        <time>2022-08-27T14:01:57Z</time>
      </trkpt>
      <trkpt lat="44.88221" lon="5.45969">
        <ele>1421</ele>
        <time>2022-08-27T14:02:01Z</time>
      </trkpt>
      <trkpt lat="44.88217" lon="5.45965">
        <ele>1421</ele>
        <time>2022-08-27T14:02:05Z</time>
      </trkpt>
      <trkpt lat="44.88213" lon="5.45945">
        <ele>1421</ele>
        <time>2022-08-27T14:02:17Z</time>
      </trkpt>
      <trkpt lat="44.88208" lon="5.45943">
        <ele>1421</ele>
        <time>2022-08-27T14:02:19Z</time>
      </trkpt>
      <trkpt lat="44.88205" lon="5.45925">
        <ele>1421</ele>
        <time>2022-08-27T14:02:30Z</time>
      </trkpt>
      <trkpt lat="44.88201" lon="5.45921">
        <ele>1421</ele>
        <time>2022-08-27T14:02:34Z</time>
      </trkpt>
      <trkpt lat="44.88197" lon="5.45908">
        <ele>1420</ele>
        <time>2022-08-27T14:02:42Z</time>
      </trkpt>
      <trkpt lat="44.88186" lon="5.45884">
        <ele>1420</ele>
        <time>2022-08-27T14:02:59Z</time>
      </trkpt>
      <trkpt lat="44.88185" lon="5.45878">
        <ele>1420</ele>
        <time>2022-08-27T14:03:02Z</time>
      </trkpt>
      <trkpt lat="44.88182" lon="5.45873">
        <ele>1419</ele>
        <time>2022-08-27T14:03:05Z</time>
      </trkpt>
      <trkpt lat="44.88181" lon="5.45866">
        <ele>1419</ele>
        <time>2022-08-27T14:03:09Z</time>
      </trkpt>
      <trkpt lat="44.88177" lon="5.45847">
        <ele>1419</ele>
        <time>2022-08-27T14:03:22Z</time>
      </trkpt>
      <trkpt lat="44.88174" lon="5.45843">
        <ele>1419</ele>
        <time>2022-08-27T14:03:25Z</time>
      </trkpt>
      <trkpt lat="44.88169" lon="5.45832">
        <ele>1418</ele>
        <time>2022-08-27T14:03:32Z</time>
      </trkpt>
      <trkpt lat="44.88161" lon="5.45821">
        <ele>1418</ele>
        <time>2022-08-27T14:03:41Z</time>
      </trkpt>
      <trkpt lat="44.88156" lon="5.45799">
        <ele>1418</ele>
        <time>2022-08-27T14:03:52Z</time>
      </trkpt>
      <trkpt lat="44.88147" lon="5.45791">
        <ele>1418</ele>
        <time>2022-08-27T14:04:00Z</time>
      </trkpt>
      <trkpt lat="44.88138" lon="5.45778">
        <ele>1418</ele>
        <time>2022-08-27T14:04:10Z</time>
      </trkpt>
      <trkpt lat="44.8813" lon="5.45773">
        <ele>1418</ele>
        <time>2022-08-27T14:04:16Z</time>
      </trkpt>
      <trkpt lat="44.88127" lon="5.45768">
        <ele>1417</ele>
        <time>2022-08-27T14:04:20Z</time>
      </trkpt>
      <trkpt lat="44.88126" lon="5.45763">
        <ele>1417</ele>
        <time>2022-08-27T14:04:24Z</time>
      </trkpt>
      <trkpt lat="44.88125" lon="5.45757">
        <ele>1416</ele>
        <time>2022-08-27T14:04:31Z</time>
      </trkpt>
      <trkpt lat="44.88127" lon="5.4575">
        <ele>1416</ele>
        <time>2022-08-27T14:04:36Z</time>
      </trkpt>
      <trkpt lat="44.88126" lon="5.45742">
        <ele>1415</ele>
        <time>2022-08-27T14:04:40Z</time>
      </trkpt>
      <trkpt lat="44.88128" lon="5.45734">
        <ele>1414</ele>
        <time>2022-08-27T14:04:46Z</time>
      </trkpt>
      <trkpt lat="44.88125" lon="5.45716">
        <ele>1413</ele>
        <time>2022-08-27T14:04:55Z</time>
      </trkpt>
      <trkpt lat="44.8812" lon="5.45709">
        <ele>1413</ele>
        <time>2022-08-27T14:04:58Z</time>
      </trkpt>
      <trkpt lat="44.88119" lon="5.457">
        <ele>1412</ele>
        <time>2022-08-27T14:05:02Z</time>
      </trkpt>
      <trkpt lat="44.8811" lon="5.45674">
        <ele>1411</ele>
        <time>2022-08-27T14:05:19Z</time>
      </trkpt>
      <trkpt lat="44.88109" lon="5.45659">
        <ele>1411</ele>
        <time>2022-08-27T14:05:27Z</time>
      </trkpt>
      <trkpt lat="44.88105" lon="5.45655">
        <ele>1410</ele>
        <time>2022-08-27T14:05:31Z</time>
      </trkpt>
      <trkpt lat="44.88105" lon="5.45647">
        <ele>1410</ele>
        <time>2022-08-27T14:05:35Z</time>
      </trkpt>
      <trkpt lat="44.88111" lon="5.4563">
        <ele>1410</ele>
        <time>2022-08-27T14:05:44Z</time>
      </trkpt>
      <trkpt lat="44.88111" lon="5.4562">
        <ele>1410</ele>
        <time>2022-08-27T14:05:50Z</time>
      </trkpt>
      <trkpt lat="44.88105" lon="5.45615">
        <ele>1410</ele>
        <time>2022-08-27T14:05:53Z</time>
      </trkpt>
      <trkpt lat="44.88105" lon="5.45607">
        <ele>1409</ele>
        <time>2022-08-27T14:05:57Z</time>
      </trkpt>
      <trkpt lat="44.88097" lon="5.45596">
        <ele>1409</ele>
        <time>2022-08-27T14:06:05Z</time>
      </trkpt>
      <trkpt lat="44.88091" lon="5.45583">
        <ele>1409</ele>
        <time>2022-08-27T14:06:13Z</time>
      </trkpt>
      <trkpt lat="44.88085" lon="5.45573">
        <ele>1409</ele>
        <time>2022-08-27T14:06:20Z</time>
      </trkpt>
      <trkpt lat="44.88081" lon="5.45569">
        <ele>1408</ele>
        <time>2022-08-27T14:06:23Z</time>
      </trkpt>
      <trkpt lat="44.88079" lon="5.45565">
        <ele>1408</ele>
        <time>2022-08-27T14:06:26Z</time>
      </trkpt>
      <trkpt lat="44.88074" lon="5.45555">
        <ele>1408</ele>
        <time>2022-08-27T14:06:34Z</time>
      </trkpt>
      <trkpt lat="44.88068" lon="5.45547">
        <ele>1407</ele>
        <time>2022-08-27T14:06:40Z</time>
      </trkpt>
      <trkpt lat="44.88068" lon="5.45538">
        <ele>1406</ele>
        <time>2022-08-27T14:06:45Z</time>
      </trkpt>
      <trkpt lat="44.88067" lon="5.45531">
        <ele>1405</ele>
        <time>2022-08-27T14:06:49Z</time>
      </trkpt>
      <trkpt lat="44.88069" lon="5.45525">
        <ele>1405</ele>
        <time>2022-08-27T14:06:52Z</time>
      </trkpt>
      <trkpt lat="44.88066" lon="5.45519">
        <ele>1404</ele>
        <time>2022-08-27T14:06:55Z</time>
      </trkpt>
      <trkpt lat="44.88067" lon="5.45512">
        <ele>1403</ele>
        <time>2022-08-27T14:07:00Z</time>
      </trkpt>
      <trkpt lat="44.88065" lon="5.45506">
        <ele>1403</ele>
        <time>2022-08-27T14:07:03Z</time>
      </trkpt>
      <trkpt lat="44.88064" lon="5.45498">
        <ele>1402</ele>
        <time>2022-08-27T14:07:07Z</time>
      </trkpt>
      <trkpt lat="44.88056" lon="5.45487">
        <ele>1401</ele>
        <time>2022-08-27T14:07:15Z</time>
      </trkpt>
      <trkpt lat="44.88057" lon="5.4548">
        <ele>1400</ele>
        <time>2022-08-27T14:07:19Z</time>
      </trkpt>
      <trkpt lat="44.88055" lon="5.45474">
        <ele>1400</ele>
        <time>2022-08-27T14:07:23Z</time>
      </trkpt>
      <trkpt lat="44.88053" lon="5.45469">
        <ele>1399</ele>
        <time>2022-08-27T14:07:26Z</time>
      </trkpt>
      <trkpt lat="44.88049" lon="5.45465">
        <ele>1399</ele>
        <time>2022-08-27T14:07:29Z</time>
      </trkpt>
      <trkpt lat="44.88043" lon="5.45464">
        <ele>1398</ele>
        <time>2022-08-27T14:07:32Z</time>
      </trkpt>
      <trkpt lat="44.88038" lon="5.45468">
        <ele>1398</ele>
        <time>2022-08-27T14:07:35Z</time>
      </trkpt>
      <trkpt lat="44.8803" lon="5.45475">
        <ele>1398</ele>
        <time>2022-08-27T14:07:43Z</time>
      </trkpt>
      <trkpt lat="44.88026" lon="5.45477">
        <ele>1398</ele>
        <time>2022-08-27T14:07:47Z</time>
      </trkpt>
      <trkpt lat="44.88018" lon="5.45479">
        <ele>1398</ele>
        <time>2022-08-27T14:07:55Z</time>
      </trkpt>
      <trkpt lat="44.88011" lon="5.45483">
        <ele>1397</ele>
        <time>2022-08-27T14:08:04Z</time>
      </trkpt>
      <trkpt lat="44.88004" lon="5.45482">
        <ele>1395</ele>
        <time>2022-08-27T14:08:13Z</time>
      </trkpt>
      <trkpt lat="44.88" lon="5.45478">
        <ele>1394</ele>
        <time>2022-08-27T14:08:17Z</time>
      </trkpt>
      <trkpt lat="44.87993" lon="5.45476">
        <ele>1393</ele>
        <time>2022-08-27T14:08:25Z</time>
      </trkpt>
      <trkpt lat="44.87987" lon="5.45478">
        <ele>1391</ele>
        <time>2022-08-27T14:08:37Z</time>
      </trkpt>
      <trkpt lat="44.87983" lon="5.45475">
        <ele>1389</ele>
        <time>2022-08-27T14:08:43Z</time>
      </trkpt>
      <trkpt lat="44.8798" lon="5.45471">
        <ele>1389</ele>
        <time>2022-08-27T14:08:47Z</time>
      </trkpt>
      <trkpt lat="44.8797" lon="5.45467">
        <ele>1388</ele>
        <time>2022-08-27T14:08:53Z</time>
      </trkpt>
      <trkpt lat="44.87967" lon="5.45463">
        <ele>1388</ele>
        <time>2022-08-27T14:08:57Z</time>
      </trkpt>
      <trkpt lat="44.87964" lon="5.45458">
        <ele>1388</ele>
        <time>2022-08-27T14:09:02Z</time>
      </trkpt>
      <trkpt lat="44.87961" lon="5.45443">
        <ele>1388</ele>
        <time>2022-08-27T14:09:11Z</time>
      </trkpt>
      <trkpt lat="44.87962" lon="5.45436">
        <ele>1388</ele>
        <time>2022-08-27T14:09:17Z</time>
      </trkpt>
      <trkpt lat="44.8796" lon="5.45432">
        <ele>1388</ele>
        <time>2022-08-27T14:09:20Z</time>
      </trkpt>
      <trkpt lat="44.87954" lon="5.45423">
        <ele>1387</ele>
        <time>2022-08-27T14:09:26Z</time>
      </trkpt>
      <trkpt lat="44.87953" lon="5.45418">
        <ele>1387</ele>
        <time>2022-08-27T14:09:30Z</time>
      </trkpt>
      <trkpt lat="44.87947" lon="5.45407">
        <ele>1387</ele>
        <time>2022-08-27T14:09:37Z</time>
      </trkpt>
      <trkpt lat="44.87946" lon="5.45402">
        <ele>1387</ele>
        <time>2022-08-27T14:09:40Z</time>
      </trkpt>
      <trkpt lat="44.87946" lon="5.45395">
        <ele>1387</ele>
        <time>2022-08-27T14:09:44Z</time>
      </trkpt>
      <trkpt lat="44.87943" lon="5.45382">
        <ele>1387</ele>
        <time>2022-08-27T14:09:51Z</time>
      </trkpt>
      <trkpt lat="44.87943" lon="5.45376">
        <ele>1387</ele>
        <time>2022-08-27T14:09:54Z</time>
      </trkpt>
      <trkpt lat="44.8794" lon="5.4537">
        <ele>1387</ele>
        <time>2022-08-27T14:09:59Z</time>
      </trkpt>
      <trkpt lat="44.87942" lon="5.45363">
        <ele>1386</ele>
        <time>2022-08-27T14:10:03Z</time>
      </trkpt>
      <trkpt lat="44.87941" lon="5.45357">
        <ele>1386</ele>
        <time>2022-08-27T14:10:07Z</time>
      </trkpt>
      <trkpt lat="44.87941" lon="5.4535">
        <ele>1386</ele>
        <time>2022-08-27T14:10:11Z</time>
      </trkpt>
      <trkpt lat="44.87943" lon="5.45342">
        <ele>1386</ele>
        <time>2022-08-27T14:10:17Z</time>
      </trkpt>
      <trkpt lat="44.87945" lon="5.45335">
        <ele>1386</ele>
        <time>2022-08-27T14:10:21Z</time>
      </trkpt>
      <trkpt lat="44.87945" lon="5.45328">
        <ele>1386</ele>
        <time>2022-08-27T14:10:26Z</time>
      </trkpt>
      <trkpt lat="44.87947" lon="5.45322">
        <ele>1385</ele>
        <time>2022-08-27T14:10:31Z</time>
      </trkpt>
      <trkpt lat="44.87946" lon="5.45306">
        <ele>1385</ele>
        <time>2022-08-27T14:10:40Z</time>
      </trkpt>
      <trkpt lat="44.8795" lon="5.453">
        <ele>1384</ele>
        <time>2022-08-27T14:10:44Z</time>
      </trkpt>
      <trkpt lat="44.87972" lon="5.4528">
        <ele>1383</ele>
        <time>2022-08-27T14:11:00Z</time>
      </trkpt>
      <trkpt lat="44.87974" lon="5.45273">
        <ele>1382</ele>
        <time>2022-08-27T14:11:04Z</time>
      </trkpt>
      <trkpt lat="44.87972" lon="5.45256">
        <ele>1382</ele>
        <time>2022-08-27T14:11:13Z</time>
      </trkpt>
      <trkpt lat="44.87974" lon="5.45251">
        <ele>1382</ele>
        <time>2022-08-27T14:11:17Z</time>
      </trkpt>
      <trkpt lat="44.87974" lon="5.45243">
        <ele>1382</ele>
        <time>2022-08-27T14:11:21Z</time>
      </trkpt>
      <trkpt lat="44.87977" lon="5.45238">
        <ele>1382</ele>
        <time>2022-08-27T14:11:25Z</time>
      </trkpt>
      <trkpt lat="44.87979" lon="5.45224">
        <ele>1381</ele>
        <time>2022-08-27T14:11:33Z</time>
      </trkpt>
      <trkpt lat="44.87983" lon="5.45219">
        <ele>1381</ele>
        <time>2022-08-27T14:11:36Z</time>
      </trkpt>
      <trkpt lat="44.87984" lon="5.45213">
        <ele>1381</ele>
        <time>2022-08-27T14:11:39Z</time>
      </trkpt>
      <trkpt lat="44.87984" lon="5.45207">
        <ele>1381</ele>
        <time>2022-08-27T14:11:42Z</time>
      </trkpt>
      <trkpt lat="44.87989" lon="5.45169">
        <ele>1380</ele>
        <time>2022-08-27T14:12:05Z</time>
      </trkpt>
      <trkpt lat="44.87989" lon="5.45163">
        <ele>1380</ele>
        <time>2022-08-27T14:12:09Z</time>
      </trkpt>
      <trkpt lat="44.87991" lon="5.45157">
        <ele>1380</ele>
        <time>2022-08-27T14:12:12Z</time>
      </trkpt>
      <trkpt lat="44.87991" lon="5.45136">
        <ele>1380</ele>
        <time>2022-08-27T14:12:24Z</time>
      </trkpt>
      <trkpt lat="44.8799" lon="5.4513">
        <ele>1380</ele>
        <time>2022-08-27T14:12:28Z</time>
      </trkpt>
      <trkpt lat="44.87991" lon="5.45121">
        <ele>1379</ele>
        <time>2022-08-27T14:12:33Z</time>
      </trkpt>
      <trkpt lat="44.87994" lon="5.4511">
        <ele>1379</ele>
        <time>2022-08-27T14:12:39Z</time>
      </trkpt>
      <trkpt lat="44.87993" lon="5.45092">
        <ele>1379</ele>
        <time>2022-08-27T14:12:51Z</time>
      </trkpt>
      <trkpt lat="44.87996" lon="5.45086">
        <ele>1379</ele>
        <time>2022-08-27T14:12:56Z</time>
      </trkpt>
      <trkpt lat="44.87995" lon="5.4508">
        <ele>1378</ele>
        <time>2022-08-27T14:13:00Z</time>
      </trkpt>
      <trkpt lat="44.88001" lon="5.4507">
        <ele>1378</ele>
        <time>2022-08-27T14:13:07Z</time>
      </trkpt>
      <trkpt lat="44.88003" lon="5.45063">
        <ele>1378</ele>
        <time>2022-08-27T14:13:11Z</time>
      </trkpt>
      <trkpt lat="44.88017" lon="5.45042">
        <ele>1377</ele>
        <time>2022-08-27T14:13:27Z</time>
      </trkpt>
      <trkpt lat="44.88027" lon="5.45031">
        <ele>1376</ele>
        <time>2022-08-27T14:13:37Z</time>
      </trkpt>
      <trkpt lat="44.88029" lon="5.45026">
        <ele>1376</ele>
        <time>2022-08-27T14:13:40Z</time>
      </trkpt>
      <trkpt lat="44.88033" lon="5.45022">
        <ele>1376</ele>
        <time>2022-08-27T14:13:44Z</time>
      </trkpt>
      <trkpt lat="44.88034" lon="5.45017">
        <ele>1376</ele>
        <time>2022-08-27T14:13:48Z</time>
      </trkpt>
      <trkpt lat="44.88042" lon="5.45004">
        <ele>1376</ele>
        <time>2022-08-27T14:13:59Z</time>
      </trkpt>
      <trkpt lat="44.88044" lon="5.44997">
        <ele>1376</ele>
        <time>2022-08-27T14:14:03Z</time>
      </trkpt>
      <trkpt lat="44.88053" lon="5.4498">
        <ele>1375</ele>
        <time>2022-08-27T14:14:15Z</time>
      </trkpt>
      <trkpt lat="44.88058" lon="5.44976">
        <ele>1375</ele>
        <time>2022-08-27T14:14:19Z</time>
      </trkpt>
      <trkpt lat="44.88072" lon="5.44948">
        <ele>1374</ele>
        <time>2022-08-27T14:14:40Z</time>
      </trkpt>
      <trkpt lat="44.88079" lon="5.44932">
        <ele>1374</ele>
        <time>2022-08-27T14:14:51Z</time>
      </trkpt>
      <trkpt lat="44.88081" lon="5.44927">
        <ele>1374</ele>
        <time>2022-08-27T14:14:55Z</time>
      </trkpt>
      <trkpt lat="44.88082" lon="5.44919">
        <ele>1374</ele>
        <time>2022-08-27T14:15:00Z</time>
      </trkpt>
      <trkpt lat="44.88085" lon="5.44913">
        <ele>1374</ele>
        <time>2022-08-27T14:15:04Z</time>
      </trkpt>
      <trkpt lat="44.88086" lon="5.44907">
        <ele>1373</ele>
        <time>2022-08-27T14:15:07Z</time>
      </trkpt>
      <trkpt lat="44.88093" lon="5.4488">
        <ele>1373</ele>
        <time>2022-08-27T14:15:22Z</time>
      </trkpt>
      <trkpt lat="44.88094" lon="5.44867">
        <ele>1373</ele>
        <time>2022-08-27T14:15:30Z</time>
      </trkpt>
      <trkpt lat="44.88101" lon="5.44834">
        <ele>1372</ele>
        <time>2022-08-27T14:15:51Z</time>
      </trkpt>
      <trkpt lat="44.88105" lon="5.4483">
        <ele>1372</ele>
        <time>2022-08-27T14:15:54Z</time>
      </trkpt>
      <trkpt lat="44.88105" lon="5.44824">
        <ele>1372</ele>
        <time>2022-08-27T14:15:58Z</time>
      </trkpt>
      <trkpt lat="44.88106" lon="5.44818">
        <ele>1372</ele>
        <time>2022-08-27T14:16:02Z</time>
      </trkpt>
      <trkpt lat="44.88105" lon="5.44812">
        <ele>1372</ele>
        <time>2022-08-27T14:16:05Z</time>
      </trkpt>
      <trkpt lat="44.88105" lon="5.44802">
        <ele>1372</ele>
        <time>2022-08-27T14:16:12Z</time>
      </trkpt>
      <trkpt lat="44.88109" lon="5.44785">
        <ele>1372</ele>
        <time>2022-08-27T14:16:21Z</time>
      </trkpt>
      <trkpt lat="44.88108" lon="5.44776">
        <ele>1372</ele>
        <time>2022-08-27T14:16:25Z</time>
      </trkpt>
      <trkpt lat="44.88105" lon="5.44771">
        <ele>1372</ele>
        <time>2022-08-27T14:16:27Z</time>
      </trkpt>
      <trkpt lat="44.88104" lon="5.44763">
        <ele>1372</ele>
        <time>2022-08-27T14:16:30Z</time>
      </trkpt>
      <trkpt lat="44.88104" lon="5.44757">
        <ele>1372</ele>
        <time>2022-08-27T14:16:33Z</time>
      </trkpt>
      <trkpt lat="44.88108" lon="5.44745">
        <ele>1372</ele>
        <time>2022-08-27T14:16:41Z</time>
      </trkpt>
      <trkpt lat="44.88111" lon="5.4473">
        <ele>1372</ele>
        <time>2022-08-27T14:16:52Z</time>
      </trkpt>
      <trkpt lat="44.88115" lon="5.44725">
        <ele>1372</ele>
        <time>2022-08-27T14:16:56Z</time>
      </trkpt>
      <trkpt lat="44.88117" lon="5.44717">
        <ele>1372</ele>
        <time>2022-08-27T14:17:01Z</time>
      </trkpt>
      <trkpt lat="44.88123" lon="5.44706">
        <ele>1372</ele>
        <time>2022-08-27T14:17:09Z</time>
      </trkpt>
      <trkpt lat="44.88128" lon="5.44663">
        <ele>1372</ele>
        <time>2022-08-27T14:17:34Z</time>
      </trkpt>
      <trkpt lat="44.88131" lon="5.44656">
        <ele>1372</ele>
        <time>2022-08-27T14:17:38Z</time>
      </trkpt>
      <trkpt lat="44.88133" lon="5.44644">
        <ele>1372</ele>
        <time>2022-08-27T14:17:45Z</time>
      </trkpt>
      <trkpt lat="44.88138" lon="5.4463">
        <ele>1372</ele>
        <time>2022-08-27T14:17:53Z</time>
      </trkpt>
      <trkpt lat="44.88139" lon="5.44622">
        <ele>1372</ele>
        <time>2022-08-27T14:17:57Z</time>
      </trkpt>
      <trkpt lat="44.88141" lon="5.44617">
        <ele>1372</ele>
        <time>2022-08-27T14:18:01Z</time>
      </trkpt>
      <trkpt lat="44.88142" lon="5.44611">
        <ele>1372</ele>
        <time>2022-08-27T14:18:05Z</time>
      </trkpt>
      <trkpt lat="44.88144" lon="5.44605">
        <ele>1372</ele>
        <time>2022-08-27T14:18:09Z</time>
      </trkpt>
      <trkpt lat="44.88146" lon="5.44592">
        <ele>1372</ele>
        <time>2022-08-27T14:18:16Z</time>
      </trkpt>
      <trkpt lat="44.88146" lon="5.44586">
        <ele>1372</ele>
        <time>2022-08-27T14:18:20Z</time>
      </trkpt>
      <trkpt lat="44.88151" lon="5.44554">
        <ele>1372</ele>
        <time>2022-08-27T14:18:38Z</time>
      </trkpt>
      <trkpt lat="44.8815" lon="5.44549">
        <ele>1372</ele>
        <time>2022-08-27T14:18:41Z</time>
      </trkpt>
      <trkpt lat="44.88154" lon="5.44543">
        <ele>1372</ele>
        <time>2022-08-27T14:18:45Z</time>
      </trkpt>
      <trkpt lat="44.88155" lon="5.44531">
        <ele>1372</ele>
        <time>2022-08-27T14:18:52Z</time>
      </trkpt>
      <trkpt lat="44.88157" lon="5.44503">
        <ele>1372</ele>
        <time>2022-08-27T14:19:10Z</time>
      </trkpt>
      <trkpt lat="44.88161" lon="5.44476">
        <ele>1372</ele>
        <time>2022-08-27T14:19:26Z</time>
      </trkpt>
      <trkpt lat="44.8816" lon="5.44467">
        <ele>1372</ele>
        <time>2022-08-27T14:19:31Z</time>
      </trkpt>
      <trkpt lat="44.88158" lon="5.44461">
        <ele>1372</ele>
        <time>2022-08-27T14:19:34Z</time>
      </trkpt>
      <trkpt lat="44.88157" lon="5.44455">
        <ele>1372</ele>
        <time>2022-08-27T14:19:38Z</time>
      </trkpt>
      <trkpt lat="44.88158" lon="5.44448">
        <ele>1372</ele>
        <time>2022-08-27T14:19:43Z</time>
      </trkpt>
      <trkpt lat="44.88158" lon="5.44441">
        <ele>1372</ele>
        <time>2022-08-27T14:19:50Z</time>
      </trkpt>
      <trkpt lat="44.88154" lon="5.44439">
        <ele>1372</ele>
        <time>2022-08-27T14:20:00Z</time>
      </trkpt>
      <trkpt lat="44.88154" lon="5.44432">
        <ele>1372</ele>
        <time>2022-08-27T14:21:28Z</time>
      </trkpt>
      <trkpt lat="44.88158" lon="5.4442">
        <ele>1372</ele>
        <time>2022-08-27T14:21:39Z</time>
      </trkpt>
      <trkpt lat="44.88156" lon="5.44406">
        <ele>1372</ele>
        <time>2022-08-27T14:21:49Z</time>
      </trkpt>
      <trkpt lat="44.88156" lon="5.444">
        <ele>1372</ele>
        <time>2022-08-27T14:21:54Z</time>
      </trkpt>
      <trkpt lat="44.88154" lon="5.44391">
        <ele>1372</ele>
        <time>2022-08-27T14:22:04Z</time>
      </trkpt>
      <trkpt lat="44.88154" lon="5.44385">
        <ele>1372</ele>
        <time>2022-08-27T14:22:09Z</time>
      </trkpt>
      <trkpt lat="44.8815" lon="5.44373">
        <ele>1372</ele>
        <time>2022-08-27T14:22:17Z</time>
      </trkpt>
      <trkpt lat="44.88151" lon="5.4436">
        <ele>1372</ele>
        <time>2022-08-27T14:22:25Z</time>
      </trkpt>
      <trkpt lat="44.88146" lon="5.44343">
        <ele>1372</ele>
        <time>2022-08-27T14:22:37Z</time>
      </trkpt>
      <trkpt lat="44.88147" lon="5.44337">
        <ele>1371</ele>
        <time>2022-08-27T14:22:41Z</time>
      </trkpt>
      <trkpt lat="44.88149" lon="5.44324">
        <ele>1371</ele>
        <time>2022-08-27T14:22:49Z</time>
      </trkpt>
      <trkpt lat="44.88156" lon="5.44317">
        <ele>1371</ele>
        <time>2022-08-27T14:22:59Z</time>
      </trkpt>
      <trkpt lat="44.88156" lon="5.4431">
        <ele>1372</ele>
        <time>2022-08-27T14:23:10Z</time>
      </trkpt>
      <trkpt lat="44.88161" lon="5.44301">
        <ele>1372</ele>
        <time>2022-08-27T14:23:19Z</time>
      </trkpt>
      <trkpt lat="44.88161" lon="5.44291">
        <ele>1372</ele>
        <time>2022-08-27T14:23:28Z</time>
      </trkpt>
      <trkpt lat="44.88162" lon="5.44278">
        <ele>1374</ele>
        <time>2022-08-27T14:23:38Z</time>
      </trkpt>
      <trkpt lat="44.88162" lon="5.44272">
        <ele>1374</ele>
        <time>2022-08-27T14:23:45Z</time>
      </trkpt>
      <trkpt lat="44.88163" lon="5.44265">
        <ele>1375</ele>
        <time>2022-08-27T14:23:50Z</time>
      </trkpt>
      <trkpt lat="44.88163" lon="5.44254">
        <ele>1376</ele>
        <time>2022-08-27T14:23:59Z</time>
      </trkpt>
      <trkpt lat="44.88168" lon="5.44217">
        <ele>1378</ele>
        <time>2022-08-27T14:24:27Z</time>
      </trkpt>
      <trkpt lat="44.88166" lon="5.44208">
        <ele>1379</ele>
        <time>2022-08-27T14:24:35Z</time>
      </trkpt>
      <trkpt lat="44.88152" lon="5.44185">
        <ele>1381</ele>
        <time>2022-08-27T14:24:55Z</time>
      </trkpt>
      <trkpt lat="44.88134" lon="5.44157">
        <ele>1384</ele>
        <time>2022-08-27T14:25:26Z</time>
      </trkpt>
      <trkpt lat="44.88133" lon="5.44151">
        <ele>1384</ele>
        <time>2022-08-27T14:25:30Z</time>
      </trkpt>
      <trkpt lat="44.88132" lon="5.4414">
        <ele>1384</ele>
        <time>2022-08-27T14:25:39Z</time>
      </trkpt>
      <trkpt lat="44.88131" lon="5.44129">
        <ele>1385</ele>
        <time>2022-08-27T14:25:48Z</time>
      </trkpt>
      <trkpt lat="44.88135" lon="5.44126">
        <ele>1386</ele>
        <time>2022-08-27T14:25:52Z</time>
      </trkpt>
      <trkpt lat="44.88131" lon="5.44117">
        <ele>1387</ele>
        <time>2022-08-27T14:25:59Z</time>
      </trkpt>
      <trkpt lat="44.88132" lon="5.4411">
        <ele>1387</ele>
        <time>2022-08-27T14:26:04Z</time>
      </trkpt>
      <trkpt lat="44.88138" lon="5.44098">
        <ele>1387</ele>
        <time>2022-08-27T14:26:12Z</time>
      </trkpt>
      <trkpt lat="44.88141" lon="5.44093">
        <ele>1387</ele>
        <time>2022-08-27T14:26:17Z</time>
      </trkpt>
      <trkpt lat="44.88145" lon="5.44089">
        <ele>1386</ele>
        <time>2022-08-27T14:26:20Z</time>
      </trkpt>
      <trkpt lat="44.88149" lon="5.44077">
        <ele>1385</ele>
        <time>2022-08-27T14:26:29Z</time>
      </trkpt>
      <trkpt lat="44.8815" lon="5.44071">
        <ele>1385</ele>
        <time>2022-08-27T14:26:34Z</time>
      </trkpt>
      <trkpt lat="44.88153" lon="5.44037">
        <ele>1381</ele>
        <time>2022-08-27T14:26:57Z</time>
      </trkpt>
      <trkpt lat="44.88156" lon="5.44031">
        <ele>1381</ele>
        <time>2022-08-27T14:27:00Z</time>
      </trkpt>
      <trkpt lat="44.88159" lon="5.44018">
        <ele>1380</ele>
        <time>2022-08-27T14:27:07Z</time>
      </trkpt>
      <trkpt lat="44.88158" lon="5.44011">
        <ele>1380</ele>
        <time>2022-08-27T14:27:11Z</time>
      </trkpt>
      <trkpt lat="44.8816" lon="5.44005">
        <ele>1379</ele>
        <time>2022-08-27T14:27:15Z</time>
      </trkpt>
      <trkpt lat="44.88158" lon="5.4399">
        <ele>1378</ele>
        <time>2022-08-27T14:27:24Z</time>
      </trkpt>
      <trkpt lat="44.88154" lon="5.43986">
        <ele>1377</ele>
        <time>2022-08-27T14:27:27Z</time>
      </trkpt>
      <trkpt lat="44.8815" lon="5.43983">
        <ele>1377</ele>
        <time>2022-08-27T14:27:32Z</time>
      </trkpt>
      <trkpt lat="44.88144" lon="5.43973">
        <ele>1377</ele>
        <time>2022-08-27T14:27:39Z</time>
      </trkpt>
      <trkpt lat="44.88142" lon="5.43966">
        <ele>1377</ele>
        <time>2022-08-27T14:27:51Z</time>
      </trkpt>
      <trkpt lat="44.8814" lon="5.4396">
        <ele>1377</ele>
        <time>2022-08-27T14:27:56Z</time>
      </trkpt>
      <trkpt lat="44.88138" lon="5.43952">
        <ele>1376</ele>
        <time>2022-08-27T14:28:06Z</time>
      </trkpt>
      <trkpt lat="44.88133" lon="5.43944">
        <ele>1376</ele>
        <time>2022-08-27T14:28:15Z</time>
      </trkpt>
      <trkpt lat="44.88121" lon="5.43939">
        <ele>1376</ele>
        <time>2022-08-27T14:28:29Z</time>
      </trkpt>
      <trkpt lat="44.88114" lon="5.43934">
        <ele>1376</ele>
        <time>2022-08-27T14:28:48Z</time>
      </trkpt>
      <trkpt lat="44.88108" lon="5.43934">
        <ele>1376</ele>
        <time>2022-08-27T14:28:56Z</time>
      </trkpt>
      <trkpt lat="44.88094" lon="5.43924">
        <ele>1376</ele>
        <time>2022-08-27T14:29:09Z</time>
      </trkpt>
      <trkpt lat="44.88091" lon="5.43919">
        <ele>1377</ele>
        <time>2022-08-27T14:29:16Z</time>
      </trkpt>
      <trkpt lat="44.88089" lon="5.43913">
        <ele>1377</ele>
        <time>2022-08-27T14:29:20Z</time>
      </trkpt>
      <trkpt lat="44.88086" lon="5.43907">
        <ele>1377</ele>
        <time>2022-08-27T14:29:22Z</time>
      </trkpt>
      <trkpt lat="44.88084" lon="5.43901">
        <ele>1376</ele>
        <time>2022-08-27T14:29:26Z</time>
      </trkpt>
      <trkpt lat="44.8808" lon="5.43892">
        <ele>1376</ele>
        <time>2022-08-27T14:29:33Z</time>
      </trkpt>
      <trkpt lat="44.88077" lon="5.43887">
        <ele>1376</ele>
        <time>2022-08-27T14:29:37Z</time>
      </trkpt>
      <trkpt lat="44.88071" lon="5.43888">
        <ele>1376</ele>
        <time>2022-08-27T14:29:39Z</time>
      </trkpt>
      <trkpt lat="44.88069" lon="5.43882">
        <ele>1377</ele>
        <time>2022-08-27T14:29:43Z</time>
      </trkpt>
      <trkpt lat="44.88063" lon="5.43843">
        <ele>1377</ele>
        <time>2022-08-27T14:30:15Z</time>
      </trkpt>
      <trkpt lat="44.88063" lon="5.43836">
        <ele>1377</ele>
        <time>2022-08-27T14:30:19Z</time>
      </trkpt>
      <trkpt lat="44.88069" lon="5.43805">
        <ele>1378</ele>
        <time>2022-08-27T14:30:39Z</time>
      </trkpt>
      <trkpt lat="44.88072" lon="5.43797">
        <ele>1378</ele>
        <time>2022-08-27T14:30:43Z</time>
      </trkpt>
      <trkpt lat="44.88076" lon="5.43791">
        <ele>1378</ele>
        <time>2022-08-27T14:30:47Z</time>
      </trkpt>
      <trkpt lat="44.88086" lon="5.43778">
        <ele>1376</ele>
        <time>2022-08-27T14:30:59Z</time>
      </trkpt>
      <trkpt lat="44.88091" lon="5.43774">
        <ele>1375</ele>
        <time>2022-08-27T14:31:03Z</time>
      </trkpt>
      <trkpt lat="44.88092" lon="5.4377">
        <ele>1375</ele>
        <time>2022-08-27T14:31:08Z</time>
      </trkpt>
      <trkpt lat="44.88106" lon="5.43753">
        <ele>1373</ele>
        <time>2022-08-27T14:31:23Z</time>
      </trkpt>
      <trkpt lat="44.88115" lon="5.43747">
        <ele>1371</ele>
        <time>2022-08-27T14:31:34Z</time>
      </trkpt>
      <trkpt lat="44.88123" lon="5.43737">
        <ele>1369</ele>
        <time>2022-08-27T14:31:46Z</time>
      </trkpt>
      <trkpt lat="44.88127" lon="5.43734">
        <ele>1369</ele>
        <time>2022-08-27T14:31:49Z</time>
      </trkpt>
      <trkpt lat="44.88125" lon="5.43725">
        <ele>1368</ele>
        <time>2022-08-27T14:32:13Z</time>
      </trkpt>
      <trkpt lat="44.88136" lon="5.43722">
        <ele>1368</ele>
        <time>2022-08-27T14:32:33Z</time>
      </trkpt>
      <trkpt lat="44.88145" lon="5.43722">
        <ele>1367</ele>
        <time>2022-08-27T14:32:39Z</time>
      </trkpt>
      <trkpt lat="44.88151" lon="5.43716">
        <ele>1366</ele>
        <time>2022-08-27T14:32:45Z</time>
      </trkpt>
      <trkpt lat="44.88157" lon="5.43705">
        <ele>1365</ele>
        <time>2022-08-27T14:32:54Z</time>
      </trkpt>
      <trkpt lat="44.88161" lon="5.437">
        <ele>1365</ele>
        <time>2022-08-27T14:32:58Z</time>
      </trkpt>
      <trkpt lat="44.88166" lon="5.43698">
        <ele>1365</ele>
        <time>2022-08-27T14:33:02Z</time>
      </trkpt>
      <trkpt lat="44.88176" lon="5.43697">
        <ele>1364</ele>
        <time>2022-08-27T14:33:10Z</time>
      </trkpt>
      <trkpt lat="44.88184" lon="5.43702">
        <ele>1363</ele>
        <time>2022-08-27T14:33:16Z</time>
      </trkpt>
      <trkpt lat="44.88192" lon="5.43711">
        <ele>1362</ele>
        <time>2022-08-27T14:33:23Z</time>
      </trkpt>
      <trkpt lat="44.88197" lon="5.43709">
        <ele>1362</ele>
        <time>2022-08-27T14:33:26Z</time>
      </trkpt>
      <trkpt lat="44.88201" lon="5.43704">
        <ele>1362</ele>
        <time>2022-08-27T14:33:29Z</time>
      </trkpt>
      <trkpt lat="44.88203" lon="5.43699">
        <ele>1361</ele>
        <time>2022-08-27T14:33:32Z</time>
      </trkpt>
      <trkpt lat="44.88205" lon="5.43693">
        <ele>1361</ele>
        <time>2022-08-27T14:33:35Z</time>
      </trkpt>
      <trkpt lat="44.8821" lon="5.43682">
        <ele>1360</ele>
        <time>2022-08-27T14:33:43Z</time>
      </trkpt>
      <trkpt lat="44.88211" lon="5.43676">
        <ele>1360</ele>
        <time>2022-08-27T14:33:48Z</time>
      </trkpt>
      <trkpt lat="44.88214" lon="5.43671">
        <ele>1359</ele>
        <time>2022-08-27T14:33:52Z</time>
      </trkpt>
      <trkpt lat="44.88214" lon="5.43662">
        <ele>1358</ele>
        <time>2022-08-27T14:33:58Z</time>
      </trkpt>
      <trkpt lat="44.88224" lon="5.43636">
        <ele>1354</ele>
        <time>2022-08-27T14:34:19Z</time>
      </trkpt>
      <trkpt lat="44.88225" lon="5.43629">
        <ele>1353</ele>
        <time>2022-08-27T14:34:23Z</time>
      </trkpt>
      <trkpt lat="44.88227" lon="5.43624">
        <ele>1353</ele>
        <time>2022-08-27T14:34:27Z</time>
      </trkpt>
      <trkpt lat="44.88228" lon="5.43618">
        <ele>1352</ele>
        <time>2022-08-27T14:34:31Z</time>
      </trkpt>
      <trkpt lat="44.88233" lon="5.43606">
        <ele>1351</ele>
        <time>2022-08-27T14:34:39Z</time>
      </trkpt>
      <trkpt lat="44.88236" lon="5.43602">
        <ele>1350</ele>
        <time>2022-08-27T14:34:42Z</time>
      </trkpt>
      <trkpt lat="44.88243" lon="5.43579">
        <ele>1347</ele>
        <time>2022-08-27T14:35:00Z</time>
      </trkpt>
      <trkpt lat="44.88247" lon="5.43574">
        <ele>1347</ele>
        <time>2022-08-27T14:35:05Z</time>
      </trkpt>
      <trkpt lat="44.88249" lon="5.43561">
        <ele>1345</ele>
        <time>2022-08-27T14:35:14Z</time>
      </trkpt>
      <trkpt lat="44.88249" lon="5.43555">
        <ele>1344</ele>
        <time>2022-08-27T14:35:18Z</time>
      </trkpt>
      <trkpt lat="44.88252" lon="5.43542">
        <ele>1343</ele>
        <time>2022-08-27T14:35:25Z</time>
      </trkpt>
      <trkpt lat="44.88251" lon="5.43535">
        <ele>1342</ele>
        <time>2022-08-27T14:35:30Z</time>
      </trkpt>
      <trkpt lat="44.88248" lon="5.43531">
        <ele>1341</ele>
        <time>2022-08-27T14:35:33Z</time>
      </trkpt>
      <trkpt lat="44.88243" lon="5.43542">
        <ele>1340</ele>
        <time>2022-08-27T14:35:40Z</time>
      </trkpt>
      <trkpt lat="44.88239" lon="5.43543">
        <ele>1340</ele>
        <time>2022-08-27T14:36:00Z</time>
      </trkpt>
      <trkpt lat="44.88237" lon="5.43552">
        <ele>1339</ele>
        <time>2022-08-27T14:36:16Z</time>
      </trkpt>
      <trkpt lat="44.88232" lon="5.43563">
        <ele>1338</ele>
        <time>2022-08-27T14:36:29Z</time>
      </trkpt>
      <trkpt lat="44.88227" lon="5.43565">
        <ele>1337</ele>
        <time>2022-08-27T14:36:32Z</time>
      </trkpt>
      <trkpt lat="44.88215" lon="5.43576">
        <ele>1335</ele>
        <time>2022-08-27T14:36:46Z</time>
      </trkpt>
      <trkpt lat="44.8821" lon="5.43578">
        <ele>1335</ele>
        <time>2022-08-27T14:36:50Z</time>
      </trkpt>
      <trkpt lat="44.88203" lon="5.43587">
        <ele>1333</ele>
        <time>2022-08-27T14:37:00Z</time>
      </trkpt>
      <trkpt lat="44.88198" lon="5.43588">
        <ele>1333</ele>
        <time>2022-08-27T14:37:03Z</time>
      </trkpt>
      <trkpt lat="44.88195" lon="5.43583">
        <ele>1332</ele>
        <time>2022-08-27T14:37:07Z</time>
      </trkpt>
      <trkpt lat="44.88184" lon="5.43582">
        <ele>1331</ele>
        <time>2022-08-27T14:37:18Z</time>
      </trkpt>
      <trkpt lat="44.88175" lon="5.43586">
        <ele>1330</ele>
        <time>2022-08-27T14:37:26Z</time>
      </trkpt>
      <trkpt lat="44.8817" lon="5.43583">
        <ele>1328</ele>
        <time>2022-08-27T14:37:33Z</time>
      </trkpt>
      <trkpt lat="44.88173" lon="5.43575">
        <ele>1328</ele>
        <time>2022-08-27T14:37:39Z</time>
      </trkpt>
      <trkpt lat="44.88175" lon="5.43554">
        <ele>1326</ele>
        <time>2022-08-27T14:37:53Z</time>
      </trkpt>
      <trkpt lat="44.88174" lon="5.43548">
        <ele>1325</ele>
        <time>2022-08-27T14:37:58Z</time>
      </trkpt>
      <trkpt lat="44.88172" lon="5.43543">
        <ele>1324</ele>
        <time>2022-08-27T14:38:02Z</time>
      </trkpt>
      <trkpt lat="44.88167" lon="5.43539">
        <ele>1324</ele>
        <time>2022-08-27T14:38:06Z</time>
      </trkpt>
      <trkpt lat="44.88155" lon="5.43518">
        <ele>1322</ele>
        <time>2022-08-27T14:38:22Z</time>
      </trkpt>
      <trkpt lat="44.88152" lon="5.43493">
        <ele>1319</ele>
        <time>2022-08-27T14:38:38Z</time>
      </trkpt>
      <trkpt lat="44.88152" lon="5.43485">
        <ele>1319</ele>
        <time>2022-08-27T14:38:43Z</time>
      </trkpt>
      <trkpt lat="44.8815" lon="5.4348">
        <ele>1318</ele>
        <time>2022-08-27T14:38:46Z</time>
      </trkpt>
      <trkpt lat="44.88147" lon="5.4346">
        <ele>1316</ele>
        <time>2022-08-27T14:38:59Z</time>
      </trkpt>
      <trkpt lat="44.8815" lon="5.4346">
        <ele>1313</ele>
        <time>2022-08-27T14:39:11Z</time>
      </trkpt>
      <trkpt lat="44.8816" lon="5.43456">
        <ele>1311</ele>
        <time>2022-08-27T14:39:18Z</time>
      </trkpt>
      <trkpt lat="44.88165" lon="5.43456">
        <ele>1310</ele>
        <time>2022-08-27T14:39:21Z</time>
      </trkpt>
      <trkpt lat="44.88161" lon="5.43449">
        <ele>1309</ele>
        <time>2022-08-27T14:39:24Z</time>
      </trkpt>
      <trkpt lat="44.88164" lon="5.43412">
        <ele>1305</ele>
        <time>2022-08-27T14:39:48Z</time>
      </trkpt>
      <trkpt lat="44.88169" lon="5.43402">
        <ele>1304</ele>
        <time>2022-08-27T14:39:56Z</time>
      </trkpt>
      <trkpt lat="44.88173" lon="5.43399">
        <ele>1303</ele>
        <time>2022-08-27T14:40:00Z</time>
      </trkpt>
      <trkpt lat="44.88181" lon="5.43396">
        <ele>1303</ele>
        <time>2022-08-27T14:40:07Z</time>
      </trkpt>
      <trkpt lat="44.88182" lon="5.43402">
        <ele>1302</ele>
        <time>2022-08-27T14:40:12Z</time>
      </trkpt>
      <trkpt lat="44.8818" lon="5.43408">
        <ele>1302</ele>
        <time>2022-08-27T14:40:16Z</time>
      </trkpt>
      <trkpt lat="44.88183" lon="5.43413">
        <ele>1302</ele>
        <time>2022-08-27T14:40:19Z</time>
      </trkpt>
      <trkpt lat="44.88189" lon="5.43416">
        <ele>1301</ele>
        <time>2022-08-27T14:40:27Z</time>
      </trkpt>
      <trkpt lat="44.88195" lon="5.43399">
        <ele>1299</ele>
        <time>2022-08-27T14:40:37Z</time>
      </trkpt>
      <trkpt lat="44.88199" lon="5.43393">
        <ele>1298</ele>
        <time>2022-08-27T14:40:41Z</time>
      </trkpt>
      <trkpt lat="44.88201" lon="5.43381">
        <ele>1298</ele>
        <time>2022-08-27T14:40:48Z</time>
      </trkpt>
      <trkpt lat="44.88201" lon="5.43361">
        <ele>1296</ele>
        <time>2022-08-27T14:41:00Z</time>
      </trkpt>
      <trkpt lat="44.88204" lon="5.43353">
        <ele>1295</ele>
        <time>2022-08-27T14:41:06Z</time>
      </trkpt>
      <trkpt lat="44.88208" lon="5.4335">
        <ele>1294</ele>
        <time>2022-08-27T14:41:10Z</time>
      </trkpt>
      <trkpt lat="44.88209" lon="5.43343">
        <ele>1294</ele>
        <time>2022-08-27T14:41:13Z</time>
      </trkpt>
      <trkpt lat="44.88216" lon="5.43334">
        <ele>1294</ele>
        <time>2022-08-27T14:41:19Z</time>
      </trkpt>
      <trkpt lat="44.88219" lon="5.43321">
        <ele>1293</ele>
        <time>2022-08-27T14:41:27Z</time>
      </trkpt>
      <trkpt lat="44.88225" lon="5.43311">
        <ele>1292</ele>
        <time>2022-08-27T14:41:36Z</time>
      </trkpt>
      <trkpt lat="44.8823" lon="5.43308">
        <ele>1291</ele>
        <time>2022-08-27T14:41:40Z</time>
      </trkpt>
      <trkpt lat="44.88234" lon="5.43309">
        <ele>1290</ele>
        <time>2022-08-27T14:41:43Z</time>
      </trkpt>
      <trkpt lat="44.88237" lon="5.43303">
        <ele>1290</ele>
        <time>2022-08-27T14:41:48Z</time>
      </trkpt>
      <trkpt lat="44.88251" lon="5.433">
        <ele>1287</ele>
        <time>2022-08-27T14:42:07Z</time>
      </trkpt>
      <trkpt lat="44.88257" lon="5.43295">
        <ele>1286</ele>
        <time>2022-08-27T14:42:11Z</time>
      </trkpt>
      <trkpt lat="44.88261" lon="5.43284">
        <ele>1286</ele>
        <time>2022-08-27T14:42:17Z</time>
      </trkpt>
      <trkpt lat="44.88271" lon="5.4327">
        <ele>1284</ele>
        <time>2022-08-27T14:42:29Z</time>
      </trkpt>
      <trkpt lat="44.88279" lon="5.43262">
        <ele>1283</ele>
        <time>2022-08-27T14:42:37Z</time>
      </trkpt>
      <trkpt lat="44.88281" lon="5.43256">
        <ele>1282</ele>
        <time>2022-08-27T14:42:41Z</time>
      </trkpt>
      <trkpt lat="44.88281" lon="5.43251">
        <ele>1282</ele>
        <time>2022-08-27T14:42:44Z</time>
      </trkpt>
      <trkpt lat="44.88285" lon="5.43245">
        <ele>1281</ele>
        <time>2022-08-27T14:42:48Z</time>
      </trkpt>
      <trkpt lat="44.88289" lon="5.43241">
        <ele>1281</ele>
        <time>2022-08-27T14:42:51Z</time>
      </trkpt>
      <trkpt lat="44.88285" lon="5.43228">
        <ele>1278</ele>
        <time>2022-08-27T14:43:02Z</time>
      </trkpt>
      <trkpt lat="44.8828" lon="5.43225">
        <ele>1274</ele>
        <time>2022-08-27T14:43:09Z</time>
      </trkpt>
      <trkpt lat="44.88275" lon="5.43228">
        <ele>1274</ele>
        <time>2022-08-27T14:43:11Z</time>
      </trkpt>
      <trkpt lat="44.8827" lon="5.4323">
        <ele>1273</ele>
        <time>2022-08-27T14:43:13Z</time>
      </trkpt>
      <trkpt lat="44.88262" lon="5.43235">
        <ele>1272</ele>
        <time>2022-08-27T14:43:18Z</time>
      </trkpt>
      <trkpt lat="44.88258" lon="5.43236">
        <ele>1271</ele>
        <time>2022-08-27T14:43:22Z</time>
      </trkpt>
      <trkpt lat="44.88253" lon="5.43235">
        <ele>1271</ele>
        <time>2022-08-27T14:43:24Z</time>
      </trkpt>
      <trkpt lat="44.88249" lon="5.43231">
        <ele>1271</ele>
        <time>2022-08-27T14:43:26Z</time>
      </trkpt>
      <trkpt lat="44.8825" lon="5.43222">
        <ele>1270</ele>
        <time>2022-08-27T14:43:29Z</time>
      </trkpt>
      <trkpt lat="44.88251" lon="5.43208">
        <ele>1268</ele>
        <time>2022-08-27T14:43:40Z</time>
      </trkpt>
      <trkpt lat="44.88249" lon="5.43202">
        <ele>1268</ele>
        <time>2022-08-27T14:43:44Z</time>
      </trkpt>
      <trkpt lat="44.88251" lon="5.43195">
        <ele>1267</ele>
        <time>2022-08-27T14:43:48Z</time>
      </trkpt>
      <trkpt lat="44.88255" lon="5.4319">
        <ele>1266</ele>
        <time>2022-08-27T14:43:53Z</time>
      </trkpt>
      <trkpt lat="44.88254" lon="5.43182">
        <ele>1264</ele>
        <time>2022-08-27T14:44:00Z</time>
      </trkpt>
      <trkpt lat="44.8826" lon="5.43189">
        <ele>1262</ele>
        <time>2022-08-27T14:44:08Z</time>
      </trkpt>
      <trkpt lat="44.88264" lon="5.43185">
        <ele>1261</ele>
        <time>2022-08-27T14:44:12Z</time>
      </trkpt>
      <trkpt lat="44.88266" lon="5.43179">
        <ele>1260</ele>
        <time>2022-08-27T14:44:16Z</time>
      </trkpt>
      <trkpt lat="44.88273" lon="5.43169">
        <ele>1259</ele>
        <time>2022-08-27T14:44:22Z</time>
      </trkpt>
      <trkpt lat="44.88276" lon="5.43167">
        <ele>1257</ele>
        <time>2022-08-27T14:44:35Z</time>
      </trkpt>
      <trkpt lat="44.8828" lon="5.4316">
        <ele>1256</ele>
        <time>2022-08-27T14:44:38Z</time>
      </trkpt>
      <trkpt lat="44.88284" lon="5.43158">
        <ele>1255</ele>
        <time>2022-08-27T14:44:42Z</time>
      </trkpt>
      <trkpt lat="44.88304" lon="5.43159">
        <ele>1253</ele>
        <time>2022-08-27T14:44:57Z</time>
      </trkpt>
      <trkpt lat="44.88309" lon="5.43162">
        <ele>1252</ele>
        <time>2022-08-27T14:45:01Z</time>
      </trkpt>
      <trkpt lat="44.8831" lon="5.43168">
        <ele>1251</ele>
        <time>2022-08-27T14:45:06Z</time>
      </trkpt>
      <trkpt lat="44.88317" lon="5.43168">
        <ele>1250</ele>
        <time>2022-08-27T14:45:12Z</time>
      </trkpt>
      <trkpt lat="44.88334" lon="5.43161">
        <ele>1247</ele>
        <time>2022-08-27T14:45:28Z</time>
      </trkpt>
      <trkpt lat="44.88335" lon="5.43156">
        <ele>1245</ele>
        <time>2022-08-27T14:45:34Z</time>
      </trkpt>
      <trkpt lat="44.88331" lon="5.43154">
        <ele>1244</ele>
        <time>2022-08-27T14:45:37Z</time>
      </trkpt>
      <trkpt lat="44.88327" lon="5.43154">
        <ele>1244</ele>
        <time>2022-08-27T14:45:41Z</time>
      </trkpt>
      <trkpt lat="44.88318" lon="5.4315">
        <ele>1242</ele>
        <time>2022-08-27T14:45:48Z</time>
      </trkpt>
      <trkpt lat="44.88313" lon="5.43144">
        <ele>1241</ele>
        <time>2022-08-27T14:45:54Z</time>
      </trkpt>
      <trkpt lat="44.88311" lon="5.43138">
        <ele>1241</ele>
        <time>2022-08-27T14:45:57Z</time>
      </trkpt>
      <trkpt lat="44.88312" lon="5.43138">
        <ele>1237</ele>
        <time>2022-08-27T14:46:15Z</time>
      </trkpt>
      <trkpt lat="44.88317" lon="5.43141">
        <ele>1236</ele>
        <time>2022-08-27T14:46:20Z</time>
      </trkpt>
      <trkpt lat="44.88319" lon="5.43135">
        <ele>1235</ele>
        <time>2022-08-27T14:46:26Z</time>
      </trkpt>
      <trkpt lat="44.8831" lon="5.4311">
        <ele>1230</ele>
        <time>2022-08-27T14:46:43Z</time>
      </trkpt>
      <trkpt lat="44.88315" lon="5.43109">
        <ele>1227</ele>
        <time>2022-08-27T14:46:57Z</time>
      </trkpt>
      <trkpt lat="44.88326" lon="5.43122">
        <ele>1224</ele>
        <time>2022-08-27T14:47:11Z</time>
      </trkpt>
      <trkpt lat="44.88341" lon="5.43124">
        <ele>1222</ele>
        <time>2022-08-27T14:47:22Z</time>
      </trkpt>
      <trkpt lat="44.8835" lon="5.43123">
        <ele>1220</ele>
        <time>2022-08-27T14:47:30Z</time>
      </trkpt>
      <trkpt lat="44.88355" lon="5.43118">
        <ele>1219</ele>
        <time>2022-08-27T14:47:36Z</time>
      </trkpt>
      <trkpt lat="44.88364" lon="5.43116">
        <ele>1220</ele>
        <time>2022-08-27T14:47:55Z</time>
      </trkpt>
      <trkpt lat="44.8837" lon="5.43121">
        <ele>1220</ele>
        <time>2022-08-27T14:48:03Z</time>
      </trkpt>
      <trkpt lat="44.88385" lon="5.4313">
        <ele>1221</ele>
        <time>2022-08-27T14:48:18Z</time>
      </trkpt>
      <trkpt lat="44.88389" lon="5.43138">
        <ele>1222</ele>
        <time>2022-08-27T14:48:24Z</time>
      </trkpt>
      <trkpt lat="44.884" lon="5.43132">
        <ele>1222</ele>
        <time>2022-08-27T14:48:31Z</time>
      </trkpt>
      <trkpt lat="44.88405" lon="5.43131">
        <ele>1223</ele>
        <time>2022-08-27T14:48:35Z</time>
      </trkpt>
      <trkpt lat="44.88423" lon="5.4313">
        <ele>1224</ele>
        <time>2022-08-27T14:48:53Z</time>
      </trkpt>
    </trkseg>
  </trk>
  <rte>
    <name><![CDATA[4 avr. 2019 à 23:11:12]]></name>
    <cmt><![CDATA[4 avr. 2019 à 23:11:12]]></cmt>
    <desc><![CDATA[{DC1}Heure de fin	: 
Durée totale	: 0h00:00
Moyenne globale	: -
Pente moyenne	: 0.00 %
Aire incluse	: 7.4932 ha
Détails par segments
distance  | durée    | vit.moy. | vit.max. | déniv. + | déniv -
   km     | hh:mn:ss |   km/h   |   km/h   |    m     |    m
     0.81 | 00:00:00 |      0.0 |      0.0 |        0 |        0{DC2}]]></desc>
      <rtept lat="45.60077" lon="6.18221">
        <ele>1608.6</ele>
      </rtept>
      <rtept lat="45.59468" lon="6.1822">
        <ele>1760.9</ele>
      </rtept>
      <rtept lat="45.59468" lon="6.1822">
        <ele>1760.9</ele>
      </rtept>
    </rte>
  <rte>
    <name><![CDATA[10 févr. 2019 à 15:16:12]]></name>
    <cmt><![CDATA[10 févr. 2019 à 15:16:12]]></cmt>
    <desc><![CDATA[{DC1}Heure de fin	: 00:09:21
Durée totale	: -17690439h43:48
Moyenne globale	: -
Pente moyenne	: 7.00 %
Aire incluse	: 221.0936 ha
Détails par segments
distance  | durée    | vit.moy. | vit.max. | déniv. + | déniv -
   km     | hh:mn:ss |   km/h   |   km/h   |    m     |    m
     7.48 | 00:00:00 |      0.0 |      0.0 |        0 |        0{DC2}]]></desc>
      <rtept lat="45.55203" lon="5.93805">
        <ele>376</ele>
      </rtept>
      <rtept lat="45.55177" lon="5.93873">
        <ele>369</ele>
      </rtept>
      <rtept lat="45.55176" lon="5.93942">
        <ele>367</ele>
      </rtept>
      <rtept lat="45.55105" lon="5.93942">
        <ele>367</ele>
      </rtept>
      <rtept lat="45.54993" lon="5.93908">
        <ele>371</ele>
      </rtept>
      <rtept lat="45.54929" lon="5.94099">
        <ele>370</ele>
      </rtept>
      <rtept lat="45.54908" lon="5.94204">
        <ele>367</ele>
      </rtept>
      <rtept lat="45.54991" lon="5.94287">
        <ele>365</ele>
      </rtept>
      <rtept lat="45.5506" lon="5.94384">
        <ele>361</ele>
      </rtept>
      <rtept lat="45.55147" lon="5.94384">
        <ele>357</ele>
      </rtept>
      <rtept lat="45.55129" lon="5.94607">
        <ele>358</ele>
      </rtept>
      <rtept lat="45.55029" lon="5.94809">
        <ele>355</ele>
      </rtept>
      <rtept lat="45.54884" lon="5.94886">
        <ele>346</ele>
      </rtept>
      <rtept lat="45.5477" lon="5.94931">
        <ele>342</ele>
      </rtept>
      <rtept lat="45.5468" lon="5.95004">
        <ele>339</ele>
      </rtept>
      <rtept lat="45.54596" lon="5.95133">
        <ele>340</ele>
      </rtept>
      <rtept lat="45.54446" lon="5.95195">
        <ele>343</ele>
      </rtept>
      <rtept lat="45.543" lon="5.95262">
        <ele>344</ele>
      </rtept>
      <rtept lat="45.54156" lon="5.95212">
        <ele>337</ele>
      </rtept>
      <rtept lat="45.54041" lon="5.95204">
        <ele>338</ele>
      </rtept>
      <rtept lat="45.53917" lon="5.95141">
        <ele>343</ele>
      </rtept>
      <rtept lat="45.53844" lon="5.95135">
        <ele>347</ele>
      </rtept>
      <rtept lat="45.53765" lon="5.9503">
        <ele>349</ele>
      </rtept>
      <rtept lat="45.5381" lon="5.94993">
        <ele>352</ele>
      </rtept>
      <rtept lat="45.53781" lon="5.94901">
        <ele>358</ele>
      </rtept>
      <rtept lat="45.53711" lon="5.94845">
        <ele>365</ele>
      </rtept>
      <rtept lat="45.53702" lon="5.94764">
        <ele>369</ele>
      </rtept>
      <rtept lat="45.53817" lon="5.94807">
        <ele>376</ele>
      </rtept>
      <rtept lat="45.53865" lon="5.94633">
        <ele>389</ele>
      </rtept>
      <rtept lat="45.53778" lon="5.94491">
        <ele>408</ele>
      </rtept>
      <rtept lat="45.53757" lon="5.94371">
        <ele>425</ele>
      </rtept>
      <rtept lat="45.53775" lon="5.94279">
        <ele>434</ele>
      </rtept>
      <rtept lat="45.53726" lon="5.94227">
        <ele>442</ele>
      </rtept>
      <rtept lat="45.53572" lon="5.94146">
        <ele>468</ele>
      </rtept>
      <rtept lat="45.53664" lon="5.94039">
        <ele>483</ele>
      </rtept>
      <rtept lat="45.53532" lon="5.93983">
        <ele>505</ele>
      </rtept>
      <rtept lat="45.53416" lon="5.93985">
        <ele>516</ele>
      </rtept>
      <rtept lat="45.5355" lon="5.93869">
        <ele>532</ele>
      </rtept>
      <rtept lat="45.5359" lon="5.93845">
        <ele>537</ele>
      </rtept>
      <rtept lat="45.5355" lon="5.93802">
        <ele>544</ele>
      </rtept>
      <rtept lat="45.53724" lon="5.93554">
        <ele>587</ele>
      </rtept>
      <rtept lat="45.53691" lon="5.93339">
        <ele>592</ele>
      </rtept>
      <rtept lat="45.5376" lon="5.93178">
        <ele>575</ele>
      </rtept>
      <rtept lat="45.53843" lon="5.93069">
        <ele>555</ele>
      </rtept>
      <rtept lat="45.53939" lon="5.93157">
        <ele>541</ele>
      </rtept>
      <rtept lat="45.54068" lon="5.93234">
        <ele>522</ele>
      </rtept>
      <rtept lat="45.54219" lon="5.93247">
        <ele>514</ele>
      </rtept>
      <rtept lat="45.54355" lon="5.93232">
        <ele>512</ele>
      </rtept>
      <rtept lat="45.54489" lon="5.9326">
        <ele>508</ele>
      </rtept>
      <rtept lat="45.54636" lon="5.93249">
        <ele>510</ele>
      </rtept>
      <rtept lat="45.54758" lon="5.93249">
        <ele>510</ele>
      </rtept>
      <rtept lat="45.54818" lon="5.93298">
        <ele>507</ele>
      </rtept>
      <rtept lat="45.54796" lon="5.93418">
        <ele>496</ele>
      </rtept>
      <rtept lat="45.5491" lon="5.93433">
        <ele>483</ele>
      </rtept>
      <rtept lat="45.55126" lon="5.9341">
        <ele>463</ele>
      </rtept>
      <rtept lat="45.55256" lon="5.93453">
        <ele>444</ele>
      </rtept>
      <rtept lat="45.55329" lon="5.93558">
        <ele>430</ele>
      </rtept>
      <rtept lat="45.55222" lon="5.93642">
        <ele>415</ele>
      </rtept>
      <rtept lat="45.55195" lon="5.93811">
        <ele>375</ele>
      </rtept>
    </rte>
  <rte>
    <name><![CDATA[10 févr. 2019 à 15:15:48]]></name>
    <cmt><![CDATA[10 févr. 2019 à 15:15:48]]></cmt>
    <desc><![CDATA[{DC1}Heure de fin	: 00:09:21
Durée totale	: -17690439h44:12
Moyenne globale	: -
Pente moyenne	: nan %
Aire incluse	: 0.0000 ha
Détails par segments
distance  | durée    | vit.moy. | vit.max. | déniv. + | déniv -
   km     | hh:mn:ss |   km/h   |   km/h   |    m     |    m
     0.00 | 00:00:00 |      0.0 |      0.0 |        0 |        0{DC2}]]></desc>
      <rtept lat="45.5175" lon="5.93483">
        <ele>732.3</ele>
      </rtept>
    </rte>
  <rte>
    <name><![CDATA[10 févr. 2019 à 15:06:08]]></name>
    <cmt><![CDATA[10 févr. 2019 à 15:06:08]]></cmt>
    <desc><![CDATA[{DC1}Heure de fin	: 
Durée totale	: 0h00:00
Moyenne globale	: -
Pente moyenne	: 8.03 %
Aire incluse	: 204.0794 ha
Détails par segments
distance  | durée    | vit.moy. | vit.max. | déniv. + | déniv -
   km     | hh:mn:ss |   km/h   |   km/h   |    m     |    m
    12.88 | 00:00:00 |      0.0 |      0.0 |        0 |        0{DC2}]]></desc>
      <rtept lat="45.5509" lon="5.9394">
        <ele>368</ele>
      </rtept>
      <rtept lat="45.55217" lon="5.93791">
        <ele>377</ele>
      </rtept>
    </rte>
  <rte>
    <name><![CDATA[10 févr. 2019 à 14:22:06]]></name>
    <cmt><![CDATA[10 févr. 2019 à 14:22:06]]></cmt>
    <desc><![CDATA[{DC1}Heure de fin	: 00:09:21
Durée totale	: -17690438h37:54
Moyenne globale	: -
Pente moyenne	: 5.62 %
Aire incluse	: 5.7967 ha
Détails par segments
distance  | durée    | vit.moy. | vit.max. | déniv. + | déniv -
   km     | hh:mn:ss |   km/h   |   km/h   |    m     |    m
     3.30 | 00:00:00 |      0.0 |      0.0 |        0 |        0{DC2}]]></desc>
      <rtept lat="45.55169" lon="5.93089">
        <ele>415</ele>
      </rtept>
      <rtept lat="45.5518" lon="5.93905">
        <ele>366</ele>
      </rtept>
    </rte>
  <rte>
    <name><![CDATA[10 févr. 2019 à 09:50:45]]></name>
    <cmt><![CDATA[10 févr. 2019 à 09:50:45]]></cmt>
    <desc><![CDATA[{DC1}Heure de fin	: 00:09:21
Durée totale	: -17690433h09:14
Moyenne globale	: -
Pente moyenne	: 0.00 %
Aire incluse	: 50.7119 ha
Détails par segments
distance  | durée    | vit.moy. | vit.max. | déniv. + | déniv -
   km     | hh:mn:ss |   km/h   |   km/h   |    m     |    m
     4.33 | 00:00:00 |      0.0 |      0.0 |        0 |        0{DC2}]]></desc>
      <rtept lat="45.5503" lon="5.93918">
        <ele>373.6</ele>
      </rtept>
      <rtept lat="45.55191" lon="5.93893">
        <ele>366.7</ele>
      </rtept>
    </rte>
  <rte>
    <name><![CDATA[10 févr. 2019 à 09:07:08]]></name>
    <cmt><![CDATA[10 févr. 2019 à 09:07:08]]></cmt>
    <desc><![CDATA[{DC1}Heure de fin	: 00:09:21
Durée totale	: -17690433h52:52
Moyenne globale	: -
Pente moyenne	: nan %
Aire incluse	: 0.0000 ha
Détails par segments
distance  | durée    | vit.moy. | vit.max. | déniv. + | déniv -
   km     | hh:mn:ss |   km/h   |   km/h   |    m     |    m
     0.00 | 00:00:00 |      0.0 |      0.0 |        0 |        0{DC2}]]></desc>
      <rtept lat="45.55102" lon="5.93919">
        <ele>370.1</ele>
      </rtept>
    </rte>
  <rte>
    <name><![CDATA[10 févr. 2019 à 09:02:25]]></name>
    <cmt><![CDATA[10 févr. 2019 à 09:02:25]]></cmt>
    <desc><![CDATA[{DC1}Heure de fin	: 00:09:21
Durée totale	: -17690433h57:35
Moyenne globale	: -
Pente moyenne	: nan %
Aire incluse	: 0.0000 ha
Détails par segments
distance  | durée    | vit.moy. | vit.max. | déniv. + | déniv -
   km     | hh:mn:ss |   km/h   |   km/h   |    m     |    m
     0.00 | 00:00:00 |      0.0 |      0.0 |        0 |        0{DC2}]]></desc>
      <rtept lat="45.55207" lon="5.93813">
        <ele>375.2</ele>
      </rtept>
    </rte>
  <rte>
    <name><![CDATA[10 févr. 2019 à 09:00:27]]></name>
    <cmt><![CDATA[10 févr. 2019 à 09:00:27]]></cmt>
    <desc><![CDATA[{DC1}Heure de fin	: 00:09:21
Durée totale	: -17690433h59:32
Moyenne globale	: -
Pente moyenne	: nan %
Aire incluse	: 0.0000 ha
Détails par segments
distance  | durée    | vit.moy. | vit.max. | déniv. + | déniv -
   km     | hh:mn:ss |   km/h   |   km/h   |    m     |    m
     0.00 | 00:00:00 |      0.0 |      0.0 |        0 |        0{DC2}]]></desc>
      <rtept lat="45.55244" lon="5.93858">
        <ele>366.6</ele>
      </rtept>
    </rte>
</gpx>